EW1734 Weather Reports


Display with metric or nautical units.
time (UTC)temp
F
wind
direction
speed
MPH
gust
MPH
rain 1hr
in
rain 24hr
in
rain mn
in
humidity
%
barometer
mb
20260831031420 77 304 0.0 0.0 0.00 0.00 0.00 59 1010.3
20260831031349 77 304 0.0 0.0 0.00 0.00 0.00 60 1010.3
20260831031338 77 25 0.0 0.0 0.00 0.00 0.00 58 1010.3
20260831031334 77 304 0.0 0.0 0.00 0.00 0.00 59 1010.3
20260831031322 77 304 0.0 0.0 0.00 0.00 0.00 59 1010.3
20260831031312 77 304 0.0 0.0 0.00 0.00 0.00 58 1010.3
20260831031239 77 301 0.0 0.0 0.00 0.00 0.00 59 1011.3
20260831031026 77 304 0.0 0.0 0.00 0.00 0.00 58 1010.3
20260831031013 77 25 0.0 0.0 0.00 0.00 0.00 58 1010.3
20260831030921 77 304 0.0 0.0 0.00 0.00 0.00 58 1010.3
20260831030824 77 304 0.0 0.0 0.00 0.00 0.00 58 1010.3
20260831030814 77 304 0.0 0.0 0.00 0.00 0.00 58 1010.3
20260831030804 77 304 0.0 0.0 0.00 0.00 0.00 58 1010.3
20260831030734 77 304 0.0 0.0 0.00 0.00 0.00 58 1011.2
20260831030504 77 25 0.0 0.0 0.00 0.00 0.00 57 1010.3
20260831030433 77 25 0.0 0.0 0.00 0.00 0.00 58 1010.3
20260831030350 77 25 0.0 0.0 0.00 0.00 0.00 59 1010.3
20260831030320 77 25 0.0 0.0 0.00 0.00 0.00 58 1010.3
20260831030232 77 329 0.0 0.0 0.00 0.00 0.00 58 1011.2
20260831030220 77 25 0.0 0.0 0.00 0.00 0.00 58 1010.3
20260831030143 77 25 0.0 0.0 0.00 0.00 0.00 58 1010.3
20260831030135 77 25 0.0 0.0 0.00 0.00 0.00 58 1010.3
20260831025920 77 25 0.0 0.0 0.00 0.00 0.00 58 1010.3
20260831025820 77 25 0.0 0.0 0.00 0.00 0.00 58 1010.3
20260831025749 77 25 0.0 0.0 0.00 0.00 0.00 58 1010.3
20260831025731 77 326 0.0 0.0 0.00 0.00 0.00 58 1011.2
20260831025722 77 25 0.0 0.0 0.00 0.00 0.00 58 1010.3
20260831025620 77 0 0.0 0.0 0.00 0.00 0.00 58 1010.2
20260831025520 77 0 0.0 0.0 0.00 0.00 0.00 58 1010.2
20260831025450 77 0 0.0 0.0 0.00 0.00 0.00 58 1010.2
20260831025422 77 0 0.0 0.0 0.00 0.00 0.00 57 1010.2
20260831025320 77 0 0.0 0.0 0.00 0.00 0.00 57 1010.2
20260831025221 77 343 0.0 2.0 0.00 0.00 0.00 58 1011.1
20260831025120 77 0 0.0 0.0 0.00 0.00 0.00 58 1010.2
20260831025050 77 0 0.0 0.0 0.00 0.00 0.00 57 1010.2
20260831025023 78 0 0.0 0.0 0.00 0.00 0.00 58 1010.2
20260831024950 78 0 0.0 0.0 0.00 0.00 0.00 58 1010.2
20260831024921 78 0 0.0 0.0 0.00 0.00 0.00 57 1010.2
20260831024849 78 0 0.0 0.0 0.00 0.00 0.00 58 1010.2
20260831024820 78 0 0.0 0.0 0.00 0.00 0.00 57 1010.2
20260831024800 78 328 1.0 0.0 0.00 0.00 0.00 57 1010.2
20260831024750 78 0 0.0 0.0 0.00 0.00 0.00 57 1010.2
20260831024723 78 0 0.0 0.0 0.00 0.00 0.00 57 1010.2
20260831024717 78 0 0.0 2.0 0.00 0.00 0.00 57 1011.1
20260831024621 78 328 1.0 0.0 0.00 0.00 0.00 57 1010.2
20260831024520 78 328 1.0 0.0 0.00 0.00 0.00 57 1010.2
20260831024438 78 328 1.0 0.0 0.00 0.00 0.00 57 1010.2
20260831024434 78 328 1.0 0.0 0.00 0.00 0.00 57 1010.2
20260831024255 78 328 1.0 0.0 0.00 0.00 0.00 57 1010.2
20260831024220 78 328 1.0 0.0 0.00 0.00 0.00 57 1010.2
20260831024215 78 333 0.0 1.0 0.00 0.00 0.00 57 1011.2
20260831024122 78 328 1.0 0.0 0.00 0.00 0.00 57 1010.2
20260831024100 78 37 1.0 0.0 0.00 0.00 0.00 57 1010.0
20260831024050 78 328 1.0 0.0 0.00 0.00 0.00 57 1010.2
20260831023749 78 328 1.0 0.0 0.00 0.00 0.00 57 1010.2
20260831023722 78 328 1.0 2.0 0.00 0.00 0.00 57 1010.2
20260831023714 78 304 0.0 2.0 0.00 0.00 0.00 57 1011.1
20260831023646 78 37 1.0 0.0 0.00 0.00 0.00 57 1010.0
20260831023420 78 37 1.0 0.0 0.00 0.00 0.00 57 1010.0
20260831023351 78 37 1.0 0.0 0.00 0.00 0.00 57 1010.0
20260831023320 79 37 1.0 0.0 0.00 0.00 0.00 57 1010.0
20260831023223 79 37 1.0 0.0 0.00 0.00 0.00 57 1010.0
20260831023213 79 315 0.0 3.0 0.00 0.00 0.00 57 1011.0
20260831023120 79 37 1.0 0.0 0.00 0.00 0.00 57 1010.0
20260831023102 79 37 1.0 0.0 0.00 0.00 0.00 57 1010.0
20260831023022 79 37 1.0 0.0 0.00 0.00 0.00 57 1010.0
20260831022934 79 37 1.0 0.0 0.00 0.00 0.00 57 1010.0
20260831022850 79 37 1.0 0.0 0.00 0.00 0.00 57 1010.0
20260831022821 79 37 1.0 0.0 0.00 0.00 0.00 58 1010.0
20260831022749 79 37 1.0 0.0 0.00 0.00 0.00 57 1010.0
20260831022722 79 37 1.0 1.0 0.00 0.00 0.00 57 1010.0
20260831022708 79 297 0.0 1.0 0.00 0.00 0.00 57 1011.1
20260831022649 79 283 0.0 0.0 0.00 0.00 0.00 57 1010.1
20260831022619 79 283 0.0 0.0 0.00 0.00 0.00 57 1010.1
20260831022533 79 283 0.0 0.0 0.00 0.00 0.00 57 1010.1
20260831022509 79 283 0.0 0.0 0.00 0.00 0.00 57 1010.1
20260831022421 79 283 0.0 0.0 0.00 0.00 0.00 57 1010.1
20260831022321 79 283 0.0 0.0 0.00 0.00 0.00 57 1010.1
20260831022249 79 283 0.0 0.0 0.00 0.00 0.00 58 1010.1
20260831022220 79 283 0.0 0.0 0.00 0.00 0.00 57 1010.1
20260831022203 79 307 1.0 2.0 0.00 0.00 0.00 57 1011.0
20260831022153 80 343 0.0 0.0 0.00 0.00 0.00 57 1009.7
20260831022143 79 283 0.0 0.0 0.00 0.00 0.00 57 1010.1
20260831021920 79 283 0.0 0.0 0.00 0.00 0.00 57 1010.1
20260831021821 79 283 0.0 0.0 0.00 0.00 0.00 57 1010.1
20260831021750 80 283 0.0 0.0 0.00 0.00 0.00 57 1010.1
20260831021738 80 283 0.0 1.0 0.00 0.00 0.00 57 1010.1
20260831021702 80 297 0.0 2.0 0.00 0.00 0.00 57 1010.7
20260831021520 80 343 0.0 0.0 0.00 0.00 0.00 57 1009.7
20260831021450 80 343 0.0 0.0 0.00 0.00 0.00 57 1009.7
20260831021420 80 343 0.0 0.0 0.00 0.00 0.00 57 1009.7
20260831021351 80 343 0.0 0.0 0.00 0.00 0.00 56 1009.7
20260831021320 80 343 0.0 0.0 0.00 0.00 0.00 56 1009.7
20260831021220 80 343 0.0 0.0 0.00 0.00 0.00 56 1009.7
20260831021157 80 297 0.0 2.0 0.00 0.00 0.00 56 1010.9
20260831021120 80 343 0.0 0.0 0.00 0.00 0.00 56 1009.7
20260831021019 80 343 0.0 0.0 0.00 0.00 0.00 56 1009.7
20260831020958 80 283 1.0 0.0 0.00 0.00 0.00 56 1009.9
20260831020920 80 343 0.0 0.0 0.00 0.00 0.00 56 1009.7
20260831020822 80 343 0.0 0.0 0.00 0.00 0.00 56 1009.7
20260831020752 80 343 0.0 0.0 0.00 0.00 0.00 56 1009.7
20260831020742 81 283 1.0 0.0 0.00 0.00 0.00 55 1009.9
20260831020722 80 343 0.0 1.0 0.00 0.00 0.00 56 1009.7
20260831020653 80 351 0.0 2.0 0.00 0.00 0.00 56 1010.7
20260831020638 81 283 1.0 0.0 0.00 0.00 0.00 55 1009.9
20260831020634 80 283 1.0 0.0 0.00 0.00 0.00 56 1009.9
20260831020438 81 283 1.0 0.0 0.00 0.00 0.00 56 1009.9
20260831020434 81 283 1.0 0.0 0.00 0.00 0.00 56 1009.9
20260831020420 81 283 1.0 0.0 0.00 0.00 0.00 56 1009.9
20260831020411 81 283 1.0 0.0 0.00 0.00 0.00 56 1009.9
20260831020148 81 315 2.0 3.0 0.00 0.00 0.00 55 1010.8
20260831020036 81 313 1.0 0.0 0.00 0.00 0.00 56 1009.8
20260831020023 81 283 1.0 0.0 0.00 0.00 0.00 55 1009.9
20260831015920 81 283 1.0 0.0 0.00 0.00 0.00 56 1009.9
20260831015901 81 283 1.0 0.0 0.00 0.00 0.00 56 1009.9
20260831015722 81 283 1.0 1.0 0.00 0.00 0.00 56 1009.9
20260831015659 81 313 1.0 0.0 0.00 0.00 0.00 56 1009.8
20260831015644 81 309 0.0 2.0 0.00 0.00 0.00 56 1010.8
20260831015520 81 313 1.0 0.0 0.00 0.00 0.00 55 1009.8
20260831015449 81 313 1.0 0.0 0.00 0.00 0.00 55 1009.8
20260831015438 82 313 1.0 0.0 0.00 0.00 0.00 55 1009.8
20260831015420 82 313 1.0 0.0 0.00 0.00 0.00 55 1009.8
20260831015351 82 313 1.0 0.0 0.00 0.00 0.00 55 1009.8
20260831015329 82 313 1.0 0.0 0.00 0.00 0.00 55 1009.8
20260831015320 82 313 1.0 0.0 0.00 0.00 0.00 55 1009.8
20260831015251 82 313 1.0 0.0 0.00 0.00 0.00 55 1009.8
20260831015221 82 313 1.0 0.0 0.00 0.00 0.00 55 1009.8
20260831015143 82 313 1.0 2.0 0.00 0.00 0.00 55 1010.8
20260831015129 82 313 1.0 0.0 0.00 0.00 0.00 55 1009.8
20260831015114 82 313 1.0 0.0 0.00 0.00 0.00 55 1009.8
20260831014820 82 313 1.0 0.0 0.00 0.00 0.00 55 1009.8
20260831014749 82 313 1.0 0.0 0.00 0.00 0.00 54 1009.8
20260831014726 83 323 0.0 0.0 0.00 0.00 0.00 54 1009.9
20260831014722 82 313 1.0 1.0 0.00 0.00 0.00 54 1009.8
20260831014649 82 323 0.0 0.0 0.00 0.00 0.00 55 1009.9
20260831014638 82 309 0.0 3.0 0.00 0.00 0.00 55 1010.9
20260831014620 82 323 0.0 0.0 0.00 0.00 0.00 54 1009.9
20260831014520 82 323 0.0 0.0 0.00 0.00 0.00 55 1009.9
20260831014450 82 323 0.0 0.0 0.00 0.00 0.00 54 1009.9
20260831014427 83 34 1.0 0.0 0.00 0.00 0.00 54 1010.0
20260831014421 83 323 0.0 0.0 0.00 0.00 0.00 54 1009.9
20260831014401 83 323 0.0 0.0 0.00 0.00 0.00 54 1009.9
20260831014220 83 323 0.0 0.0 0.00 0.00 0.00 54 1009.9
20260831014208 83 34 1.0 0.0 0.00 0.00 0.00 54 1010.0
20260831014133 83 315 1.0 2.0 0.00 0.00 0.00 54 1010.9
20260831014121 83 323 0.0 0.0 0.00 0.00 0.00 54 1009.9
20260831014032 83 323 0.0 0.0 0.00 0.00 0.00 54 1009.9
20260831014014 83 323 0.0 0.0 0.00 0.00 0.00 54 1009.9
20260831013853 83 323 0.0 0.0 0.00 0.00 0.00 54 1009.9
20260831013845 83 323 0.0 0.0 0.00 0.00 0.00 54 1009.9
20260831013722 83 323 0.0 1.0 0.00 0.00 0.00 54 1009.9
20260831013632 83 34 1.0 0.0 0.00 0.00 0.00 54 1010.0
20260831013629 83 222 1.0 2.0 0.00 0.00 0.00 54 1010.8
20260831013527 83 34 1.0 0.0 0.00 0.00 0.00 54 1010.0
20260831013512 83 34 1.0 0.0 0.00 0.00 0.00 54 1010.0
20260831013219 83 34 1.0 0.0 0.00 0.00 0.00 53 1010.0
20260831013149 83 34 1.0 0.0 0.00 0.00 0.00 54 1010.0
20260831013128 84 315 0.0 1.0 0.00 0.00 0.00 53 1010.8
20260831013120 83 34 1.0 0.0 0.00 0.00 0.00 53 1010.0
20260831013048 83 34 1.0 0.0 0.00 0.00 0.00 54 1010.0
20260831013020 83 34 1.0 0.0 0.00 0.00 0.00 53 1010.0
20260831012949 83 34 1.0 0.0 0.00 0.00 0.00 53 1010.0
20260831012919 84 34 1.0 0.0 0.00 0.00 0.00 53 1010.0
20260831012853 84 246 1.0 0.0 0.00 0.00 0.00 53 1009.9
20260831012819 84 34 1.0 0.0 0.00 0.00 0.00 53 1010.0
20260831012750 84 34 1.0 0.0 0.00 0.00 0.00 53 1010.0
20260831012740 84 246 1.0 0.0 0.00 0.00 0.00 53 1009.9
20260831012733 84 34 1.0 2.0 0.00 0.00 0.00 53 1010.0
20260831012623 84 7 1.0 2.0 0.00 0.00 0.00 53 1010.8
20260831012620 84 246 1.0 0.0 0.00 0.00 0.00 53 1009.9
20260831012538 84 246 1.0 0.0 0.00 0.00 0.00 53 1009.9
20260831012534 84 246 1.0 0.0 0.00 0.00 0.00 53 1009.9
20260831012359 84 246 1.0 0.0 0.00 0.00 0.00 53 1009.9
20260831012239 85 246 1.0 1.0 0.00 0.00 0.00 53 1009.9
20260831012232 84 246 1.0 0.0 0.00 0.00 0.00 53 1009.9
20260831012119 84 246 1.0 0.0 0.00 0.00 0.00 53 1009.9
20260831012058 84 246 1.0 0.0 0.00 0.00 0.00 53 1009.9
20260831011919 84 246 1.0 0.0 0.00 0.00 0.00 53 1009.9
20260831011902 85 304 1.0 0.0 0.00 0.00 0.00 52 1009.8
20260831011854 84 246 1.0 0.0 0.00 0.00 0.00 53 1009.9
20260831011846 84 246 1.0 0.0 0.00 0.00 0.00 53 1009.9
20260831011650 85 304 1.0 0.0 0.00 0.00 0.00 52 1009.8
20260831011619 85 304 1.0 0.0 0.00 0.00 0.00 53 1009.8
20260831011519 85 304 1.0 0.0 0.00 0.00 0.00 53 1009.8
20260831011459 85 304 1.0 0.0 0.00 0.00 0.00 52 1009.8
20260831011319 85 304 1.0 0.0 0.00 0.00 0.00 52 1009.8
20260831011228 86 304 1.0 2.0 0.00 0.00 0.00 51 1009.8
20260831011219 85 304 1.0 0.0 0.00 0.00 0.00 52 1009.8
20260831011119 85 304 1.0 0.0 0.00 0.00 0.00 52 1009.8
20260831011114 85 92 0.0 2.0 0.00 0.00 0.00 52 1010.9
20260831011057 86 291 0.0 0.0 0.00 0.00 0.00 51 1009.7
20260831011023 85 304 1.0 0.0 0.00 0.00 0.00 52 1009.8
20260831010920 85 304 1.0 0.0 0.00 0.00 0.00 52 1009.8
20260831010908 86 291 0.0 0.0 0.00 0.00 0.00 51 1009.7
20260831010859 85 304 1.0 0.0 0.00 0.00 0.00 52 1009.8
20260831010848 85 304 1.0 0.0 0.00 0.00 0.00 51 1009.8
20260831010610 86 279 1.0 4.0 0.00 0.00 0.00 51 1010.8
20260831010520 86 291 0.0 0.0 0.00 0.00 0.00 51 1009.7
20260831010435 86 291 0.0 0.0 0.00 0.00 0.00 51 1009.7
20260831010304 86 291 0.0 0.0 0.00 0.00 0.00 50 1009.7
20260831010232 87 291 0.0 0.0 0.00 0.00 0.00 50 1009.7
20260831010222 86 291 0.0 0.0 0.00 0.00 0.00 50 1009.7
20260831010149 86 291 0.0 0.0 0.00 0.00 0.00 51 1009.7
20260831010124 86 291 0.0 0.0 0.00 0.00 0.00 50 1009.7
20260831010105 86 259 2.0 2.0 0.00 0.00 0.00 50 1010.8
20260831010101 86 291 0.0 0.0 0.00 0.00 0.00 50 1009.7
20260831010023 87 291 0.0 0.0 0.00 0.00 0.00 50 1009.7
20260831005919 87 291 0.0 0.0 0.00 0.00 0.00 50 1009.7
20260831005859 87 291 0.0 0.0 0.00 0.00 0.00 50 1009.7
20260831005726 88 320 0.0 0.0 0.00 0.00 0.00 49 1009.6
20260831005720 87 291 0.0 1.0 0.00 0.00 0.00 50 1009.7
20260831005620 87 320 0.0 0.0 0.00 0.00 0.00 49 1009.6
20260831005600 87 311 2.0 2.0 0.00 0.00 0.00 49 1010.6
20260831005531 88 320 0.0 0.0 0.00 0.00 0.00 49 1009.6
20260831005522 87 320 0.0 0.0 0.00 0.00 0.00 49 1009.6
20260831005449 87 320 0.0 0.0 0.00 0.00 0.00 49 1009.6
20260831005419 87 320 0.0 0.0 0.00 0.00 0.00 49 1009.6
20260831005409 87 320 0.0 0.0 0.00 0.00 0.00 49 1009.6
20260831005358 88 320 0.0 0.0 0.00 0.00 0.00 49 1009.6
20260831005220 88 320 0.0 0.0 0.00 0.00 0.00 49 1009.6
20260831005206 88 325 0.0 0.0 0.00 0.00 0.00 49 1009.5
20260831005159 88 320 0.0 0.0 0.00 0.00 0.00 49 1009.6
20260831005059 88 304 0.0 2.0 0.00 0.00 0.00 49 1010.7
20260831005020 88 320 0.0 0.0 0.00 0.00 0.00 49 1009.6
20260831004929 89 325 0.0 0.0 0.00 0.00 0.00 49 1009.5
20260831004919 88 320 0.0 0.0 0.00 0.00 0.00 49 1009.6
20260831004825 89 325 0.0 0.0 0.00 0.00 0.00 48 1009.5
20260831004820 88 320 0.0 0.0 0.00 0.00 0.00 49 1009.6
20260831004810 88 320 0.0 0.0 0.00 0.00 0.00 49 1009.6
20260831004800 88 320 0.0 2.0 0.00 0.00 0.00 49 1009.6
20260831004627 89 325 0.0 0.0 0.00 0.00 0.00 48 1009.5
20260831004620 88 325 0.0 0.0 0.00 0.00 0.00 49 1009.5
20260831004608 88 325 0.0 0.0 0.00 0.00 0.00 48 1009.5
20260831004558 89 325 0.0 0.0 0.00 0.00 0.00 49 1009.5
20260831004555 88 298 1.0 2.0 0.00 0.00 0.00 48 1010.6
20260831004431 89 325 0.0 0.0 0.00 0.00 0.00 47 1009.5
20260831004425 89 325 0.0 0.0 0.00 0.00 0.00 49 1009.5
20260831004413 89 325 0.0 0.0 0.00 0.00 0.00 48 1009.5
20260831004119 89 325 0.0 0.0 0.00 0.00 0.00 47 1009.5
20260831004051 89 307 2.0 3.0 0.00 0.00 0.00 47 1010.5
20260831004049 90 299 0.0 0.0 0.00 0.00 0.00 47 1009.6
20260831004039 89 325 0.0 0.0 0.00 0.00 0.00 48 1009.5
20260831003820 90 325 0.0 0.0 0.00 0.00 0.00 47 1009.5
20260831003749 90 325 0.0 0.0 0.00 0.00 0.00 47 1009.5
20260831003720 90 325 0.0 2.0 0.00 0.00 0.00 47 1009.5
20260831003657 91 299 0.0 0.0 0.00 0.00 0.00 46 1009.6
20260831003647 90 299 0.0 0.0 0.00 0.00 0.00 47 1009.6
20260831003547 90 297 0.0 2.0 0.00 0.00 0.00 47 1010.5
20260831003420 90 299 0.0 0.0 0.00 0.00 0.00 47 1009.6
20260831003348 90 299 0.0 0.0 0.00 0.00 0.00 47 1009.6
20260831003318 90 299 0.0 0.0 0.00 0.00 0.00 46 1009.6
20260831003248 90 299 0.0 0.0 0.00 0.00 0.00 46 1009.6
20260831003235 91 299 0.0 0.0 0.00 0.00 0.00 46 1009.6
20260831003043 91 286 1.0 2.0 0.00 0.00 0.00 46 1010.6
20260831003019 91 299 0.0 0.0 0.00 0.00 0.00 46 1009.6
20260831002920 91 299 0.0 0.0 0.00 0.00 0.00 46 1009.6
20260831002849 91 299 0.0 0.0 0.00 0.00 0.00 47 1009.6
20260831002822 91 299 0.0 0.0 0.00 0.00 0.00 46 1009.6
20260831002810 92 276 2.0 0.0 0.00 0.00 0.00 45 1009.5
20260831002748 91 299 0.0 0.0 0.00 0.00 0.00 46 1009.6
20260831002722 91 299 0.0 2.0 0.00 0.00 0.00 46 1009.6
20260831002649 91 276 2.0 0.0 0.00 0.00 0.00 46 1009.5
20260831002620 91 276 2.0 0.0 0.00 0.00 0.00 45 1009.5
20260831002548 91 276 2.0 0.0 0.00 0.00 0.00 45 1009.5
20260831002541 91 262 0.0 2.0 0.00 0.00 0.00 46 1010.4
20260831002538 92 276 2.0 0.0 0.00 0.00 0.00 45 1009.5
20260831002522 91 276 2.0 0.0 0.00 0.00 0.00 46 1009.5
20260831002456 92 276 2.0 0.0 0.00 0.00 0.00 45 1009.5
20260831002441 92 276 2.0 0.0 0.00 0.00 0.00 44 1009.5
20260831002436 91 276 2.0 0.0 0.00 0.00 0.00 45 1009.5
20260831002239 92 247 0.0 0.0 0.00 0.00 0.00 44 1009.6
20260831002232 92 276 2.0 0.0 0.00 0.00 0.00 44 1009.5
20260831002220 92 276 2.0 0.0 0.00 0.00 0.00 45 1009.5
20260831002037 92 326 0.0 2.0 0.00 0.00 0.00 45 1010.4
20260831001930 92 276 2.0 0.0 0.00 0.00 0.00 45 1009.5
20260831001805 92 276 2.0 0.0 0.00 0.00 0.00 45 1009.5
20260831001754 92 276 2.0 2.0 0.00 0.00 0.00 45 1009.5
20260831001743 92 247 0.0 0.0 0.00 0.00 0.00 45 1009.6
20260831001548 92 247 0.0 0.0 0.00 0.00 0.00 44 1009.6
20260831001534 92 247 0.0 0.0 0.00 0.00 0.00 45 1009.6
20260831001532 93 252 1.0 3.0 0.00 0.00 0.00 45 1010.5
20260831001449 92 247 0.0 0.0 0.00 0.00 0.00 45 1009.6
20260831001419 93 247 0.0 0.0 0.00 0.00 0.00 44 1009.6
20260831001351 93 247 0.0 0.0 0.00 0.00 0.00 44 1009.6
20260831001319 93 247 0.0 0.0 0.00 0.00 0.00 44 1009.6
20260831001233 94 247 0.0 0.0 0.00 0.00 0.00 43 1009.6
20260831001220 93 247 0.0 0.0 0.00 0.00 0.00 44 1009.6
20260831001119 94 247 0.0 0.0 0.00 0.00 0.00 43 1009.6
20260831001048 94 247 0.0 0.0 0.00 0.00 0.00 43 1009.6
20260831001029 94 287 1.0 2.0 0.00 0.00 0.00 43 1010.4
20260831001021 94 247 0.0 0.0 0.00 0.00 0.00 44 1009.6
20260831000920 94 247 0.0 0.0 0.00 0.00 0.00 43 1009.6
20260831000859 94 247 0.0 0.0 0.00 0.00 0.00 43 1009.6
20260831000732 96 324 1.0 0.0 0.00 0.00 0.00 41 1009.6
20260831000722 94 247 0.0 2.0 0.00 0.00 0.00 43 1009.6
20260831000649 94 324 1.0 0.0 0.00 0.00 0.00 42 1009.6
20260831000619 94 324 1.0 0.0 0.00 0.00 0.00 43 1009.6
20260831000525 95 284 1.0 2.0 0.00 0.00 0.00 42 1010.2
20260831000521 95 324 1.0 0.0 0.00 0.00 0.00 42 1009.6
20260831000448 95 324 1.0 0.0 0.00 0.00 0.00 42 1009.6
20260831000434 95 324 1.0 0.0 0.00 0.00 0.00 41 1009.6
20260831000410 95 324 1.0 0.0 0.00 0.00 0.00 42 1009.6
20260831000359 96 324 1.0 0.0 0.00 0.00 0.00 42 1009.6
20260831000226 94 324 1.0 0.0 0.00 0.00 0.00 43 1009.6
20260831000221 96 324 1.0 0.0 0.00 0.00 0.00 42 1009.6
20260831000148 96 324 1.0 0.0 0.00 0.00 0.00 42 1009.6
20260831000133 95 324 1.0 0.0 0.00 0.00 0.00 42 1009.6
20260831000029 94 271 2.0 0.0 0.00 0.00 0.00 44 1009.8
20260831000024 95 279 1.0 2.0 0.00 0.00 0.00 42 1010.6
20260831000020 95 324 1.0 0.0 0.00 0.00 0.00 43 1009.6
20260830235949 94 324 1.0 0.0 0.00 0.00 0.00 42 1009.6
20260830235919 94 324 1.0 0.0 0.00 0.00 0.00 43 1009.6
20260830235858 94 324 1.0 0.0 0.00 0.00 0.00 43 1009.6
20260830235723 93 324 1.0 0.0 0.00 0.00 0.00 44 1009.6
20260830235711 93 324 1.0 2.0 0.00 0.00 0.00 45 1009.6
20260830235700 93 271 2.0 0.0 0.00 0.00 0.00 44 1009.8
20260830235523 95 282 0.0 2.0 0.00 0.00 0.00 43 1010.6
20260830235519 94 271 2.0 0.0 0.00 0.00 0.00 43 1009.8
20260830235503 94 271 2.0 0.0 0.00 0.00 0.00 43 1009.8
20260830235419 94 271 2.0 0.0 0.00 0.00 0.00 42 1009.8
20260830235321 95 271 2.0 0.0 0.00 0.00 0.00 42 1009.8
20260830235219 95 271 2.0 0.0 0.00 0.00 0.00 42 1009.8
20260830235153 94 271 2.0 0.0 0.00 0.00 0.00 43 1009.8
20260830235119 95 271 2.0 0.0 0.00 0.00 0.00 42 1009.8
20260830235023 95 271 2.0 0.0 0.00 0.00 0.00 42 1009.8
20260830235019 95 295 1.0 3.0 0.00 0.00 0.00 42 1010.7
20260830234949 95 271 2.0 0.0 0.00 0.00 0.00 42 1009.8
20260830234927 93 242 0.0 0.0 0.00 0.00 0.00 44 1009.5
20260830234921 94 271 2.0 0.0 0.00 0.00 0.00 43 1009.8
20260830234835 94 271 2.0 0.0 0.00 0.00 0.00 42 1009.8
20260830234651 94 271 2.0 2.0 0.00 0.00 0.00 43 1009.8
20260830234625 91 242 0.0 0.0 0.00 0.00 0.00 46 1009.5
20260830234620 94 242 0.0 0.0 0.00 0.00 0.00 44 1009.5
20260830234608 94 242 0.0 0.0 0.00 0.00 0.00 43 1009.5
20260830234558 94 242 0.0 0.0 0.00 0.00 0.00 44 1009.5
20260830234514 93 247 1.0 2.0 0.00 0.00 0.00 44 1010.5
20260830234420 93 242 0.0 0.0 0.00 0.00 0.00 44 1009.5
20260830234349 93 242 0.0 0.0 0.00 0.00 0.00 44 1009.5
20260830234326 91 242 0.0 0.0 0.00 0.00 0.00 46 1009.5
20260830234318 92 242 0.0 0.0 0.00 0.00 0.00 45 1009.5
20260830234248 92 242 0.0 0.0 0.00 0.00 0.00 46 1009.5
20260830234233 92 242 0.0 0.0 0.00 0.00 0.00 45 1009.5
20260830234152 92 242 0.0 0.0 0.00 0.00 0.00 45 1009.5
20260830234142 91 315 0.0 0.0 0.00 0.00 0.00 45 1009.7
20260830234136 91 242 0.0 0.0 0.00 0.00 0.00 45 1009.5
20260830234009 91 157 0.0 3.0 0.00 0.00 0.00 46 1010.5
20260830234005 91 315 0.0 0.0 0.00 0.00 0.00 45 1009.7
20260830233958 91 242 0.0 0.0 0.00 0.00 0.00 46 1009.5
20260830233820 91 242 0.0 0.0 0.00 0.00 0.00 46 1009.5
20260830233803 92 315 0.0 0.0 0.00 0.00 0.00 44 1009.7
20260830233756 91 242 0.0 0.0 0.00 0.00 0.00 45 1009.5
20260830233745 91 242 0.0 2.0 0.00 0.00 0.00 45 1009.5
20260830233504 91 232 0.0 4.0 0.00 0.00 0.00 45 1010.6
20260830233449 91 315 0.0 0.0 0.00 0.00 0.00 45 1009.7
20260830233419 91 315 0.0 0.0 0.00 0.00 0.00 44 1009.7
20260830233348 91 315 0.0 0.0 0.00 0.00 0.00 44 1009.7
20260830233335 92 315 0.0 0.0 0.00 0.00 0.00 44 1009.7
20260830233150 92 315 0.0 0.0 0.00 0.00 0.00 44 1009.7
20260830233130 95 315 0.0 1.0 0.00 0.00 0.00 41 1009.7
20260830233121 93 315 0.0 0.0 0.00 0.00 0.00 43 1009.7
20260830233045 93 315 0.0 0.0 0.00 0.00 0.00 43 1009.7
20260830233024 94 315 0.0 0.0 0.00 0.00 0.00 42 1009.7
20260830233000 94 284 2.0 2.0 0.00 0.00 0.00 42 1010.6
20260830232920 94 315 0.0 0.0 0.00 0.00 0.00 42 1009.7
20260830232905 95 284 0.0 0.0 0.00 0.00 0.00 42 1009.7
20260830232848 94 315 0.0 0.0 0.00 0.00 0.00 41 1009.7
20260830232821 95 315 0.0 0.0 0.00 0.00 0.00 41 1009.7
20260830232811 97 284 0.0 0.0 0.00 0.00 0.00 40 1009.7
20260830232801 95 315 0.0 0.0 0.00 0.00 0.00 41 1009.7
20260830232632 95 284 0.0 0.0 0.00 0.00 0.00 42 1009.7
20260830232542 95 284 0.0 0.0 0.00 0.00 0.00 42 1009.7
20260830232456 95 228 0.0 5.0 0.00 0.00 0.00 42 1010.5
20260830232408 97 284 0.0 0.0 0.00 0.00 0.00 40 1009.7
20260830232358 96 284 0.0 0.0 0.00 0.00 0.00 41 1009.7
20260830232230 97 284 0.0 0.0 0.00 0.00 0.00 40 1009.7
20260830232219 97 284 0.0 0.0 0.00 0.00 0.00 40 1009.7
20260830232149 97 284 0.0 0.0 0.00 0.00 0.00 40 1009.7
20260830232122 96 284 0.0 0.0 0.00 0.00 0.00 41 1009.7
20260830232111 96 261 2.0 0.0 0.00 0.00 0.00 41 1009.8
20260830232055 96 284 0.0 0.0 0.00 0.00 0.00 41 1009.7
20260830232026 96 284 0.0 0.0 0.00 0.00 0.00 41 1009.7
20260830232014 96 284 0.0 0.0 0.00 0.00 0.00 41 1009.7
20260830231952 96 254 0.0 5.0 0.00 0.00 0.00 41 1010.7
20260830231742 97 284 0.0 0.0 0.00 0.00 0.00 41 1009.7
20260830231732 97 284 0.0 1.0 0.00 0.00 0.00 41 1009.7
20260830231532 96 261 2.0 0.0 0.00 0.00 0.00 41 1009.8
20260830231448 95 224 0.0 4.0 0.00 0.00 0.00 41 1010.5
20260830231420 95 261 2.0 0.0 0.00 0.00 0.00 41 1009.8
20260830231349 96 261 2.0 0.0 0.00 0.00 0.00 41 1009.8
20260830231320 96 261 2.0 0.0 0.00 0.00 0.00 42 1009.8
20260830231305 97 261 2.0 0.0 0.00 0.00 0.00 40 1009.8
20260830231250 95 261 2.0 0.0 0.00 0.00 0.00 42 1009.8
20260830231220 96 261 2.0 0.0 0.00 0.00 0.00 41 1009.8
20260830231122 96 261 2.0 0.0 0.00 0.00 0.00 41 1009.8
20260830231048 96 261 2.0 0.0 0.00 0.00 0.00 40 1009.8
20260830231020 96 261 2.0 0.0 0.00 0.00 0.00 41 1009.8
20260830230948 96 261 2.0 0.0 0.00 0.00 0.00 41 1009.8
20260830230946 97 226 2.0 4.0 0.00 0.00 0.00 40 1010.9
20260830230936 97 261 2.0 0.0 0.00 0.00 0.00 40 1009.8
20260830230719 97 261 2.0 0.0 0.00 0.00 0.00 40 1009.8
20260830230702 97 261 2.0 3.0 0.00 0.00 0.00 40 1009.8
20260830230620 98 300 2.0 0.0 0.00 0.00 0.00 39 1009.9
20260830230548 98 300 2.0 0.0 0.00 0.00 0.00 39 1009.9
20260830230519 97 300 2.0 0.0 0.00 0.00 0.00 39 1009.9
20260830230442 97 247 3.0 4.0 0.00 0.00 0.00 39 1010.7
20260830230419 97 300 2.0 0.0 0.00 0.00 0.00 39 1009.9
20260830230348 97 300 2.0 0.0 0.00 0.00 0.00 40 1009.9
20260830230332 96 300 2.0 0.0 0.00 0.00 0.00 40 1009.9
20260830230249 96 300 2.0 0.0 0.00 0.00 0.00 40 1009.9
20260830230220 97 300 2.0 0.0 0.00 0.00 0.00 40 1009.9
20260830230149 97 300 2.0 0.0 0.00 0.00 0.00 40 1009.9
20260830230120 97 300 2.0 0.0 0.00 0.00 0.00 39 1009.9
20260830230021 98 300 2.0 0.0 0.00 0.00 0.00 38 1009.9
20260830225948 98 300 2.0 0.0 0.00 0.00 0.00 38 1009.9
20260830225935 98 275 1.0 2.0 0.00 0.00 0.00 39 1010.9
20260830225919 98 300 2.0 0.0 0.00 0.00 0.00 37 1009.9
20260830225908 98 304 1.0 0.0 0.00 0.00 0.00 39 1010.2
20260830225820 98 300 2.0 0.0 0.00 0.00 0.00 39 1009.9
20260830225722 98 300 2.0 0.0 0.00 0.00 0.00 39 1009.9
20260830225652 98 300 2.0 2.0 0.00 0.00 0.00 39 1009.9
20260830225619 98 304 1.0 0.0 0.00 0.00 0.00 39 1010.2
20260830225601 97 262 1.0 0.0 0.00 0.00 0.00 40 1010.3
20260830225541 98 304 1.0 0.0 0.00 0.00 0.00 39 1010.2
20260830225531 98 304 1.0 0.0 0.00 0.00 0.00 40 1010.2
20260830225431 98 303 2.0 3.0 0.00 0.00 0.00 39 1010.7
20260830225349 98 304 1.0 0.0 0.00 0.00 0.00 39 1010.2
20260830225320 98 304 1.0 0.0 0.00 0.00 0.00 40 1010.2
20260830225249 98 304 1.0 0.0 0.00 0.00 0.00 40 1010.2
20260830225224 96 304 1.0 0.0 0.00 0.00 0.00 41 1010.2
20260830225220 97 304 1.0 0.0 0.00 0.00 0.00 40 1010.2
20260830225119 97 304 1.0 0.0 0.00 0.00 0.00 40 1010.2
20260830225108 95 232 2.0 0.0 0.00 0.00 0.00 41 1010.2
20260830225104 97 304 1.0 0.0 0.00 0.00 0.00 40 1010.2
20260830225054 97 304 1.0 0.0 0.00 0.00 0.00 41 1010.2
20260830225044 96 304 1.0 0.0 0.00 0.00 0.00 41 1010.2
20260830224925 96 252 1.0 2.0 0.00 0.00 0.00 41 1010.8
20260830224920 96 304 1.0 0.0 0.00 0.00 0.00 41 1010.2
20260830224905 95 232 2.0 0.0 0.00 0.00 0.00 42 1010.2
20260830224847 96 304 1.0 0.0 0.00 0.00 0.00 41 1010.2
20260830224720 95 304 1.0 2.0 0.00 0.00 0.00 42 1010.2
20260830224708 95 232 2.0 0.0 0.00 0.00 0.00 42 1010.2
20260830224424 95 220 1.0 1.0 0.00 0.00 0.00 41 1010.9
20260830224303 96 232 2.0 0.0 0.00 0.00 0.00 40 1010.2
20260830224249 95 232 2.0 0.0 0.00 0.00 0.00 43 1010.2
20260830224220 94 232 2.0 0.0 0.00 0.00 0.00 42 1010.2
20260830224209 96 232 2.0 0.0 0.00 0.00 0.00 41 1010.2
20260830224149 97 262 1.0 0.0 0.00 0.00 0.00 41 1010.3
20260830224139 94 232 2.0 0.0 0.00 0.00 0.00 43 1010.2
20260830224123 94 232 2.0 0.0 0.00 0.00 0.00 42 1010.2
20260830224007 95 232 2.0 0.0 0.00 0.00 0.00 42 1010.2
20260830223957 95 232 2.0 0.0 0.00 0.00 0.00 40 1010.2
20260830223948 95 232 2.0 0.0 0.00 0.00 0.00 40 1010.2
20260830223938 96 232 2.0 0.0 0.00 0.00 0.00 40 1010.2
20260830223921 95 299 0.0 3.0 0.00 0.00 0.00 40 1011.0
20260830223651 96 232 2.0 3.0 0.00 0.00 0.00 41 1010.2
20260830223625 95 262 1.0 0.0 0.00 0.00 0.00 42 1010.3
20260830223619 97 262 1.0 0.0 0.00 0.00 0.00 39 1010.3
20260830223607 97 262 1.0 0.0 0.00 0.00 0.00 40 1010.3
20260830223557 97 262 1.0 0.0 0.00 0.00 0.00 41 1010.3
20260830223547 97 262 1.0 0.0 0.00 0.00 0.00 40 1010.3
20260830223417 97 315 0.0 2.0 0.00 0.00 0.00 40 1011.2
20260830223242 96 262 1.0 0.0 0.00 0.00 0.00 41 1010.3
20260830223232 96 262 1.0 0.0 0.00 0.00 0.00 41 1010.3
20260830223049 95 262 1.0 0.0 0.00 0.00 0.00 42 1010.3
20260830223029 94 262 1.0 0.0 0.00 0.00 0.00 42 1010.3
20260830222950 94 262 1.0 0.0 0.00 0.00 0.00 42 1010.3
20260830222919 94 262 1.0 0.0 0.00 0.00 0.00 42 1010.3
20260830222916 94 246 0.0 3.0 0.00 0.00 0.00 41 1011.1
20260830222825 94 290 2.0 0.0 0.00 0.00 0.00 37 1010.4
20260830222820 94 262 1.0 0.0 0.00 0.00 0.00 41 1010.3
20260830222749 94 262 1.0 0.0 0.00 0.00 0.00 41 1010.3
20260830222722 93 262 1.0 0.0 0.00 0.00 0.00 38 1010.3
20260830222650 93 262 1.0 1.0 0.00 0.00 0.00 38 1010.3
20260830222619 93 290 2.0 0.0 0.00 0.00 0.00 38 1010.4
20260830222525 94 290 2.0 0.0 0.00 0.00 0.00 38 1010.4
20260830222520 93 290 2.0 0.0 0.00 0.00 0.00 38 1010.4
20260830222508 93 290 2.0 0.0 0.00 0.00 0.00 38 1010.4
20260830222458 94 290 2.0 0.0 0.00 0.00 0.00 38 1010.4
20260830222412 94 215 5.0 5.0 0.00 0.00 0.00 37 1011.2
20260830222325 94 290 2.0 0.0 0.00 0.00 0.00 37 1010.4
20260830222220 94 290 2.0 0.0 0.00 0.00 0.00 37 1010.4
20260830222155 97 296 2.0 0.0 0.00 0.00 0.00 41 1010.5
20260830222151 94 290 2.0 0.0 0.00 0.00 0.00 38 1010.4
20260830222141 94 290 2.0 0.0 0.00 0.00 0.00 37 1010.4
20260830222131 94 290 2.0 0.0 0.00 0.00 0.00 39 1010.4
20260830221922 95 290 2.0 0.0 0.00 0.00 0.00 39 1010.4
20260830221907 96 106 0.0 3.0 0.00 0.00 0.00 38 1011.2
20260830221848 96 290 2.0 0.0 0.00 0.00 0.00 37 1010.4
20260830221819 97 290 2.0 0.0 0.00 0.00 0.00 36 1010.4
20260830221751 96 296 2.0 0.0 0.00 0.00 0.00 40 1010.5
20260830221740 98 290 2.0 0.0 0.00 0.00 0.00 39 1010.4
20260830221731 97 290 2.0 2.0 0.00 0.00 0.00 40 1010.4
20260830221525 97 296 2.0 0.0 0.00 0.00 0.00 41 1010.5
20260830221425 96 296 2.0 0.0 0.00 0.00 0.00 41 1010.5
20260830221403 96 266 1.0 2.0 0.00 0.00 0.00 40 1011.4
20260830221340 96 296 2.0 0.0 0.00 0.00 0.00 40 1010.5
20260830221330 96 296 2.0 0.0 0.00 0.00 0.00 41 1010.5
20260830221156 94 296 2.0 0.0 0.00 0.00 0.00 41 1010.5
20260830221149 96 296 2.0 0.0 0.00 0.00 0.00 39 1010.5
20260830221119 96 296 2.0 0.0 0.00 0.00 0.00 40 1010.5
20260830221048 96 296 2.0 0.0 0.00 0.00 0.00 40 1010.5
20260830221021 95 296 2.0 0.0 0.00 0.00 0.00 41 1010.5
20260830220920 95 296 2.0 0.0 0.00 0.00 0.00 40 1010.5
20260830220859 95 226 3.0 4.0 0.00 0.00 0.00 40 1011.6
20260830220850 95 296 2.0 0.0 0.00 0.00 0.00 40 1010.5
20260830220839 95 296 2.0 0.0 0.00 0.00 0.00 41 1010.5
20260830220830 95 296 2.0 0.0 0.00 0.00 0.00 41 1010.5
20260830220650 94 296 2.0 3.0 0.00 0.00 0.00 42 1010.5
20260830220621 95 248 2.0 0.0 0.00 0.00 0.00 41 1010.4
20260830220520 95 248 2.0 0.0 0.00 0.00 0.00 41 1010.4
20260830220420 95 248 2.0 0.0 0.00 0.00 0.00 41 1010.4
20260830220358 95 214 4.0 5.0 0.00 0.00 0.00 41 1011.5
20260830220319 95 248 2.0 0.0 0.00 0.00 0.00 41 1010.4
20260830220236 96 248 2.0 0.0 0.00 0.00 0.00 41 1010.4
20260830220219 96 248 2.0 0.0 0.00 0.00 0.00 39 1010.4
20260830220148 96 248 2.0 0.0 0.00 0.00 0.00 41 1010.4
20260830220119 96 248 2.0 0.0 0.00 0.00 0.00 40 1010.4
20260830220104 96 31 4.0 0.0 0.00 0.00 0.00 42 1010.6
20260830220049 95 248 2.0 0.0 0.00 0.00 0.00 39 1010.4
20260830220026 96 31 4.0 0.0 0.00 0.00 0.00 41 1010.6
20260830220022 96 248 2.0 0.0 0.00 0.00 0.00 39 1010.4
20260830215948 96 248 2.0 0.0 0.00 0.00 0.00 40 1010.4
20260830215939 94 31 4.0 0.0 0.00 0.00 0.00 42 1010.6
20260830215933 97 248 2.0 0.0 0.00 0.00 0.00 40 1010.4
20260830215925 97 248 2.0 0.0 0.00 0.00 0.00 40 1010.4
20260830215914 97 248 2.0 0.0 0.00 0.00 0.00 39 1010.4
20260830215856 97 228 4.0 4.0 0.00 0.00 0.00 40 1011.3
20260830215751 96 248 2.0 4.0 0.00 0.00 0.00 41 1010.4
20260830215740 96 31 4.0 0.0 0.00 0.00 0.00 41 1010.6
20260830215441 95 31 4.0 0.0 0.00 0.00 0.00 42 1010.6
20260830215431 95 31 4.0 0.0 0.00 0.00 0.00 42 1010.6
20260830215356 95 299 2.0 2.0 0.00 0.00 0.00 42 1011.2
20260830215220 94 31 4.0 0.0 0.00 0.00 0.00 42 1010.6
20260830215121 94 31 4.0 0.0 0.00 0.00 0.00 41 1010.6
20260830215020 94 31 4.0 0.0 0.00 0.00 0.00 38 1010.6
20260830215006 96 192 5.0 0.0 0.00 0.00 0.00 37 1010.6
20260830214949 94 31 4.0 0.0 0.00 0.00 0.00 38 1010.6
20260830214919 94 31 4.0 0.0 0.00 0.00 0.00 38 1010.6
20260830214851 95 75 2.0 4.0 0.00 0.00 0.00 38 1011.5
20260830214849 94 31 4.0 0.0 0.00 0.00 0.00 38 1010.6
20260830214819 95 31 4.0 0.0 0.00 0.00 0.00 37 1010.6
20260830214749 95 31 4.0 0.0 0.00 0.00 0.00 37 1010.6
20260830214725 96 31 4.0 0.0 0.00 0.00 0.00 37 1010.6
20260830214714 96 192 5.0 0.0 0.00 0.00 0.00 37 1010.6
20260830214650 96 31 4.0 4.0 0.00 0.00 0.00 37 1010.6
20260830214636 96 192 5.0 0.0 0.00 0.00 0.00 37 1010.6
20260830214449 95 192 5.0 0.0 0.00 0.00 0.00 37 1010.6
20260830214419 95 192 5.0 0.0 0.00 0.00 0.00 37 1010.6
20260830214348 96 192 5.0 0.0 0.00 0.00 0.00 37 1010.6
20260830214335 96 192 5.0 0.0 0.00 0.00 0.00 36 1010.6
20260830214148 96 192 5.0 0.0 0.00 0.00 0.00 36 1010.6
20260830214119 95 192 5.0 0.0 0.00 0.00 0.00 38 1010.6
20260830214049 95 192 5.0 0.0 0.00 0.00 0.00 37 1010.6
20260830214029 95 227 2.0 0.0 0.00 0.00 0.00 36 1010.7
20260830214019 95 192 5.0 0.0 0.00 0.00 0.00 38 1010.6
20260830213920 94 192 5.0 0.0 0.00 0.00 0.00 38 1010.6
20260830213847 95 225 4.0 5.0 0.00 0.00 0.00 38 1011.7
20260830213821 95 192 5.0 0.0 0.00 0.00 0.00 39 1010.6
20260830213748 95 192 5.0 0.0 0.00 0.00 0.00 38 1010.6
20260830213720 95 192 5.0 0.0 0.00 0.00 0.00 37 1010.6
20260830213710 95 192 5.0 5.0 0.00 0.00 0.00 36 1010.6
20260830213659 95 227 2.0 0.0 0.00 0.00 0.00 35 1010.7
20260830213519 95 227 2.0 0.0 0.00 0.00 0.00 36 1010.7
20260830213448 94 227 2.0 0.0 0.00 0.00 0.00 36 1010.7
20260830213419 94 227 2.0 0.0 0.00 0.00 0.00 37 1010.7
20260830213348 94 227 2.0 0.0 0.00 0.00 0.00 37 1010.7
20260830213342 94 219 3.0 5.0 0.00 0.00 0.00 36 1011.7
20260830213319 94 227 2.0 0.0 0.00 0.00 0.00 36 1010.7
20260830213220 94 227 2.0 0.0 0.00 0.00 0.00 36 1010.7
20260830213124 95 227 2.0 0.0 0.00 0.00 0.00 36 1010.7
20260830213022 95 227 2.0 0.0 0.00 0.00 0.00 36 1010.7
20260830213004 94 207 3.0 0.0 0.00 0.00 0.00 37 1010.8
20260830212919 95 227 2.0 0.0 0.00 0.00 0.00 36 1010.7
20260830212849 95 227 2.0 0.0 0.00 0.00 0.00 36 1010.7
20260830212837 95 235 1.0 5.0 0.00 0.00 0.00 37 1011.6
20260830212821 94 227 2.0 0.0 0.00 0.00 0.00 36 1010.7
20260830212727 94 207 3.0 0.0 0.00 0.00 0.00 37 1010.8
20260830212720 94 227 2.0 0.0 0.00 0.00 0.00 37 1010.7
20260830212649 94 227 2.0 5.0 0.00 0.00 0.00 37 1010.7
20260830212635 94 207 3.0 0.0 0.00 0.00 0.00 37 1010.8
20260830212504 93 207 3.0 0.0 0.00 0.00 0.00 38 1010.8
20260830212421 94 207 3.0 0.0 0.00 0.00 0.00 37 1010.8
20260830212408 92 207 3.0 0.0 0.00 0.00 0.00 39 1010.8
20260830212358 94 207 3.0 0.0 0.00 0.00 0.00 37 1010.8
20260830212333 94 204 6.0 8.0 0.00 0.00 0.00 37 1011.6
20260830212219 94 207 3.0 0.0 0.00 0.00 0.00 37 1010.8
20260830212148 94 207 3.0 0.0 0.00 0.00 0.00 37 1010.8
20260830212135 94 207 3.0 0.0 0.00 0.00 0.00 38 1010.8
20260830211948 93 207 3.0 0.0 0.00 0.00 0.00 39 1010.8
20260830211937 92 207 3.0 0.0 0.00 0.00 0.00 39 1010.8
20260830211832 92 56 2.0 7.0 0.00 0.00 0.00 39 1011.9
20260830211748 92 207 3.0 0.0 0.00 0.00 0.00 39 1010.8
20260830211726 92 327 0.0 0.0 0.00 0.00 0.00 39 1011.2
20260830211719 93 207 3.0 0.0 0.00 0.00 0.00 39 1010.8
20260830211650 93 207 3.0 5.0 0.00 0.00 0.00 38 1010.8
20260830211620 93 327 0.0 0.0 0.00 0.00 0.00 38 1011.2
20260830211559 92 327 0.0 0.0 0.00 0.00 0.00 39 1011.2
20260830211551 94 327 0.0 0.0 0.00 0.00 0.00 38 1011.2
20260830211519 94 327 0.0 0.0 0.00 0.00 0.00 38 1011.2
20260830211419 94 327 0.0 0.0 0.00 0.00 0.00 38 1011.2
20260830211355 94 327 0.0 0.0 0.00 0.00 0.00 39 1011.2
20260830211345 93 327 0.0 0.0 0.00 0.00 0.00 39 1011.2
20260830211326 93 260 0.0 2.0 0.00 0.00 0.00 39 1011.8
20260830211019 92 327 0.0 0.0 0.00 0.00 0.00 39 1011.2
20260830210919 92 327 0.0 0.0 0.00 0.00 0.00 39 1011.2
20260830210848 93 327 0.0 0.0 0.00 0.00 0.00 39 1011.2
20260830210822 92 293 0.0 3.0 0.00 0.00 0.00 39 1012.0
20260830210820 92 327 0.0 0.0 0.00 0.00 0.00 39 1011.2
20260830210736 94 178 2.0 0.0 0.00 0.00 0.00 39 1011.2
20260830210719 92 327 0.0 0.0 0.00 0.00 0.00 39 1011.2
20260830210650 92 327 0.0 2.0 0.00 0.00 0.00 40 1011.2
20260830210619 92 178 2.0 0.0 0.00 0.00 0.00 39 1011.2
20260830210532 92 178 2.0 0.0 0.00 0.00 0.00 40 1011.2
20260830210420 92 178 2.0 0.0 0.00 0.00 0.00 39 1011.2
20260830210409 93 178 2.0 0.0 0.00 0.00 0.00 39 1011.2
20260830210359 94 178 2.0 0.0 0.00 0.00 0.00 38 1011.2
20260830210321 94 211 6.0 6.0 0.00 0.00 0.00 38 1012.1
20260830210231 94 178 2.0 0.0 0.00 0.00 0.00 39 1011.2
20260830210201 93 178 2.0 0.0 0.00 0.00 0.00 40 1011.2
20260830210148 94 178 2.0 0.0 0.00 0.00 0.00 39 1011.2
20260830210121 93 178 2.0 0.0 0.00 0.00 0.00 39 1011.2
20260830210048 93 178 2.0 0.0 0.00 0.00 0.00 39 1011.2
20260830210020 93 178 2.0 0.0 0.00 0.00 0.00 40 1011.2
20260830205919 93 178 2.0 0.0 0.00 0.00 0.00 40 1011.2
20260830205849 93 178 2.0 0.0 0.00 0.00 0.00 40 1011.2
20260830205836 93 178 2.0 0.0 0.00 0.00 0.00 41 1011.2
20260830205819 93 215 0.0 2.0 0.00 0.00 0.00 40 1012.0
20260830205650 93 178 2.0 2.0 0.00 0.00 0.00 40 1011.2
20260830205636 92 222 5.0 0.0 0.00 0.00 0.00 41 1011.2
20260830205620 92 222 5.0 0.0 0.00 0.00 0.00 41 1011.2
20260830205532 92 222 5.0 0.0 0.00 0.00 0.00 41 1011.2
20260830205422 92 222 5.0 0.0 0.00 0.00 0.00 42 1011.2
20260830205350 92 222 5.0 0.0 0.00 0.00 0.00 41 1011.2
20260830205319 92 222 5.0 0.0 0.00 0.00 0.00 41 1011.2
20260830205313 92 202 2.0 6.0 0.00 0.00 0.00 41 1012.2
20260830205308 92 222 5.0 0.0 0.00 0.00 0.00 41 1011.2
20260830205259 92 222 5.0 0.0 0.00 0.00 0.00 41 1011.2
20260830205120 92 222 5.0 0.0 0.00 0.00 0.00 41 1011.2
20260830205053 93 250 2.0 0.0 0.00 0.00 0.00 41 1011.3
20260830205049 92 222 5.0 0.0 0.00 0.00 0.00 40 1011.2
20260830205019 92 222 5.0 0.0 0.00 0.00 0.00 41 1011.2
20260830204949 92 222 5.0 0.0 0.00 0.00 0.00 41 1011.2
20260830204932 93 250 2.0 0.0 0.00 0.00 0.00 41 1011.3
20260830204920 92 222 5.0 0.0 0.00 0.00 0.00 42 1011.2
20260830204910 92 222 5.0 0.0 0.00 0.00 0.00 42 1011.2
20260830204900 92 222 5.0 0.0 0.00 0.00 0.00 41 1011.2
20260830204809 92 201 6.0 6.0 0.00 0.00 0.00 41 1012.0
20260830204736 92 222 5.0 0.0 0.00 0.00 0.00 41 1011.2
20260830204725 92 222 5.0 5.0 0.00 0.00 0.00 42 1011.2
20260830204714 92 250 2.0 0.0 0.00 0.00 0.00 42 1011.3
20260830204420 93 250 2.0 0.0 0.00 0.00 0.00 42 1011.3
20260830204328 91 250 2.0 0.0 0.00 0.00 0.00 43 1011.3
20260830204320 92 250 2.0 0.0 0.00 0.00 0.00 42 1011.3
20260830204307 92 209 1.0 3.0 0.00 0.00 0.00 42 1012.2
20260830204248 92 250 2.0 0.0 0.00 0.00 0.00 41 1011.3
20260830204223 92 250 2.0 0.0 0.00 0.00 0.00 42 1011.3
20260830204148 92 250 2.0 0.0 0.00 0.00 0.00 42 1011.3
20260830204119 91 250 2.0 0.0 0.00 0.00 0.00 43 1011.3
20260830204026 91 250 2.0 0.0 0.00 0.00 0.00 43 1011.3
20260830204011 91 250 2.0 0.0 0.00 0.00 0.00 42 1011.3
20260830204001 91 250 2.0 0.0 0.00 0.00 0.00 43 1011.3
20260830203819 91 250 2.0 0.0 0.00 0.00 0.00 43 1011.3
20260830203803 91 135 5.0 6.0 0.00 0.00 0.00 42 1012.2
20260830203749 91 250 2.0 0.0 0.00 0.00 0.00 42 1011.3
20260830203722 91 250 2.0 0.0 0.00 0.00 0.00 43 1011.3
20260830203652 91 250 2.0 5.0 0.00 0.00 0.00 43 1011.3
20260830203641 91 208 0.0 0.0 0.00 0.00 0.00 43 1011.2
20260830203619 92 208 0.0 0.0 0.00 0.00 0.00 42 1011.2
20260830203548 92 208 0.0 0.0 0.00 0.00 0.00 42 1011.2
20260830203531 91 208 0.0 0.0 0.00 0.00 0.00 43 1011.2
20260830203520 91 208 0.0 0.0 0.00 0.00 0.00 43 1011.2
20260830203450 91 208 0.0 0.0 0.00 0.00 0.00 43 1011.2
20260830203425 91 208 0.0 0.0 0.00 0.00 0.00 42 1011.2
20260830203419 91 208 0.0 0.0 0.00 0.00 0.00 42 1011.2
20260830203353 92 240 2.0 0.0 0.00 0.00 0.00 42 1011.5
20260830203339 91 208 0.0 0.0 0.00 0.00 0.00 42 1011.2
20260830203324 91 208 0.0 0.0 0.00 0.00 0.00 43 1011.2
20260830203316 90 208 0.0 0.0 0.00 0.00 0.00 43 1011.2
20260830203306 91 208 0.0 0.0 0.00 0.00 0.00 43 1011.2
20260830203259 91 228 0.0 5.0 0.00 0.00 0.00 43 1012.2
20260830202905 92 240 2.0 0.0 0.00 0.00 0.00 42 1011.5
20260830202901 91 208 0.0 0.0 0.00 0.00 0.00 43 1011.2
20260830202819 91 208 0.0 0.0 0.00 0.00 0.00 43 1011.2
20260830202758 92 152 2.0 6.0 0.00 0.00 0.00 42 1012.3
20260830202750 92 208 0.0 0.0 0.00 0.00 0.00 43 1011.2
20260830202740 92 208 0.0 0.0 0.00 0.00 0.00 42 1011.2
20260830202730 92 208 0.0 2.0 0.00 0.00 0.00 42 1011.2
20260830202548 92 240 2.0 0.0 0.00 0.00 0.00 43 1011.5
20260830202538 92 240 2.0 0.0 0.00 0.00 0.00 42 1011.5
20260830202534 92 240 2.0 0.0 0.00 0.00 0.00 42 1011.5
20260830202350 92 240 2.0 0.0 0.00 0.00 0.00 42 1011.5
20260830202326 92 240 2.0 0.0 0.00 0.00 0.00 42 1011.5
20260830202320 93 240 2.0 0.0 0.00 0.00 0.00 42 1011.5
20260830202254 93 255 0.0 1.0 0.00 0.00 0.00 42 1012.3
20260830202248 93 240 2.0 0.0 0.00 0.00 0.00 43 1011.5
20260830202221 92 240 2.0 0.0 0.00 0.00 0.00 42 1011.5
20260830202133 92 240 2.0 0.0 0.00 0.00 0.00 42 1011.5
20260830202008 92 240 2.0 0.0 0.00 0.00 0.00 42 1011.5
20260830201959 92 240 2.0 0.0 0.00 0.00 0.00 44 1011.5
20260830201820 91 240 2.0 0.0 0.00 0.00 0.00 42 1011.5
20260830201802 91 240 2.0 0.0 0.00 0.00 0.00 43 1011.5
20260830201754 91 195 1.0 4.0 0.00 0.00 0.00 43 1012.3
20260830201725 91 216 2.0 0.0 0.00 0.00 0.00 42 1011.7
20260830201720 91 240 2.0 0.0 0.00 0.00 0.00 43 1011.5
20260830201649 91 240 2.0 2.0 0.00 0.00 0.00 43 1011.5
20260830201620 91 216 2.0 0.0 0.00 0.00 0.00 43 1011.7
20260830201549 91 216 2.0 0.0 0.00 0.00 0.00 43 1011.7
20260830201520 91 216 2.0 0.0 0.00 0.00 0.00 44 1011.7
20260830201432 91 216 2.0 0.0 0.00 0.00 0.00 42 1011.7
20260830201428 91 216 2.0 0.0 0.00 0.00 0.00 43 1011.7
20260830201359 91 216 2.0 0.0 0.00 0.00 0.00 43 1011.7
20260830201348 91 216 2.0 0.0 0.00 0.00 0.00 43 1011.7
20260830201249 91 340 1.0 3.0 0.00 0.00 0.00 42 1012.4
20260830201219 91 216 2.0 0.0 0.00 0.00 0.00 42 1011.7
20260830201120 92 216 2.0 0.0 0.00 0.00 0.00 42 1011.7
20260830201051 91 221 3.0 0.0 0.00 0.00 0.00 42 1011.7
20260830201040 92 216 2.0 0.0 0.00 0.00 0.00 42 1011.7
20260830201028 92 216 2.0 0.0 0.00 0.00 0.00 42 1011.7
20260830200744 91 266 0.0 4.0 0.00 0.00 0.00 42 1012.5
20260830200719 91 216 2.0 0.0 0.00 0.00 0.00 42 1011.7
20260830200650 91 216 2.0 2.0 0.00 0.00 0.00 42 1011.7
20260830200632 91 221 3.0 0.0 0.00 0.00 0.00 42 1011.7
20260830200621 91 221 3.0 0.0 0.00 0.00 0.00 42 1011.7
20260830200601 91 221 3.0 0.0 0.00 0.00 0.00 43 1011.7
20260830200552 91 221 3.0 0.0 0.00 0.00 0.00 42 1011.7
20260830200530 91 221 3.0 0.0 0.00 0.00 0.00 43 1011.7
20260830200321 91 221 3.0 0.0 0.00 0.00 0.00 43 1011.7
20260830200310 91 221 3.0 3.0 0.00 0.00 0.00 43 1011.7
20260830200300 91 221 3.0 0.0 0.00 0.00 0.00 42 1011.7
20260830200243 91 214 2.0 2.0 0.00 0.00 0.00 42 1012.5
20260830200131 91 286 2.0 0.0 0.00 0.00 0.00 43 1011.9
20260830200126 91 221 3.0 0.0 0.00 0.00 0.00 43 1011.7
20260830200109 91 221 3.0 0.0 0.00 0.00 0.00 43 1011.7
20260830195926 90 286 2.0 0.0 0.00 0.00 0.00 44 1011.9
20260830195918 91 221 3.0 0.0 0.00 0.00 0.00 43 1011.7
20260830195904 91 286 2.0 0.0 0.00 0.00 0.00 43 1011.9
20260830195857 91 221 3.0 0.0 0.00 0.00 0.00 43 1011.7
20260830195841 91 221 3.0 0.0 0.00 0.00 0.00 42 1011.7
20260830195739 91 221 3.0 3.0 0.00 0.00 0.00 43 1012.5
20260830195554 91 286 2.0 0.0 0.00 0.00 0.00 43 1011.9
20260830195550 91 286 2.0 0.0 0.00 0.00 0.00 44 1011.9
20260830195540 91 286 2.0 0.0 0.00 0.00 0.00 43 1011.9
20260830195530 91 286 2.0 0.0 0.00 0.00 0.00 44 1011.9
20260830195359 90 286 2.0 0.0 0.00 0.00 0.00 44 1011.9
20260830195237 91 195 4.0 4.0 0.00 0.00 0.00 43 1012.4
20260830195219 91 286 2.0 0.0 0.00 0.00 0.00 43 1011.9
20260830195151 91 286 2.0 0.0 0.00 0.00 0.00 42 1011.9
20260830195143 91 286 2.0 0.0 0.00 0.00 0.00 42 1011.9
20260830194920 91 286 2.0 0.0 0.00 0.00 0.00 43 1011.9
20260830194848 90 286 2.0 0.0 0.00 0.00 0.00 43 1011.9
20260830194820 90 286 2.0 0.0 0.00 0.00 0.00 44 1011.9
20260830194736 90 286 2.0 4.0 0.00 0.00 0.00 43 1012.6
20260830194720 90 286 2.0 0.0 0.00 0.00 0.00 43 1011.9
20260830194650 90 286 2.0 2.0 0.00 0.00 0.00 43 1011.9
20260830194620 90 214 3.0 0.0 0.00 0.00 0.00 43 1011.9
20260830194532 90 214 3.0 0.0 0.00 0.00 0.00 43 1011.9
20260830194456 89 214 3.0 0.0 0.00 0.00 0.00 44 1011.9
20260830194449 90 214 3.0 0.0 0.00 0.00 0.00 43 1011.9
20260830194432 89 214 3.0 0.0 0.00 0.00 0.00 43 1011.9
20260830194320 89 214 3.0 0.0 0.00 0.00 0.00 43 1011.9
20260830194257 89 214 3.0 0.0 0.00 0.00 0.00 45 1011.9
20260830194232 89 157 0.0 6.0 0.00 0.00 0.00 43 1012.9
20260830194221 89 214 3.0 0.0 0.00 0.00 0.00 43 1011.9
20260830194137 89 214 3.0 0.0 0.00 0.00 0.00 43 1011.9
20260830193943 89 214 3.0 0.0 0.00 0.00 0.00 44 1011.9
20260830193932 89 214 3.0 0.0 0.00 0.00 0.00 44 1011.9
20260830193752 88 115 0.0 0.0 0.00 0.00 0.00 45 1012.0
20260830193748 89 214 3.0 0.0 0.00 0.00 0.00 45 1011.9
20260830193731 89 206 2.0 4.0 0.00 0.00 0.00 44 1012.7
20260830193718 89 214 3.0 0.0 0.00 0.00 0.00 44 1011.9
20260830193650 89 214 3.0 3.0 0.00 0.00 0.00 44 1011.9
20260830193619 89 115 0.0 0.0 0.00 0.00 0.00 44 1012.0
20260830193605 89 115 0.0 0.0 0.00 0.00 0.00 44 1012.0
20260830193553 89 115 0.0 0.0 0.00 0.00 0.00 45 1012.0
20260830193533 89 115 0.0 0.0 0.00 0.00 0.00 44 1012.0
20260830193510 89 115 0.0 0.0 0.00 0.00 0.00 46 1012.0
20260830193504 89 115 0.0 0.0 0.00 0.00 0.00 45 1012.0
20260830193454 89 115 0.0 0.0 0.00 0.00 0.00 44 1012.0
20260830193443 89 115 0.0 0.0 0.00 0.00 0.00 44 1012.0
20260830193433 89 115 0.0 0.0 0.00 0.00 0.00 45 1012.0
20260830193409 89 115 0.0 0.0 0.00 0.00 0.00 45 1012.0
20260830193250 88 115 0.0 0.0 0.00 0.00 0.00 45 1012.0
20260830193240 89 115 0.0 0.0 0.00 0.00 0.00 45 1012.0
20260830193226 88 227 0.0 6.0 0.00 0.00 0.00 45 1012.7
20260830192950 89 115 0.0 0.0 0.00 0.00 0.00 45 1012.0
20260830192940 89 115 0.0 0.0 0.00 0.00 0.00 44 1012.0
20260830192930 89 115 0.0 0.0 0.00 0.00 0.00 44 1012.0
20260830192749 89 115 0.0 0.0 0.00 0.00 0.00 47 1012.0
20260830192729 87 328 1.0 0.0 0.00 0.00 0.00 51 1012.1
20260830192722 89 260 2.0 4.0 0.00 0.00 0.00 46 1012.9
20260830192650 88 115 0.0 1.0 0.00 0.00 0.00 47 1012.0
20260830192619 88 328 1.0 0.0 0.00 0.00 0.00 49 1012.1
20260830192550 88 328 1.0 0.0 0.00 0.00 0.00 49 1012.1
20260830192529 86 240 0.0 0.0 0.00 0.00 0.00 51 1012.2
20260830192519 88 328 1.0 0.0 0.00 0.00 0.00 49 1012.1
20260830192449 88 328 1.0 0.0 0.00 0.00 0.00 49 1012.1
20260830192424 85 328 1.0 0.0 0.00 0.00 0.00 52 1012.1
20260830192419 87 328 1.0 0.0 0.00 0.00 0.00 50 1012.1
20260830192409 87 328 1.0 0.0 0.00 0.00 0.00 50 1012.1
20260830192359 87 328 1.0 0.0 0.00 0.00 0.00 51 1012.1
20260830192233 86 328 1.0 0.0 0.00 0.00 0.00 52 1012.1
20260830192220 86 328 1.0 0.0 0.00 0.00 0.00 51 1012.1
20260830192216 86 13 1.0 2.0 0.00 0.00 0.00 52 1013.0
20260830192209 86 328 1.0 0.0 0.00 0.00 0.00 51 1012.1
20260830192200 86 328 1.0 0.0 0.00 0.00 0.00 52 1012.1
20260830192149 86 328 1.0 0.0 0.00 0.00 0.00 51 1012.1
20260830192035 85 328 1.0 0.0 0.00 0.00 0.00 52 1012.1
20260830192007 85 328 1.0 0.0 0.00 0.00 0.00 52 1012.1
20260830191831 85 328 1.0 0.0 0.00 0.00 0.00 52 1012.1
20260830191713 86 66 1.0 3.0 0.00 0.00 0.00 52 1013.0
20260830191650 86 328 1.0 2.0 0.00 0.00 0.00 52 1012.1
20260830191619 86 240 0.0 0.0 0.00 0.00 0.00 51 1012.2
20260830191519 86 240 0.0 0.0 0.00 0.00 0.00 51 1012.2
20260830191459 86 240 0.0 0.0 0.00 0.00 0.00 52 1012.2
20260830191449 86 240 0.0 0.0 0.00 0.00 0.00 51 1012.2
20260830191305 87 240 0.0 0.0 0.00 0.00 0.00 51 1012.2
20260830191224 86 240 0.0 0.0 0.00 0.00 0.00 51 1012.2
20260830191220 87 240 0.0 0.0 0.00 0.00 0.00 51 1012.2
20260830191212 86 174 0.0 4.0 0.00 0.00 0.00 51 1013.1
20260830191120 86 240 0.0 0.0 0.00 0.00 0.00 51 1012.2
20260830191021 86 240 0.0 0.0 0.00 0.00 0.00 51 1012.2
20260830190933 86 240 0.0 0.0 0.00 0.00 0.00 51 1012.2
20260830190923 86 240 0.0 0.0 0.00 0.00 0.00 52 1012.2
20260830190913 86 240 0.0 0.0 0.00 0.00 0.00 51 1012.2
20260830190720 85 240 0.0 0.0 0.00 0.00 0.00 52 1012.2
20260830190708 86 78 2.0 4.0 0.00 0.00 0.00 52 1013.2
20260830190703 85 240 0.0 0.0 0.00 0.00 0.00 52 1012.2
20260830190619 85 309 0.0 0.0 0.00 0.00 0.00 52 1012.1
20260830190520 85 309 0.0 0.0 0.00 0.00 0.00 53 1012.1
20260830190454 85 309 0.0 0.0 0.00 0.00 0.00 53 1012.1
20260830190419 85 309 0.0 0.0 0.00 0.00 0.00 53 1012.1
20260830190401 85 309 0.0 0.0 0.00 0.00 0.00 53 1012.1
20260830190319 85 309 0.0 0.0 0.00 0.00 0.00 53 1012.1
20260830190300 85 309 0.0 1.0 0.00 0.00 0.00 53 1012.1
20260830190241 85 292 2.0 0.0 0.00 0.00 0.00 53 1012.4
20260830190236 85 292 2.0 0.0 0.00 0.00 0.00 53 1012.4
20260830190223 85 309 0.0 0.0 0.00 0.00 0.00 53 1012.1
20260830190210 85 292 2.0 0.0 0.00 0.00 0.00 53 1012.4
20260830190206 85 309 0.0 0.0 0.00 0.00 0.00 54 1012.1
20260830190203 85 67 3.0 3.0 0.00 0.00 0.00 53 1013.0
20260830190143 85 309 0.0 0.0 0.00 0.00 0.00 53 1012.1
20260830190128 85 309 0.0 0.0 0.00 0.00 0.00 53 1012.1
20260830185953 85 309 0.0 0.0 0.00 0.00 0.00 52 1012.1
20260830185940 85 309 0.0 0.0 0.00 0.00 0.00 53 1012.1
20260830185924 85 309 0.0 0.0 0.00 0.00 0.00 53 1012.1
20260830185700 85 309 0.0 2.0 0.00 0.00 0.00 53 1013.0
20260830185519 85 292 2.0 0.0 0.00 0.00 0.00 53 1012.4
20260830185455 86 292 2.0 0.0 0.00 0.00 0.00 52 1012.4
20260830185421 85 292 2.0 0.0 0.00 0.00 0.00 53 1012.4
20260830185410 85 292 2.0 0.0 0.00 0.00 0.00 53 1012.4
20260830185400 85 292 2.0 0.0 0.00 0.00 0.00 54 1012.4
20260830185220 85 292 2.0 0.0 0.00 0.00 0.00 53 1012.4
20260830185157 85 235 1.0 4.0 0.00 0.00 0.00 52 1013.2
20260830185149 85 292 2.0 0.0 0.00 0.00 0.00 52 1012.4
20260830185139 85 213 3.0 0.0 0.00 0.00 0.00 53 1012.3
20260830185135 86 292 2.0 0.0 0.00 0.00 0.00 52 1012.4
20260830184919 86 292 2.0 0.0 0.00 0.00 0.00 52 1012.4
20260830184849 85 292 2.0 0.0 0.00 0.00 0.00 52 1012.4
20260830184820 85 292 2.0 0.0 0.00 0.00 0.00 54 1012.4
20260830184755 85 292 2.0 0.0 0.00 0.00 0.00 54 1012.4
20260830184745 85 292 2.0 0.0 0.00 0.00 0.00 53 1012.4
20260830184732 85 292 2.0 2.0 0.00 0.00 0.00 53 1012.4
20260830184655 85 337 1.0 2.0 0.00 0.00 0.00 53 1013.3
20260830184536 86 213 3.0 0.0 0.00 0.00 0.00 51 1012.3
20260830184520 85 213 3.0 0.0 0.00 0.00 0.00 53 1012.3
20260830184450 85 213 3.0 0.0 0.00 0.00 0.00 53 1012.3
20260830184416 85 213 3.0 0.0 0.00 0.00 0.00 52 1012.3
20260830184355 86 213 3.0 0.0 0.00 0.00 0.00 52 1012.3
20260830184320 85 213 3.0 0.0 0.00 0.00 0.00 52 1012.3
20260830184248 85 213 3.0 0.0 0.00 0.00 0.00 52 1012.3
20260830184224 86 212 2.0 0.0 0.00 0.00 0.00 52 1012.3
20260830184220 86 213 3.0 0.0 0.00 0.00 0.00 52 1012.3
20260830184210 86 212 2.0 0.0 0.00 0.00 0.00 51 1012.3
20260830184200 86 213 3.0 0.0 0.00 0.00 0.00 52 1012.3
20260830184155 86 187 0.0 4.0 0.00 0.00 0.00 52 1013.5
20260830184040 86 213 3.0 0.0 0.00 0.00 0.00 52 1012.3
20260830184030 86 213 3.0 0.0 0.00 0.00 0.00 51 1012.3
20260830183826 85 212 2.0 0.0 0.00 0.00 0.00 53 1012.3
20260830183822 85 213 3.0 0.0 0.00 0.00 0.00 52 1012.3
20260830183811 86 212 2.0 0.0 0.00 0.00 0.00 52 1012.3
20260830183804 85 213 3.0 0.0 0.00 0.00 0.00 52 1012.3
20260830183753 85 213 3.0 4.0 0.00 0.00 0.00 51 1012.3
20260830183742 86 212 2.0 0.0 0.00 0.00 0.00 51 1012.3
20260830183650 86 212 4.0 4.0 0.00 0.00 0.00 51 1013.4
20260830183419 86 212 2.0 0.0 0.00 0.00 0.00 52 1012.3
20260830183351 86 212 2.0 0.0 0.00 0.00 0.00 52 1012.3
20260830183341 85 212 2.0 0.0 0.00 0.00 0.00 52 1012.3
20260830183326 85 212 2.0 0.0 0.00 0.00 0.00 52 1012.3
20260830183316 85 212 2.0 0.0 0.00 0.00 0.00 52 1012.3
20260830183146 85 224 0.0 6.0 0.00 0.00 0.00 53 1013.2
20260830183024 85 212 2.0 0.0 0.00 0.00 0.00 52 1012.3
20260830182948 85 212 2.0 0.0 0.00 0.00 0.00 52 1012.3
20260830182919 85 212 2.0 0.0 0.00 0.00 0.00 53 1012.3
20260830182902 85 152 0.0 0.0 0.00 0.00 0.00 53 1012.3
20260830182821 85 212 2.0 0.0 0.00 0.00 0.00 53 1012.3
20260830182720 85 212 2.0 0.0 0.00 0.00 0.00 53 1012.3
20260830182651 85 212 2.0 2.0 0.00 0.00 0.00 53 1012.3
20260830182646 85 211 3.0 3.0 0.00 0.00 0.00 53 1013.3
20260830182623 85 152 0.0 0.0 0.00 0.00 0.00 53 1012.3
20260830182617 85 152 0.0 0.0 0.00 0.00 0.00 53 1012.3
20260830182551 85 152 0.0 0.0 0.00 0.00 0.00 53 1012.3
20260830182540 85 152 0.0 0.0 0.00 0.00 0.00 52 1012.3
20260830182536 85 152 0.0 0.0 0.00 0.00 0.00 54 1012.3
20260830182319 85 152 0.0 0.0 0.00 0.00 0.00 53 1012.3
20260830182300 84 152 0.0 0.0 0.00 0.00 0.00 53 1012.3
20260830182142 85 186 4.0 7.0 0.00 0.00 0.00 53 1013.3
20260830182124 85 141 2.0 0.0 0.00 0.00 0.00 52 1012.3
20260830182117 85 152 0.0 0.0 0.00 0.00 0.00 53 1012.3
20260830182057 85 152 0.0 0.0 0.00 0.00 0.00 52 1012.3
20260830181926 85 141 2.0 0.0 0.00 0.00 0.00 52 1012.3
20260830181917 85 152 0.0 0.0 0.00 0.00 0.00 52 1012.3
20260830181848 85 152 0.0 0.0 0.00 0.00 0.00 52 1012.3
20260830181818 85 152 0.0 0.0 0.00 0.00 0.00 51 1012.3
20260830181751 85 152 0.0 0.0 0.00 0.00 0.00 51 1012.3
20260830181741 85 152 0.0 0.0 0.00 0.00 0.00 52 1012.3
20260830181731 85 152 0.0 3.0 0.00 0.00 0.00 52 1012.3
20260830181638 85 183 3.0 6.0 0.00 0.00 0.00 52 1013.4
20260830181607 85 141 2.0 0.0 0.00 0.00 0.00 51 1012.3
20260830181558 85 141 2.0 0.0 0.00 0.00 0.00 52 1012.3
20260830181423 85 141 2.0 0.0 0.00 0.00 0.00 52 1012.3
20260830181417 85 141 2.0 0.0 0.00 0.00 0.00 52 1012.3
20260830181348 85 141 2.0 0.0 0.00 0.00 0.00 52 1012.3
20260830181322 85 141 2.0 0.0 0.00 0.00 0.00 51 1012.3
20260830181247 85 141 2.0 0.0 0.00 0.00 0.00 51 1012.3
20260830181219 86 141 2.0 0.0 0.00 0.00 0.00 51 1012.3
20260830181138 86 142 2.0 3.0 0.00 0.00 0.00 52 1013.3
20260830181119 86 141 2.0 0.0 0.00 0.00 0.00 51 1012.3
20260830181059 85 141 2.0 0.0 0.00 0.00 0.00 52 1012.3
20260830180917 85 141 2.0 0.0 0.00 0.00 0.00 52 1012.3
20260830180819 85 141 2.0 0.0 0.00 0.00 0.00 53 1012.3
20260830180748 85 141 2.0 0.0 0.00 0.00 0.00 53 1012.3
20260830180731 84 241 1.0 0.0 0.00 0.00 0.00 54 1012.3
20260830180717 85 141 2.0 0.0 0.00 0.00 0.00 53 1012.3
20260830180648 85 141 2.0 3.0 0.00 0.00 0.00 52 1012.3
20260830180637 86 134 2.0 4.0 0.00 0.00 0.00 51 1013.4
20260830180619 85 114 0.0 0.0 0.00 0.00 0.00 51 1012.5
20260830180554 86 114 0.0 0.0 0.00 0.00 0.00 52 1012.5
20260830180547 85 114 0.0 0.0 0.00 0.00 0.00 52 1012.5
20260830180524 85 114 0.0 0.0 0.00 0.00 0.00 52 1012.5
20260830180517 86 114 0.0 0.0 0.00 0.00 0.00 51 1012.5
20260830180507 85 114 0.0 0.0 0.00 0.00 0.00 52 1012.5
20260830180459 85 114 0.0 1.0 0.00 0.00 0.00 53 1012.5
20260830180450 86 114 0.0 0.0 0.00 0.00 0.00 51 1012.5
20260830180440 85 241 1.0 0.0 0.00 0.00 0.00 52 1012.3
20260830180424 87 114 0.0 0.0 0.00 0.00 0.00 51 1012.5
20260830180420 87 114 0.0 0.0 0.00 0.00 0.00 51 1012.5
20260830180409 86 114 0.0 0.0 0.00 0.00 0.00 51 1012.5
20260830180253 84 241 1.0 0.0 0.00 0.00 0.00 53 1012.3
20260830180249 86 114 0.0 0.0 0.00 0.00 0.00 51 1012.5
20260830180240 86 114 0.0 0.0 0.00 0.00 0.00 52 1012.5
20260830180229 86 114 0.0 0.0 0.00 0.00 0.00 51 1012.5
20260830180219 86 114 0.0 0.0 0.00 0.00 0.00 52 1012.5
20260830180132 86 24 0.0 3.0 0.00 0.00 0.00 53 1013.4
20260830175813 85 114 0.0 0.0 0.00 0.00 0.00 51 1012.5
20260830175802 85 114 0.0 0.0 0.00 0.00 0.00 52 1012.5
20260830175640 85 241 1.0 0.0 0.00 0.00 0.00 53 1012.3
20260830175631 85 261 0.0 2.0 0.00 0.00 0.00 53 1013.4
20260830175448 85 241 1.0 0.0 0.00 0.00 0.00 52 1012.3
20260830175418 85 241 1.0 0.0 0.00 0.00 0.00 53 1012.3
20260830175403 85 241 1.0 0.0 0.00 0.00 0.00 53 1012.3
20260830175353 84 241 1.0 0.0 0.00 0.00 0.00 53 1012.3
20260830175338 84 241 1.0 0.0 0.00 0.00 0.00 54 1012.3
20260830175126 84 206 1.0 5.0 0.00 0.00 0.00 53 1013.4
20260830175022 84 241 1.0 0.0 0.00 0.00 0.00 53 1012.3
20260830174919 84 241 1.0 0.0 0.00 0.00 0.00 53 1012.3
20260830174818 84 241 1.0 0.0 0.00 0.00 0.00 54 1012.3
20260830174719 84 241 1.0 0.0 0.00 0.00 0.00 54 1012.3
20260830174657 84 246 1.0 0.0 0.00 0.00 0.00 54 1012.4
20260830174648 85 241 1.0 1.0 0.00 0.00 0.00 53 1012.3
20260830174622 85 121 0.0 5.0 0.00 0.00 0.00 53 1013.3
20260830174617 85 246 1.0 0.0 0.00 0.00 0.00 53 1012.4
20260830174547 85 246 1.0 0.0 0.00 0.00 0.00 53 1012.4
20260830174518 85 246 1.0 0.0 0.00 0.00 0.00 52 1012.4
20260830174448 85 246 1.0 0.0 0.00 0.00 0.00 52 1012.4
20260830174419 85 246 1.0 0.0 0.00 0.00 0.00 53 1012.4
20260830174337 85 246 1.0 0.0 0.00 0.00 0.00 52 1012.4
20260830174327 85 246 1.0 0.0 0.00 0.00 0.00 53 1012.4
20260830174122 83 110 0.0 0.0 0.00 0.00 0.00 56 1012.3
20260830174118 84 246 1.0 0.0 0.00 0.00 0.00 53 1012.4
20260830174048 84 246 1.0 0.0 0.00 0.00 0.00 54 1012.4
20260830174020 84 246 1.0 0.0 0.00 0.00 0.00 53 1012.4
20260830173938 82 110 0.0 0.0 0.00 0.00 0.00 56 1012.3
20260830173920 84 246 1.0 0.0 0.00 0.00 0.00 53 1012.4
20260830173834 82 110 0.0 0.0 0.00 0.00 0.00 56 1012.3
20260830173828 82 110 0.0 0.0 0.00 0.00 0.00 57 1012.3
20260830173822 84 246 1.0 0.0 0.00 0.00 0.00 53 1012.4
20260830173811 84 246 1.0 0.0 0.00 0.00 0.00 54 1012.4
20260830173801 83 246 1.0 0.0 0.00 0.00 0.00 55 1012.4
20260830173751 83 246 1.0 2.0 0.00 0.00 0.00 54 1012.4
20260830173739 83 110 0.0 0.0 0.00 0.00 0.00 54 1012.3
20260830173730 83 110 0.0 0.0 0.00 0.00 0.00 54 1012.3
20260830173612 83 129 1.0 3.0 0.00 0.00 0.00 55 1013.3
20260830173458 83 110 0.0 0.0 0.00 0.00 0.00 55 1012.3
20260830173446 82 110 0.0 0.0 0.00 0.00 0.00 56 1012.3
20260830173431 82 110 0.0 0.0 0.00 0.00 0.00 57 1012.3
20260830173412 82 110 0.0 0.0 0.00 0.00 0.00 57 1012.3
20260830173404 82 110 0.0 0.0 0.00 0.00 0.00 57 1012.3
20260830173107 82 222 2.0 5.0 0.00 0.00 0.00 56 1013.3
20260830172953 82 110 0.0 0.0 0.00 0.00 0.00 56 1012.3
20260830172942 83 110 0.0 0.0 0.00 0.00 0.00 56 1012.3
20260830172747 83 110 0.0 0.0 0.00 0.00 0.00 56 1012.3
20260830172717 83 110 0.0 0.0 0.00 0.00 0.00 56 1012.3
20260830172649 83 110 0.0 2.0 0.00 0.00 0.00 56 1012.3
20260830172619 83 128 2.0 0.0 0.00 0.00 0.00 55 1012.3
20260830172604 83 141 2.0 3.0 0.00 0.00 0.00 55 1013.3
20260830172548 83 128 2.0 0.0 0.00 0.00 0.00 56 1012.3
20260830172523 83 128 2.0 0.0 0.00 0.00 0.00 55 1012.3
20260830172502 83 128 2.0 0.0 0.00 0.00 0.00 56 1012.3
20260830172419 82 128 2.0 0.0 0.00 0.00 0.00 56 1012.3
20260830172347 82 128 2.0 0.0 0.00 0.00 0.00 56 1012.3
20260830172319 82 128 2.0 0.0 0.00 0.00 0.00 57 1012.3
20260830172251 82 128 2.0 0.0 0.00 0.00 0.00 57 1012.3
20260830172219 82 128 2.0 0.0 0.00 0.00 0.00 57 1012.3
20260830172148 81 128 2.0 0.0 0.00 0.00 0.00 57 1012.3
20260830172135 82 128 2.0 2.0 0.00 0.00 0.00 57 1012.3
20260830172117 81 128 2.0 0.0 0.00 0.00 0.00 58 1012.3
20260830172100 81 212 0.0 3.0 0.00 0.00 0.00 58 1013.3
20260830172023 81 128 2.0 0.0 0.00 0.00 0.00 57 1012.3
20260830171948 81 128 2.0 0.0 0.00 0.00 0.00 58 1012.3
20260830171924 82 128 2.0 0.0 0.00 0.00 0.00 57 1012.3
20260830171911 82 128 2.0 0.0 0.00 0.00 0.00 57 1012.3
20260830171620 82 239 1.0 0.0 0.00 0.00 0.00 57 1012.3
20260830171555 81 214 0.0 2.0 0.00 0.00 0.00 58 1013.3
20260830171548 81 239 1.0 0.0 0.00 0.00 0.00 57 1012.3
20260830171526 80 239 1.0 0.0 0.00 0.00 0.00 58 1012.3
20260830171519 81 239 1.0 0.0 0.00 0.00 0.00 58 1012.3
20260830171449 81 239 1.0 0.0 0.00 0.00 0.00 57 1012.3
20260830171420 81 239 1.0 0.0 0.00 0.00 0.00 58 1012.3
20260830171347 80 239 1.0 0.0 0.00 0.00 0.00 58 1012.3
20260830171317 80 239 1.0 0.0 0.00 0.00 0.00 58 1012.3
20260830171223 81 239 1.0 0.0 0.00 0.00 0.00 57 1012.3
20260830171218 81 239 1.0 0.0 0.00 0.00 0.00 58 1012.3
20260830171207 80 239 1.0 0.0 0.00 0.00 0.00 58 1012.3
20260830171158 80 239 1.0 0.0 0.00 0.00 0.00 59 1012.3
20260830171050 80 217 3.0 4.0 0.00 0.00 0.00 58 1013.2
20260830171018 80 239 1.0 0.0 0.00 0.00 0.00 58 1012.3
20260830170948 80 239 1.0 0.0 0.00 0.00 0.00 59 1012.3
20260830170917 81 239 1.0 0.0 0.00 0.00 0.00 58 1012.3
20260830170851 83 204 3.0 0.0 0.00 0.00 0.00 54 1012.4
20260830170837 81 239 1.0 0.0 0.00 0.00 0.00 58 1012.3
20260830170652 81 239 1.0 2.0 0.00 0.00 0.00 57 1012.3
20260830170640 83 204 3.0 0.0 0.00 0.00 0.00 54 1012.4
20260830170619 82 204 3.0 0.0 0.00 0.00 0.00 57 1012.4
20260830170549 82 250 2.0 2.0 0.00 0.00 0.00 56 1013.3
20260830170520 82 204 3.0 0.0 0.00 0.00 0.00 56 1012.4
20260830170449 83 204 3.0 0.0 0.00 0.00 0.00 56 1012.4
20260830170439 82 204 3.0 0.0 0.00 0.00 0.00 56 1012.4
20260830170435 83 204 3.0 0.0 0.00 0.00 0.00 55 1012.4
20260830170307 82 204 3.0 3.0 0.00 0.00 0.00 57 1012.4
20260830170258 83 204 3.0 0.0 0.00 0.00 0.00 55 1012.4
20260830170118 83 204 3.0 0.0 0.00 0.00 0.00 54 1012.4
20260830170044 83 89 0.0 1.0 0.00 0.00 0.00 55 1013.3
20260830170019 83 204 3.0 0.0 0.00 0.00 0.00 54 1012.4
20260830165951 83 204 3.0 0.0 0.00 0.00 0.00 55 1012.4
20260830165941 83 204 3.0 0.0 0.00 0.00 0.00 56 1012.4
20260830165931 83 204 3.0 0.0 0.00 0.00 0.00 56 1012.4
20260830165758 82 204 3.0 0.0 0.00 0.00 0.00 56 1012.4
20260830165619 82 89 0.0 0.0 0.00 0.00 0.00 57 1012.4
20260830165548 82 89 0.0 0.0 0.00 0.00 0.00 58 1012.4
20260830165539 82 261 1.0 3.0 0.00 0.00 0.00 58 1013.3
20260830165521 82 89 0.0 0.0 0.00 0.00 0.00 57 1012.4
20260830165419 82 89 0.0 0.0 0.00 0.00 0.00 58 1012.4
20260830165347 81 89 0.0 0.0 0.00 0.00 0.00 58 1012.4
20260830165319 82 89 0.0 0.0 0.00 0.00 0.00 58 1012.4
20260830165219 82 89 0.0 0.0 0.00 0.00 0.00 57 1012.4
20260830165155 84 89 0.0 0.0 0.00 0.00 0.00 54 1012.4
20260830165147 83 89 0.0 0.0 0.00 0.00 0.00 56 1012.4
20260830165119 84 89 0.0 0.0 0.00 0.00 0.00 55 1012.4
20260830165048 84 89 0.0 0.0 0.00 0.00 0.00 54 1012.4
20260830165035 84 224 0.0 2.0 0.00 0.00 0.00 55 1013.3
20260830165026 84 89 0.0 0.0 0.00 0.00 0.00 55 1012.4
20260830164949 84 89 0.0 0.0 0.00 0.00 0.00 55 1012.4
20260830164937 82 299 0.0 0.0 0.00 0.00 0.00 56 1012.4
20260830164918 84 89 0.0 0.0 0.00 0.00 0.00 55 1012.4
20260830164832 84 89 0.0 0.0 0.00 0.00 0.00 54 1012.4
20260830164649 84 89 0.0 1.0 0.00 0.00 0.00 56 1012.4
20260830164617 83 299 0.0 0.0 0.00 0.00 0.00 55 1012.4
20260830164558 83 299 0.0 0.0 0.00 0.00 0.00 56 1012.4
20260830164531 82 89 0.0 2.0 0.00 0.00 0.00 56 1013.2
20260830164419 82 299 0.0 0.0 0.00 0.00 0.00 57 1012.4
20260830164348 82 299 0.0 0.0 0.00 0.00 0.00 58 1012.4
20260830164316 82 299 0.0 0.0 0.00 0.00 0.00 58 1012.4
20260830164248 82 299 0.0 0.0 0.00 0.00 0.00 58 1012.4
20260830164217 81 299 0.0 0.0 0.00 0.00 0.00 58 1012.4
20260830164119 81 299 0.0 0.0 0.00 0.00 0.00 58 1012.4
20260830164048 81 299 0.0 0.0 0.00 0.00 0.00 59 1012.4
20260830164027 81 201 2.0 3.0 0.00 0.00 0.00 59 1013.2
20260830164017 81 299 0.0 0.0 0.00 0.00 0.00 59 1012.4
20260830163948 81 299 0.0 0.0 0.00 0.00 0.00 59 1012.4
20260830163920 80 299 0.0 0.0 0.00 0.00 0.00 60 1012.4
20260830163819 81 299 0.0 0.0 0.00 0.00 0.00 60 1012.4
20260830163747 80 299 0.0 0.0 0.00 0.00 0.00 60 1012.4
20260830163729 79 309 0.0 0.0 0.00 0.00 0.00 63 1012.5
20260830163723 80 299 0.0 0.0 0.00 0.00 0.00 61 1012.4
20260830163649 80 299 0.0 0.0 0.00 0.00 0.00 62 1012.4
20260830163620 79 309 0.0 0.0 0.00 0.00 0.00 62 1012.5
20260830163533 80 309 0.0 0.0 0.00 0.00 0.00 62 1012.5
20260830163523 79 269 0.0 2.0 0.00 0.00 0.00 62 1013.4
20260830163517 79 309 0.0 0.0 0.00 0.00 0.00 62 1012.5
20260830163418 79 309 0.0 0.0 0.00 0.00 0.00 62 1012.5
20260830163407 80 309 0.0 0.0 0.00 0.00 0.00 62 1012.5
20260830163358 80 309 0.0 0.0 0.00 0.00 0.00 61 1012.5
20260830163218 79 309 0.0 0.0 0.00 0.00 0.00 62 1012.5
20260830163157 80 309 0.0 0.0 0.00 0.00 0.00 62 1012.5
20260830163022 80 225 1.0 1.0 0.00 0.00 0.00 61 1013.4
20260830163018 80 309 0.0 0.0 0.00 0.00 0.00 61 1012.5
20260830162947 80 309 0.0 0.0 0.00 0.00 0.00 61 1012.5
20260830162917 80 309 0.0 0.0 0.00 0.00 0.00 62 1012.5
20260830162820 80 309 0.0 0.0 0.00 0.00 0.00 62 1012.5
20260830162758 79 104 0.0 0.0 0.00 0.00 0.00 63 1012.4
20260830162719 79 309 0.0 0.0 0.00 0.00 0.00 63 1012.5
20260830162653 79 104 0.0 0.0 0.00 0.00 0.00 64 1012.4
20260830162649 79 309 0.0 0.0 0.00 0.00 0.00 63 1012.5
20260830162631 79 309 0.0 0.0 0.00 0.00 0.00 64 1012.5
20260830162519 78 104 0.0 0.0 0.00 0.00 0.00 64 1012.4
20260830162441 78 104 0.0 0.0 0.00 0.00 0.00 64 1012.4
20260830162425 79 104 0.0 0.0 0.00 0.00 0.00 63 1012.4
20260830162137 79 104 0.0 0.0 0.00 0.00 0.00 64 1012.4
20260830162112 78 104 0.0 0.0 0.00 0.00 0.00 64 1012.4
20260830162106 79 104 0.0 0.0 0.00 0.00 0.00 64 1012.4
20260830162038 79 104 0.0 0.0 0.00 0.00 0.00 64 1012.4
20260830162018 79 203 0.0 1.0 0.00 0.00 0.00 64 1013.2
20260830162007 79 104 0.0 0.0 0.00 0.00 0.00 64 1012.4
20260830161936 78 104 0.0 0.0 0.00 0.00 0.00 64 1012.4
20260830161905 78 104 0.0 0.0 0.00 0.00 0.00 64 1012.4
20260830161820 78 104 0.0 0.0 0.00 0.00 0.00 64 1012.4
20260830161747 78 104 0.0 0.0 0.00 0.00 0.00 64 1012.4
20260830161621 78 104 0.0 0.0 0.00 0.00 0.00 64 1012.4
20260830161536 78 214 1.0 0.0 0.00 0.00 0.00 64 1012.4
20260830161513 78 269 0.0 2.0 0.00 0.00 0.00 64 1013.5
20260830161506 78 214 1.0 0.0 0.00 0.00 0.00 64 1012.4
20260830161409 78 214 1.0 0.0 0.00 0.00 0.00 64 1012.4
20260830161350 78 214 1.0 0.0 0.00 0.00 0.00 64 1012.4
20260830161307 78 214 1.0 0.0 0.00 0.00 0.00 64 1012.4
20260830161236 78 214 1.0 0.0 0.00 0.00 0.00 64 1012.4
20260830161207 79 214 1.0 0.0 0.00 0.00 0.00 63 1012.4
20260830161106 79 214 1.0 0.0 0.00 0.00 0.00 63 1012.4
20260830161008 79 51 0.0 0.0 0.00 0.00 0.00 64 1013.2
20260830160907 78 214 1.0 0.0 0.00 0.00 0.00 64 1012.4
20260830160837 78 214 1.0 0.0 0.00 0.00 0.00 64 1012.4
20260830160820 78 214 1.0 0.0 0.00 0.00 0.00 65 1012.4
20260830160707 78 214 1.0 0.0 0.00 0.00 0.00 65 1012.4
20260830160637 78 214 1.0 0.0 0.00 0.00 0.00 65 1012.4
20260830160608 78 214 1.0 1.0 0.00 0.00 0.00 65 1012.4
20260830160537 78 223 0.0 0.0 0.00 0.00 0.00 65 1012.5
20260830160518 76 223 0.0 0.0 0.00 0.00 0.00 67 1012.5
20260830160507 78 223 0.0 0.0 0.00 0.00 0.00 66 1012.5
20260830160459 77 135 0.0 0.0 0.00 0.00 0.00 66 1013.2
20260830160436 78 223 0.0 0.0 0.00 0.00 0.00 66 1012.5
20260830160407 77 223 0.0 0.0 0.00 0.00 0.00 66 1012.5
20260830160337 77 223 0.0 0.0 0.00 0.00 0.00 66 1012.5
20260830160307 77 223 0.0 0.0 0.00 0.00 0.00 66 1012.5
20260830160236 77 223 0.0 0.0 0.00 0.00 0.00 66 1012.5
20260830160206 77 223 0.0 0.0 0.00 0.00 0.00 67 1012.5
20260830160149 76 223 0.0 0.0 0.00 0.00 0.00 67 1012.5
20260830160006 76 223 0.0 0.0 0.00 0.00 0.00 67 1012.5
20260830155958 76 116 0.0 2.0 0.00 0.00 0.00 67 1013.3
20260830155936 76 223 0.0 0.0 0.00 0.00 0.00 68 1012.5
20260830155906 76 223 0.0 0.0 0.00 0.00 0.00 67 1012.5
20260830155836 76 223 0.0 0.0 0.00 0.00 0.00 68 1012.5
20260830155806 76 223 0.0 0.0 0.00 0.00 0.00 68 1012.5
20260830155737 76 223 0.0 0.0 0.00 0.00 0.00 68 1012.5
20260830155706 76 223 0.0 0.0 0.00 0.00 0.00 68 1012.5
20260830155636 76 223 0.0 0.0 0.00 0.00 0.00 68 1012.5
20260830155608 76 223 0.0 1.0 0.00 0.00 0.00 68 1012.5
20260830155536 76 212 0.0 0.0 0.00 0.00 0.00 68 1012.2
20260830155506 76 212 0.0 0.0 0.00 0.00 0.00 67 1012.2
20260830155455 76 199 2.0 3.0 0.00 0.00 0.00 67 1013.4
20260830155447 76 212 0.0 0.0 0.00 0.00 0.00 68 1012.2
20260830155436 76 212 0.0 0.0 0.00 0.00 0.00 67 1012.2
20260830155406 76 212 0.0 0.0 0.00 0.00 0.00 67 1012.2
20260830155337 76 212 0.0 0.0 0.00 0.00 0.00 67 1012.2
20260830155327 76 212 0.0 0.0 0.00 0.00 0.00 68 1012.4
20260830155306 76 212 0.0 0.0 0.00 0.00 0.00 67 1012.2
20260830155237 76 212 0.0 0.0 0.00 0.00 0.00 67 1012.2
20260830155206 76 212 0.0 0.0 0.00 0.00 0.00 66 1012.2
20260830155154 76 212 0.0 0.0 0.00 0.00 0.00 68 1012.2
20260830155144 76 212 0.0 0.0 0.00 0.00 0.00 68 1012.4
20260830155126 76 212 0.0 0.0 0.00 0.00 0.00 67 1012.2
20260830155108 76 212 0.0 0.0 0.00 0.00 0.00 67 1012.2
20260830154950 76 220 0.0 0.0 0.00 0.00 0.00 68 1013.1
20260830154827 76 212 0.0 0.0 0.00 0.00 0.00 68 1012.4
20260830154813 75 212 0.0 0.0 0.00 0.00 0.00 68 1012.4
20260830154808 76 212 0.0 0.0 0.00 0.00 0.00 67 1012.2
20260830154758 75 212 0.0 0.0 0.00 0.00 0.00 68 1012.4
20260830154748 76 212 0.0 0.0 0.00 0.00 0.00 68 1012.2
20260830154628 76 212 0.0 0.0 0.00 0.00 0.00 68 1012.2
20260830154613 76 212 0.0 0.0 0.00 0.00 0.00 68 1012.4
20260830154453 75 212 0.0 0.0 0.00 0.00 0.00 68 1012.4
20260830154445 76 129 0.0 1.0 0.00 0.00 0.00 68 1013.2
20260830154123 76 212 0.0 0.0 0.00 0.00 0.00 67 1012.4
20260830154112 75 212 0.0 0.0 0.00 0.00 0.00 68 1012.4
20260830154100 75 212 0.0 0.0 0.00 0.00 0.00 68 1012.4
20260830153941 75 209 0.0 1.0 0.00 0.00 0.00 68 1013.2
20260830153806 75 212 0.0 0.0 0.00 0.00 0.00 68 1012.4
20260830153756 75 212 0.0 0.0 0.00 0.00 0.00 67 1012.4
20260830153746 76 212 0.0 0.0 0.00 0.00 0.00 67 1012.4
20260830153609 75 212 0.0 0.0 0.00 0.00 0.00 68 1012.4
20260830153537 75 50 0.0 0.0 0.00 0.00 0.00 68 1012.4
20260830153506 75 50 0.0 0.0 0.00 0.00 0.00 68 1012.4
20260830153437 75 205 0.0 1.0 0.00 0.00 0.00 67 1013.4
20260830153407 75 50 0.0 0.0 0.00 0.00 0.00 67 1012.4
20260830153307 75 50 0.0 0.0 0.00 0.00 0.00 67 1012.4
20260830153208 75 50 0.0 0.0 0.00 0.00 0.00 67 1012.4
20260830153137 76 50 0.0 0.0 0.00 0.00 0.00 66 1012.4
20260830153107 76 50 0.0 0.0 0.00 0.00 0.00 67 1012.4
20260830153008 75 50 0.0 0.0 0.00 0.00 0.00 67 1012.4
20260830152945 76 60 0.0 0.0 0.00 0.00 0.00 67 1012.6
20260830152937 75 50 0.0 0.0 0.00 0.00 0.00 67 1012.4
20260830152910 76 50 0.0 0.0 0.00 0.00 0.00 66 1012.4
20260830152837 76 50 0.0 0.0 0.00 0.00 0.00 66 1012.4
20260830152807 76 50 0.0 0.0 0.00 0.00 0.00 66 1012.4
20260830152714 75 60 0.0 0.0 0.00 0.00 0.00 67 1012.6
20260830152706 76 50 0.0 0.0 0.00 0.00 0.00 66 1012.4
20260830152645 76 50 0.0 0.0 0.00 0.00 0.00 66 1012.4
20260830152635 76 50 0.0 0.0 0.00 0.00 0.00 67 1012.4
20260830152432 76 50 0.0 0.0 0.00 0.00 0.00 67 1013.2
20260830152407 76 60 0.0 0.0 0.00 0.00 0.00 67 1012.6
20260830152356 75 60 0.0 0.0 0.00 0.00 0.00 66 1012.6
20260830152347 75 60 0.0 0.0 0.00 0.00 0.00 67 1012.6
20260830152207 75 60 0.0 0.0 0.00 0.00 0.00 67 1012.6
20260830152119 75 50 0.0 0.0 0.00 0.00 0.00 66 1012.5
20260830152108 75 60 0.0 0.0 0.00 0.00 0.00 67 1012.6
20260830152053 75 50 0.0 0.0 0.00 0.00 0.00 66 1012.5
20260830152038 75 60 0.0 0.0 0.00 0.00 0.00 67 1012.6
20260830151925 75 48 0.0 0.0 0.00 0.00 0.00 66 1013.3
20260830151827 75 50 0.0 0.0 0.00 0.00 0.00 66 1012.5
20260830151822 75 60 0.0 0.0 0.00 0.00 0.00 66 1012.6
20260830151809 75 60 0.0 0.0 0.00 0.00 0.00 66 1012.6
20260830151759 75 60 0.0 0.0 0.00 0.00 0.00 66 1012.6
20260830151749 75 60 0.0 0.0 0.00 0.00 0.00 66 1012.6
20260830151507 75 50 0.0 0.0 0.00 0.00 0.00 66 1012.5
20260830151437 75 50 0.0 0.0 0.00 0.00 0.00 66 1012.5
20260830151427 75 50 0.0 0.0 0.00 0.00 0.00 66 1012.5
20260830151425 75 75 0.0 0.0 0.00 0.00 0.00 66 1013.3
20260830151407 75 50 0.0 0.0 0.00 0.00 0.00 66 1012.5
20260830151347 75 50 0.0 0.0 0.00 0.00 0.00 66 1012.5
20260830151226 75 50 0.0 0.0 0.00 0.00 0.00 66 1012.5
20260830151213 75 50 0.0 0.0 0.00 0.00 0.00 65 1012.5
20260830150915 75 22 0.0 0.0 0.00 0.00 0.00 66 1013.4
20260830150907 75 50 0.0 0.0 0.00 0.00 0.00 66 1012.5
20260830150846 75 113 0.0 0.0 0.00 0.00 0.00 65 1012.4
20260830150837 75 50 0.0 0.0 0.00 0.00 0.00 66 1012.5
20260830150807 75 50 0.0 0.0 0.00 0.00 0.00 65 1012.5
20260830150707 75 50 0.0 0.0 0.00 0.00 0.00 65 1012.5
20260830150650 75 50 0.0 0.0 0.00 0.00 0.00 65 1012.5
20260830150608 75 50 0.0 0.0 0.00 0.00 0.00 65 1012.5
20260830150552 75 113 0.0 0.0 0.00 0.00 0.00 65 1012.4
20260830150525 75 113 0.0 0.0 0.00 0.00 0.00 65 1012.4
20260830150521 75 113 0.0 0.0 0.00 0.00 0.00 65 1012.4
20260830150414 75 25 0.0 0.0 0.00 0.00 0.00 65 1013.5
20260830150308 75 113 0.0 0.0 0.00 0.00 0.00 65 1012.4
20260830150229 75 113 0.0 0.0 0.00 0.00 0.00 65 1012.4
20260830150046 75 113 0.0 0.0 0.00 0.00 0.00 65 1012.4
20260830145909 75 75 0.0 0.0 0.00 0.00 0.00 66 1013.4
20260830145906 75 113 0.0 0.0 0.00 0.00 0.00 66 1012.4
20260830145837 75 113 0.0 0.0 0.00 0.00 0.00 66 1012.4
20260830145807 74 113 0.0 0.0 0.00 0.00 0.00 66 1012.4
20260830145721 74 12 0.0 0.0 0.00 0.00 0.00 67 1012.3
20260830145706 74 113 0.0 0.0 0.00 0.00 0.00 66 1012.4
20260830145636 74 113 0.0 0.0 0.00 0.00 0.00 66 1012.4
20260830145617 73 12 0.0 0.0 0.00 0.00 0.00 67 1012.3
20260830145607 74 113 0.0 0.0 0.00 0.00 0.00 66 1012.4
20260830145519 74 12 0.0 0.0 0.00 0.00 0.00 66 1012.3
20260830145416 73 12 0.0 0.0 0.00 0.00 0.00 69 1012.3
20260830145412 74 12 0.0 0.0 0.00 0.00 0.00 67 1012.3
20260830145403 74 89 0.0 1.0 0.00 0.00 0.00 67 1013.3
20260830145359 74 12 0.0 0.0 0.00 0.00 0.00 67 1012.3
20260830145114 72 12 0.0 0.0 0.00 0.00 0.00 70 1012.3
20260830145106 73 12 0.0 0.0 0.00 0.00 0.00 67 1012.3
20260830145007 73 12 0.0 0.0 0.00 0.00 0.00 68 1012.3
20260830144927 71 40 1.0 0.0 0.00 0.00 0.00 72 1012.3
20260830144923 73 12 0.0 0.0 0.00 0.00 0.00 68 1012.3
20260830144903 73 44 0.0 2.0 0.00 0.00 0.00 68 1013.4
20260830144756 71 40 1.0 0.0 0.00 0.00 0.00 72 1012.3
20260830144747 72 12 0.0 0.0 0.00 0.00 0.00 69 1012.3
20260830144607 72 12 0.0 2.0 0.00 0.00 0.00 70 1012.3
20260830144536 72 40 1.0 0.0 0.00 0.00 0.00 70 1012.3
20260830144506 71 40 1.0 0.0 0.00 0.00 0.00 71 1012.3
20260830144440 71 40 1.0 0.0 0.00 0.00 0.00 71 1012.3
20260830144431 71 40 1.0 0.0 0.00 0.00 0.00 71 1012.3
20260830144400 71 56 1.0 2.0 0.00 0.00 0.00 71 1013.2
20260830144107 71 40 1.0 0.0 0.00 0.00 0.00 72 1012.3
20260830144037 71 40 1.0 0.0 0.00 0.00 0.00 73 1012.3
20260830144006 70 40 1.0 0.0 0.00 0.00 0.00 73 1012.3
20260830143907 70 40 1.0 0.0 0.00 0.00 0.00 73 1012.3
20260830143855 70 56 1.0 2.0 0.00 0.00 0.00 73 1013.1
20260830143826 70 66 0.0 0.0 0.00 0.00 0.00 73 1012.2
20260830143819 70 40 1.0 0.0 0.00 0.00 0.00 73 1012.3
20260830143750 70 40 1.0 0.0 0.00 0.00 0.00 73 1012.3
20260830143706 70 40 1.0 0.0 0.00 0.00 0.00 73 1012.3
20260830143654 70 66 0.0 0.0 0.00 0.00 0.00 73 1012.2
20260830143636 70 40 1.0 0.0 0.00 0.00 0.00 73 1012.3
20260830143609 70 40 1.0 1.0 0.00 0.00 0.00 73 1012.3
20260830143506 70 66 0.0 0.0 0.00 0.00 0.00 73 1012.2
20260830143437 70 66 0.0 0.0 0.00 0.00 0.00 73 1012.2
20260830143355 70 36 0.0 2.0 0.00 0.00 0.00 73 1013.4
20260830143136 70 66 0.0 0.0 0.00 0.00 0.00 73 1012.2
20260830143106 70 66 0.0 0.0 0.00 0.00 0.00 73 1012.2
20260830143007 70 66 0.0 0.0 0.00 0.00 0.00 74 1012.2
20260830142912 70 66 0.0 0.0 0.00 0.00 0.00 74 1012.2
20260830142902 70 39 0.0 0.0 0.00 0.00 0.00 73 1012.4
20260830142855 70 147 0.0 2.0 0.00 0.00 0.00 74 1013.1
20260830142820 70 66 0.0 0.0 0.00 0.00 0.00 74 1012.2
20260830142736 70 66 0.0 0.0 0.00 0.00 0.00 74 1012.2
20260830142706 70 66 0.0 0.0 0.00 0.00 0.00 74 1012.2
20260830142636 70 66 0.0 0.0 0.00 0.00 0.00 74 1012.2
20260830142607 70 66 0.0 1.0 0.00 0.00 0.00 74 1012.2
20260830142522 70 39 0.0 0.0 0.00 0.00 0.00 74 1012.4
20260830142350 69 335 0.0 3.0 0.00 0.00 0.00 73 1013.2
20260830142344 69 39 0.0 0.0 0.00 0.00 0.00 74 1012.4
20260830142337 69 39 0.0 0.0 0.00 0.00 0.00 73 1012.4
20260830142307 69 39 0.0 0.0 0.00 0.00 0.00 73 1012.4
20260830142236 69 39 0.0 0.0 0.00 0.00 0.00 73 1012.4
20260830142206 69 39 0.0 0.0 0.00 0.00 0.00 73 1012.4
20260830142107 69 39 0.0 0.0 0.00 0.00 0.00 73 1012.4
20260830142030 69 337 0.0 0.0 0.00 0.00 0.00 74 1012.2
20260830142026 69 39 0.0 0.0 0.00 0.00 0.00 73 1012.4
20260830142017 69 39 0.0 0.0 0.00 0.00 0.00 73 1012.4
20260830141845 69 28 1.0 2.0 0.00 0.00 0.00 74 1013.1
20260830141839 69 39 0.0 0.0 0.00 0.00 0.00 74 1012.4
20260830141829 69 337 0.0 0.0 0.00 0.00 0.00 74 1012.2
20260830141806 69 39 0.0 0.0 0.00 0.00 0.00 74 1012.4
20260830141712 69 337 0.0 0.0 0.00 0.00 0.00 74 1012.2
20260830141708 69 39 0.0 0.0 0.00 0.00 0.00 74 1012.4
20260830141658 69 39 0.0 0.0 0.00 0.00 0.00 74 1012.4
20260830141648 69 39 0.0 2.0 0.00 0.00 0.00 74 1012.4
20260830141511 69 337 0.0 0.0 0.00 0.00 0.00 74 1012.2
20260830141459 69 337 0.0 0.0 0.00 0.00 0.00 74 1012.2
20260830141340 69 319 0.0 2.0 0.00 0.00 0.00 75 1013.0
20260830141309 69 337 0.0 0.0 0.00 0.00 0.00 75 1012.2
20260830141235 69 337 0.0 0.0 0.00 0.00 0.00 75 1012.2
20260830141019 69 337 0.0 0.0 0.00 0.00 0.00 74 1012.2
20260830140936 69 337 0.0 0.0 0.00 0.00 0.00 74 1012.2
20260830140906 69 337 0.0 0.0 0.00 0.00 0.00 74 1012.2
20260830140835 69 15 1.0 2.0 0.00 0.00 0.00 74 1013.1
20260830140807 69 337 0.0 0.0 0.00 0.00 0.00 74 1012.2
20260830140737 69 337 0.0 0.0 0.00 0.00 0.00 74 1012.2
20260830140707 69 337 0.0 0.0 0.00 0.00 0.00 74 1012.2
20260830140638 69 337 0.0 0.0 0.00 0.00 0.00 74 1012.2
20260830140608 69 337 0.0 1.0 0.00 0.00 0.00 74 1012.2
20260830140552 69 72 0.0 0.0 0.00 0.00 0.00 75 1011.9
20260830140519 69 72 0.0 0.0 0.00 0.00 0.00 74 1011.9
20260830140407 69 72 0.0 0.0 0.00 0.00 0.00 75 1011.9
20260830140330 69 27 1.0 2.0 0.00 0.00 0.00 75 1013.1
20260830140307 69 72 0.0 0.0 0.00 0.00 0.00 75 1011.9
20260830140245 68 72 0.0 0.0 0.00 0.00 0.00 76 1011.9
20260830140236 69 72 0.0 0.0 0.00 0.00 0.00 75 1011.9
20260830140006 69 72 0.0 0.0 0.00 0.00 0.00 75 1011.9
20260830135907 69 72 0.0 0.0 0.00 0.00 0.00 76 1011.9
20260830135836 69 72 0.0 0.0 0.00 0.00 0.00 76 1011.9
20260830135824 68 6 0.0 1.0 0.00 0.00 0.00 76 1013.2
20260830135821 68 72 0.0 0.0 0.00 0.00 0.00 76 1011.9
20260830135637 68 72 0.0 0.0 0.00 0.00 0.00 76 1011.9
20260830135609 68 72 0.0 1.0 0.00 0.00 0.00 76 1011.9
20260830135507 68 89 0.0 0.0 0.00 0.00 0.00 76 1011.9
20260830135436 68 89 0.0 0.0 0.00 0.00 0.00 76 1011.9
20260830135406 68 89 0.0 0.0 0.00 0.00 0.00 76 1011.9
20260830135353 68 89 0.0 0.0 0.00 0.00 0.00 76 1011.9
20260830135320 68 78 0.0 1.0 0.00 0.00 0.00 76 1013.0
20260830135307 68 89 0.0 0.0 0.00 0.00 0.00 76 1011.9
20260830135237 68 89 0.0 0.0 0.00 0.00 0.00 76 1011.9
20260830135223 68 89 0.0 0.0 0.00 0.00 0.00 77 1011.9
20260830135207 68 89 0.0 0.0 0.00 0.00 0.00 76 1011.9
20260830135137 68 89 0.0 0.0 0.00 0.00 0.00 76 1011.9
20260830135106 68 89 0.0 0.0 0.00 0.00 0.00 76 1011.9
20260830135026 68 89 0.0 0.0 0.00 0.00 0.00 76 1011.9
20260830134855 68 79 1.0 0.0 0.00 0.00 0.00 77 1011.6
20260830134847 68 89 0.0 0.0 0.00 0.00 0.00 77 1011.9
20260830134816 68 31 0.0 1.0 0.00 0.00 0.00 77 1013.0
20260830134707 68 89 0.0 0.0 0.00 0.00 0.00 77 1011.9
20260830134638 68 89 0.0 0.0 0.00 0.00 0.00 77 1011.9
20260830134619 68 79 1.0 0.0 0.00 0.00 0.00 77 1011.6
20260830134607 68 89 0.0 1.0 0.00 0.00 0.00 77 1011.9
20260830134525 68 79 1.0 0.0 0.00 0.00 0.00 77 1011.6
20260830134521 68 79 1.0 0.0 0.00 0.00 0.00 77 1011.6
20260830134315 68 86 1.0 2.0 0.00 0.00 0.00 77 1012.7
20260830134307 68 79 1.0 0.0 0.00 0.00 0.00 77 1011.6
20260830134254 68 79 1.0 0.0 0.00 0.00 0.00 77 1011.6
20260830134248 68 79 1.0 0.0 0.00 0.00 0.00 77 1011.6
20260830134121 68 79 1.0 0.0 0.00 0.00 0.00 77 1011.6
20260830133923 68 79 1.0 0.0 0.00 0.00 0.00 77 1011.6
20260830133812 68 44 0.0 2.0 0.00 0.00 0.00 77 1012.6
20260830133715 68 57 1.0 0.0 0.00 0.00 0.00 76 1011.5
20260830133706 68 79 1.0 0.0 0.00 0.00 0.00 77 1011.6
20260830133637 68 79 1.0 0.0 0.00 0.00 0.00 77 1011.6
20260830133608 68 79 1.0 2.0 0.00 0.00 0.00 77 1011.6
20260830133536 68 57 1.0 0.0 0.00 0.00 0.00 77 1011.5
20260830133507 68 57 1.0 0.0 0.00 0.00 0.00 76 1011.5
20260830133410 68 57 1.0 0.0 0.00 0.00 0.00 76 1011.5
20260830133359 68 57 1.0 0.0 0.00 0.00 0.00 76 1011.5
20260830133348 68 57 1.0 0.0 0.00 0.00 0.00 76 1011.5
20260830133307 68 38 0.0 3.0 0.00 0.00 0.00 76 1012.5
20260830133207 68 57 1.0 0.0 0.00 0.00 0.00 76 1011.5
20260830133137 68 57 1.0 0.0 0.00 0.00 0.00 76 1011.5
20260830133106 68 57 1.0 0.0 0.00 0.00 0.00 76 1011.5
20260830133024 68 3 2.0 0.0 0.00 0.00 0.00 75 1011.2
20260830133020 68 57 1.0 0.0 0.00 0.00 0.00 76 1011.5
20260830132806 68 57 1.0 0.0 0.00 0.00 0.00 76 1011.5
20260830132802 68 66 1.0 2.0 0.00 0.00 0.00 76 1012.4
20260830132745 68 3 2.0 0.0 0.00 0.00 0.00 75 1011.2
20260830132737 68 57 1.0 0.0 0.00 0.00 0.00 76 1011.5
20260830132706 68 57 1.0 0.0 0.00 0.00 0.00 76 1011.5
20260830132636 68 57 1.0 0.0 0.00 0.00 0.00 76 1011.5
20260830132609 68 57 1.0 2.0 0.00 0.00 0.00 76 1011.5
20260830132556 68 3 2.0 0.0 0.00 0.00 0.00 75 1011.2
20260830132550 68 3 2.0 0.0 0.00 0.00 0.00 75 1011.2
20260830132542 68 3 2.0 0.0 0.00 0.00 0.00 76 1011.2
20260830132533 68 3 2.0 0.0 0.00 0.00 0.00 76 1011.2
20260830132258 68 34 0.0 2.0 0.00 0.00 0.00 76 1012.1
20260830132213 68 3 2.0 0.0 0.00 0.00 0.00 75 1011.2
20260830132200 68 3 2.0 0.0 0.00 0.00 0.00 75 1011.2
20260830131907 68 3 2.0 0.0 0.00 0.00 0.00 75 1011.2
20260830131807 68 3 2.0 0.0 0.00 0.00 0.00 75 1011.2
20260830131757 69 9 3.0 3.0 0.00 0.00 0.00 75 1012.1
20260830131737 68 3 2.0 0.0 0.00 0.00 0.00 75 1011.2
20260830131723 69 351 2.0 0.0 0.00 0.00 0.00 75 1011.3
20260830131706 69 3 2.0 0.0 0.00 0.00 0.00 75 1011.2
20260830131636 69 3 2.0 0.0 0.00 0.00 0.00 75 1011.2
20260830131609 69 3 2.0 2.0 0.00 0.00 0.00 75 1011.2
20260830131519 69 351 2.0 0.0 0.00 0.00 0.00 75 1011.3
20260830131446 69 351 2.0 0.0 0.00 0.00 0.00 75 1011.3
20260830131439 69 351 2.0 0.0 0.00 0.00 0.00 75 1011.3
20260830131407 69 351 2.0 0.0 0.00 0.00 0.00 75 1011.3
20260830131354 69 351 2.0 0.0 0.00 0.00 0.00 75 1011.3
20260830131347 69 351 2.0 0.0 0.00 0.00 0.00 75 1011.3
20260830131252 69 0 0.0 4.0 0.00 0.00 0.00 75 1012.2
20260830131207 69 351 2.0 0.0 0.00 0.00 0.00 75 1011.3
20260830131119 69 44 3.0 0.0 0.00 0.00 0.00 74 1011.2
20260830131114 69 351 2.0 0.0 0.00 0.00 0.00 75 1011.3
20260830131102 69 351 2.0 0.0 0.00 0.00 0.00 75 1011.3
20260830130817 69 44 3.0 0.0 0.00 0.00 0.00 74 1011.2
20260830130807 69 351 2.0 0.0 0.00 0.00 0.00 75 1011.3
20260830130747 69 14 2.0 3.0 0.00 0.00 0.00 75 1012.2
20260830130707 69 351 2.0 0.0 0.00 0.00 0.00 75 1011.3
20260830130637 69 351 2.0 0.0 0.00 0.00 0.00 75 1011.3
20260830130624 69 44 3.0 0.0 0.00 0.00 0.00 74 1011.2
20260830130620 69 351 2.0 3.0 0.00 0.00 0.00 75 1011.3
20260830130605 69 44 3.0 0.0 0.00 0.00 0.00 75 1011.2
20260830130557 69 44 3.0 0.0 0.00 0.00 0.00 75 1011.2
20260830130306 69 44 3.0 0.0 0.00 0.00 0.00 74 1011.2
20260830130241 69 41 1.0 3.0 0.00 0.00 0.00 74 1012.3
20260830130207 69 44 3.0 0.0 0.00 0.00 0.00 74 1011.2
20260830130152 69 44 3.0 0.0 0.00 0.00 0.00 74 1011.2
20260830130128 69 44 3.0 0.0 0.00 0.00 0.00 74 1011.2
20260830125937 69 44 3.0 0.0 0.00 0.00 0.00 74 1011.2
20260830125907 69 44 3.0 0.0 0.00 0.00 0.00 74 1011.2
20260830125821 69 44 3.0 0.0 0.00 0.00 0.00 74 1011.2
20260830125736 69 40 2.0 3.0 0.00 0.00 0.00 74 1012.1
20260830125636 69 44 3.0 0.0 0.00 0.00 0.00 74 1011.2
20260830125607 69 44 3.0 3.0 0.00 0.00 0.00 74 1011.2
20260830125536 69 80 0.0 0.0 0.00 0.00 0.00 74 1011.3
20260830125506 69 80 0.0 0.0 0.00 0.00 0.00 74 1011.3
20260830125437 69 80 0.0 0.0 0.00 0.00 0.00 74 1011.3
20260830125419 69 80 0.0 0.0 0.00 0.00 0.00 75 1011.3
20260830125407 69 80 0.0 0.0 0.00 0.00 0.00 74 1011.3
20260830125307 69 80 0.0 0.0 0.00 0.00 0.00 74 1011.3
20260830125242 69 80 0.0 0.0 0.00 0.00 0.00 75 1011.3
20260830125231 69 11 2.0 4.0 0.00 0.00 0.00 74 1012.3
20260830125207 69 80 0.0 0.0 0.00 0.00 0.00 74 1011.3
20260830125107 69 80 0.0 0.0 0.00 0.00 0.00 75 1011.3
20260830125054 69 26 0.0 0.0 0.00 0.00 0.00 75 1011.5
20260830125047 69 80 0.0 0.0 0.00 0.00 0.00 75 1011.3
20260830124922 69 80 0.0 0.0 0.00 0.00 0.00 75 1011.3
20260830124728 69 333 0.0 2.0 0.00 0.00 0.00 75 1012.2
20260830124710 69 80 0.0 0.0 0.00 0.00 0.00 75 1011.3
20260830124658 69 80 0.0 0.0 0.00 0.00 0.00 75 1011.3
20260830124648 69 80 0.0 2.0 0.00 0.00 0.00 75 1011.3
20260830124506 69 26 0.0 0.0 0.00 0.00 0.00 75 1011.5
20260830124437 69 26 0.0 0.0 0.00 0.00 0.00 75 1011.5
20260830124407 69 26 0.0 0.0 0.00 0.00 0.00 75 1011.5
20260830124307 69 26 0.0 0.0 0.00 0.00 0.00 75 1011.5
20260830124236 69 26 0.0 0.0 0.00 0.00 0.00 75 1011.5
20260830124218 69 69 2.0 2.0 0.00 0.00 0.00 75 1012.2
20260830124206 69 26 0.0 0.0 0.00 0.00 0.00 75 1011.5
20260830124107 69 26 0.0 0.0 0.00 0.00 0.00 75 1011.5
20260830124037 69 26 0.0 0.0 0.00 0.00 0.00 75 1011.5
20260830124006 69 26 0.0 0.0 0.00 0.00 0.00 75 1011.5
20260830123907 69 26 0.0 0.0 0.00 0.00 0.00 75 1011.5
20260830123837 69 26 0.0 0.0 0.00 0.00 0.00 75 1011.5
20260830123816 69 32 2.0 0.0 0.00 0.00 0.00 75 1011.0
20260830123807 69 26 0.0 0.0 0.00 0.00 0.00 75 1011.5
20260830123715 68 16 1.0 3.0 0.00 0.00 0.00 75 1012.1
20260830123707 68 26 0.0 0.0 0.00 0.00 0.00 75 1011.5
20260830123637 68 26 0.0 0.0 0.00 0.00 0.00 75 1011.5
20260830123609 68 26 0.0 1.0 0.00 0.00 0.00 75 1011.5
20260830123541 69 32 2.0 0.0 0.00 0.00 0.00 74 1011.0
20260830123537 68 32 2.0 0.0 0.00 0.00 0.00 75 1011.0
20260830123506 68 32 2.0 0.0 0.00 0.00 0.00 75 1011.0
20260830123453 68 32 2.0 0.0 0.00 0.00 0.00 74 1011.0
20260830123446 68 32 2.0 0.0 0.00 0.00 0.00 75 1011.0
20260830123308 69 32 2.0 0.0 0.00 0.00 0.00 75 1011.0
20260830123240 68 32 2.0 0.0 0.00 0.00 0.00 75 1011.0
20260830123230 69 32 2.0 0.0 0.00 0.00 0.00 75 1011.0
20260830123221 69 32 2.0 0.0 0.00 0.00 0.00 75 1011.0
20260830123211 69 37 0.0 2.0 0.00 0.00 0.00 74 1012.1
20260830123047 68 32 2.0 0.0 0.00 0.00 0.00 74 1011.0
20260830122921 68 38 0.0 0.0 0.00 0.00 0.00 74 1011.1
20260830122907 68 32 2.0 0.0 0.00 0.00 0.00 74 1011.0
20260830122836 68 32 2.0 0.0 0.00 0.00 0.00 75 1011.0
20260830122823 68 32 2.0 0.0 0.00 0.00 0.00 74 1011.0
20260830122708 68 46 1.0 2.0 0.00 0.00 0.00 75 1011.9
20260830122638 68 32 2.0 0.0 0.00 0.00 0.00 75 1011.0
20260830122608 68 32 2.0 2.0 0.00 0.00 0.00 75 1011.0
20260830122548 68 38 0.0 0.0 0.00 0.00 0.00 74 1011.1
20260830122408 68 38 0.0 0.0 0.00 0.00 0.00 75 1011.1
20260830122336 68 38 0.0 0.0 0.00 0.00 0.00 75 1011.1
20260830122324 69 38 0.0 0.0 0.00 0.00 0.00 74 1011.1
20260830122307 68 38 0.0 0.0 0.00 0.00 0.00 74 1011.1
20260830122237 68 38 0.0 0.0 0.00 0.00 0.00 74 1011.1
20260830122207 68 38 0.0 0.0 0.00 0.00 0.00 74 1011.1
20260830122202 68 51 0.0 1.0 0.00 0.00 0.00 74 1012.0
20260830122148 69 38 0.0 0.0 0.00 0.00 0.00 74 1011.1
20260830122108 68 38 0.0 0.0 0.00 0.00 0.00 74 1011.1
20260830122041 68 38 0.0 0.0 0.00 0.00 0.00 74 1011.1
20260830122030 69 26 2.0 0.0 0.00 0.00 0.00 74 1011.3
20260830122007 68 38 0.0 0.0 0.00 0.00 0.00 74 1011.1
20260830121948 69 38 0.0 0.0 0.00 0.00 0.00 74 1011.1
20260830121828 69 26 2.0 0.0 0.00 0.00 0.00 74 1011.3
20260830121824 69 38 0.0 0.0 0.00 0.00 0.00 74 1011.1
20260830121658 69 38 0.0 0.0 0.00 0.00 0.00 74 1011.1
20260830121653 69 39 0.0 1.0 0.00 0.00 0.00 74 1012.1
20260830121648 69 38 0.0 1.0 0.00 0.00 0.00 74 1011.1
20260830121506 69 26 2.0 0.0 0.00 0.00 0.00 74 1011.3
20260830121441 69 26 2.0 0.0 0.00 0.00 0.00 74 1011.3
20260830121422 69 26 2.0 0.0 0.00 0.00 0.00 74 1011.3
20260830121237 69 26 2.0 0.0 0.00 0.00 0.00 74 1011.3
20260830121206 69 26 2.0 0.0 0.00 0.00 0.00 74 1011.3
20260830121152 69 30 0.0 1.0 0.00 0.00 0.00 74 1012.0
20260830121138 69 26 2.0 0.0 0.00 0.00 0.00 74 1011.3
20260830121107 69 26 2.0 0.0 0.00 0.00 0.00 74 1011.3
20260830121047 69 26 2.0 0.0 0.00 0.00 0.00 74 1011.3
20260830120907 69 26 2.0 0.0 0.00 0.00 0.00 74 1011.3
20260830120845 69 21 0.0 0.0 0.00 0.00 0.00 74 1011.2
20260830120807 69 26 2.0 0.0 0.00 0.00 0.00 74 1011.3
20260830120737 69 26 2.0 0.0 0.00 0.00 0.00 74 1011.3
20260830120706 69 26 2.0 0.0 0.00 0.00 0.00 74 1011.3
20260830120647 69 41 2.0 2.0 0.00 0.00 0.00 74 1012.2
20260830120636 69 26 2.0 0.0 0.00 0.00 0.00 74 1011.3
20260830120609 69 26 2.0 2.0 0.00 0.00 0.00 74 1011.3
20260830120555 69 21 0.0 0.0 0.00 0.00 0.00 74 1011.2
20260830120521 69 21 0.0 0.0 0.00 0.00 0.00 74 1011.2
20260830120320 69 21 0.0 0.0 0.00 0.00 0.00 74 1011.2
20260830120248 69 21 0.0 1.0 0.00 0.00 0.00 74 1011.2
20260830120239 69 21 0.0 0.0 0.00 0.00 0.00 74 1011.2
20260830120214 69 21 0.0 0.0 0.00 0.00 0.00 74 1011.2
20260830120143 69 103 0.0 1.0 0.00 0.00 0.00 74 1012.1
20260830120006 69 21 0.0 0.0 0.00 0.00 0.00 74 1011.2
20260830115936 69 21 0.0 0.0 0.00 0.00 0.00 74 1011.2
20260830115906 69 21 0.0 0.0 0.00 0.00 0.00 74 1011.2
20260830115823 69 69 0.0 0.0 0.00 0.00 0.00 74 1011.1
20260830115806 69 21 0.0 0.0 0.00 0.00 0.00 74 1011.2
20260830115730 69 69 0.0 0.0 0.00 0.00 0.00 74 1011.1
20260830115726 69 21 0.0 0.0 0.00 0.00 0.00 74 1011.2
20260830115717 69 21 0.0 0.0 0.00 0.00 0.00 74 1011.2
20260830115639 69 0 0.0 1.0 0.00 0.00 0.00 74 1012.0
20260830115509 69 69 0.0 0.0 0.00 0.00 0.00 74 1011.1
20260830115456 69 69 0.0 0.0 0.00 0.00 0.00 74 1011.1
20260830115327 69 69 0.0 0.0 0.00 0.00 0.00 74 1011.1
20260830115323 69 69 0.0 0.0 0.00 0.00 0.00 74 1011.1
20260830115137 69 69 0.0 0.0 0.00 0.00 0.00 74 1011.1
20260830115135 69 55 0.0 2.0 0.00 0.00 0.00 74 1012.0
20260830115106 69 69 0.0 0.0 0.00 0.00 0.00 74 1011.1
20260830115021 69 69 0.0 0.0 0.00 0.00 0.00 74 1011.1
20260830114847 69 69 0.0 0.0 0.00 0.00 0.00 74 1011.1
20260830114706 69 69 0.0 0.0 0.00 0.00 0.00 74 1011.1
20260830114636 69 69 0.0 0.0 0.00 0.00 0.00 74 1011.1
20260830114632 69 69 0.0 1.0 0.00 0.00 0.00 75 1012.0
20260830114608 69 69 0.0 0.0 0.00 0.00 0.00 74 1011.1
20260830114538 69 329 0.0 0.0 0.00 0.00 0.00 75 1011.1
20260830114507 69 329 0.0 0.0 0.00 0.00 0.00 75 1011.1
20260830114451 69 329 0.0 0.0 0.00 0.00 0.00 74 1011.1
20260830114437 69 329 0.0 0.0 0.00 0.00 0.00 74 1011.1
20260830114408 69 329 0.0 0.0 0.00 0.00 0.00 75 1011.1
20260830114306 69 329 0.0 0.0 0.00 0.00 0.00 75 1011.1
20260830114207 69 329 0.0 0.0 0.00 0.00 0.00 75 1011.1
20260830114137 69 329 0.0 0.0 0.00 0.00 0.00 75 1011.1
20260830114131 69 40 0.0 0.0 0.00 0.00 0.00 74 1012.2
20260830114121 69 329 0.0 0.0 0.00 0.00 0.00 74 1011.1
20260830113908 69 329 0.0 0.0 0.00 0.00 0.00 74 1011.1
20260830113837 69 329 0.0 0.0 0.00 0.00 0.00 74 1011.1
20260830113807 69 329 0.0 0.0 0.00 0.00 0.00 74 1011.1
20260830113707 69 329 0.0 0.0 0.00 0.00 0.00 74 1011.1
20260830113639 69 329 0.0 0.0 0.00 0.00 0.00 74 1011.1
20260830113626 69 53 0.0 2.0 0.00 0.00 0.00 74 1012.0
20260830113608 69 329 0.0 1.0 0.00 0.00 0.00 74 1011.1
20260830113506 69 53 0.0 0.0 0.00 0.00 0.00 74 1011.0
20260830113424 69 53 0.0 0.0 0.00 0.00 0.00 74 1011.0
20260830113406 69 53 0.0 0.0 0.00 0.00 0.00 74 1011.0
20260830113308 69 53 0.0 0.0 0.00 0.00 0.00 74 1011.0
20260830113220 69 53 0.0 0.0 0.00 0.00 0.00 74 1011.0
20260830113121 69 13 0.0 2.0 0.00 0.00 0.00 74 1011.9
20260830113114 69 53 0.0 0.0 0.00 0.00 0.00 74 1011.0
20260830113100 69 53 0.0 0.0 0.00 0.00 0.00 74 1011.0
20260830112907 69 53 0.0 0.0 0.00 0.00 0.00 74 1011.0
20260830112836 69 53 0.0 0.0 0.00 0.00 0.00 74 1011.0
20260830112806 69 53 0.0 0.0 0.00 0.00 0.00 74 1011.0
20260830112707 69 53 0.0 0.0 0.00 0.00 0.00 74 1011.0
20260830112636 69 53 0.0 0.0 0.00 0.00 0.00 74 1011.0
20260830112618 69 355 2.0 2.0 0.00 0.00 0.00 74 1012.0
20260830112608 69 53 0.0 0.0 0.00 0.00 0.00 73 1011.0
20260830112507 69 67 0.0 0.0 0.00 0.00 0.00 73 1010.9
20260830112438 69 67 0.0 0.0 0.00 0.00 0.00 74 1010.9
20260830112413 69 67 0.0 0.0 0.00 0.00 0.00 74 1010.9
20260830112407 69 67 0.0 0.0 0.00 0.00 0.00 74 1010.9
20260830112336 69 67 0.0 0.0 0.00 0.00 0.00 74 1010.9
20260830112306 69 67 0.0 0.0 0.00 0.00 0.00 74 1010.9
20260830112247 69 67 0.0 0.0 0.00 0.00 0.00 74 1010.9
20260830112114 69 48 1.0 1.0 0.00 0.00 0.00 74 1011.7
20260830112108 69 67 0.0 0.0 0.00 0.00 0.00 74 1010.9
20260830112047 69 67 0.0 0.0 0.00 0.00 0.00 74 1010.9
20260830111907 69 67 0.0 0.0 0.00 0.00 0.00 74 1010.9
20260830111807 69 67 0.0 0.0 0.00 0.00 0.00 74 1010.9
20260830111712 69 67 0.0 0.0 0.00 0.00 0.00 74 1010.9
20260830111636 69 67 0.0 0.0 0.00 0.00 0.00 74 1010.9
20260830111609 69 52 0.0 1.0 0.00 0.00 0.00 74 1011.9
20260830111536 69 77 0.0 0.0 0.00 0.00 0.00 74 1010.9
20260830111506 69 77 0.0 0.0 0.00 0.00 0.00 74 1010.9
20260830111441 69 77 0.0 0.0 0.00 0.00 0.00 73 1010.9
20260830111436 69 77 0.0 0.0 0.00 0.00 0.00 74 1010.9
20260830111407 69 77 0.0 0.0 0.00 0.00 0.00 73 1010.9
20260830111337 69 77 0.0 0.0 0.00 0.00 0.00 74 1010.9
20260830111325 69 77 0.0 0.0 0.00 0.00 0.00 73 1010.9
20260830111307 69 77 0.0 0.0 0.00 0.00 0.00 73 1010.9
20260830111237 69 77 0.0 0.0 0.00 0.00 0.00 73 1010.9
20260830111206 69 77 0.0 0.0 0.00 0.00 0.00 73 1010.9
20260830111147 69 77 0.0 0.0 0.00 0.00 0.00 74 1010.9
20260830111124 69 77 0.0 0.0 0.00 0.00 0.00 73 1010.9
20260830111105 69 52 0.0 1.0 0.00 0.00 0.00 73 1011.9
20260830110957 69 77 0.0 0.0 0.00 0.00 0.00 73 1010.9
20260830110949 69 77 0.0 0.0 0.00 0.00 0.00 73 1010.9
20260830110829 69 77 0.0 0.0 0.00 0.00 0.00 74 1010.9
20260830110825 69 77 0.0 0.0 0.00 0.00 0.00 73 1010.9
20260830110816 69 77 0.0 0.0 0.00 0.00 0.00 73 1010.9
20260830110637 69 77 0.0 0.0 0.00 0.00 0.00 74 1010.9
20260830110614 69 77 0.0 1.0 0.00 0.00 0.00 73 1010.9
20260830110604 69 70 0.0 2.0 0.00 0.00 0.00 73 1011.6
20260830110600 69 77 0.0 0.0 0.00 0.00 0.00 73 1010.9
20260830110423 69 77 0.0 0.0 0.00 0.00 0.00 73 1010.9
20260830110238 69 77 0.0 0.0 0.00 0.00 0.00 74 1010.9
20260830110213 69 77 0.0 0.0 0.00 0.00 0.00 73 1010.9
20260830110207 69 77 0.0 0.0 0.00 0.00 0.00 74 1010.9
20260830110114 69 77 0.0 0.0 0.00 0.00 0.00 74 1010.9
20260830110100 69 76 0.0 1.0 0.00 0.00 0.00 74 1011.8
20260830110019 69 77 0.0 0.0 0.00 0.00 0.00 74 1010.9
20260830105908 69 77 0.0 0.0 0.00 0.00 0.00 74 1010.9
20260830105847 69 77 0.0 0.0 0.00 0.00 0.00 73 1010.9
20260830105709 69 77 0.0 0.0 0.00 0.00 0.00 73 1010.9
20260830105637 69 77 0.0 0.0 0.00 0.00 0.00 73 1010.9
20260830105608 69 77 0.0 0.0 0.00 0.00 0.00 73 1010.9
20260830105555 69 48 0.0 0.0 0.00 0.00 0.00 73 1011.9
20260830105506 69 76 0.0 0.0 0.00 0.00 0.00 73 1010.9
20260830105406 69 76 0.0 0.0 0.00 0.00 0.00 73 1010.9
20260830105337 69 76 0.0 0.0 0.00 0.00 0.00 73 1010.9
20260830105306 69 76 0.0 0.0 0.00 0.00 0.00 73 1010.9
20260830105245 69 76 0.0 0.0 0.00 0.00 0.00 73 1010.9
20260830105237 69 76 0.0 0.0 0.00 0.00 0.00 73 1010.9
20260830105207 69 76 0.0 0.0 0.00 0.00 0.00 73 1010.9
20260830105136 69 76 0.0 0.0 0.00 0.00 0.00 73 1010.9
20260830105106 69 76 0.0 0.0 0.00 0.00 0.00 73 1010.9
20260830105051 69 53 0.0 2.0 0.00 0.00 0.00 73 1012.1
20260830105007 69 76 0.0 0.0 0.00 0.00 0.00 73 1010.9
20260830104942 69 32 0.0 0.0 0.00 0.00 0.00 72 1011.0
20260830104922 69 76 0.0 0.0 0.00 0.00 0.00 73 1010.9
20260830104736 69 76 0.0 0.0 0.00 0.00 0.00 73 1010.9
20260830104706 69 76 0.0 0.0 0.00 0.00 0.00 73 1010.9
20260830104638 69 76 0.0 0.0 0.00 0.00 0.00 72 1010.9
20260830104628 69 76 0.0 0.0 0.00 0.00 0.00 72 1010.9
20260830104547 69 89 0.0 1.0 0.00 0.00 0.00 72 1011.9
20260830104407 69 32 0.0 0.0 0.00 0.00 0.00 72 1011.0
20260830104337 69 32 0.0 0.0 0.00 0.00 0.00 72 1011.0
20260830104317 70 32 0.0 0.0 0.00 0.00 0.00 72 1011.0
20260830104309 70 32 0.0 0.0 0.00 0.00 0.00 72 1011.0
20260830104237 70 32 0.0 0.0 0.00 0.00 0.00 72 1011.0
20260830104136 70 32 0.0 0.0 0.00 0.00 0.00 72 1011.0
20260830104050 70 32 0.0 0.0 0.00 0.00 0.00 73 1011.0
20260830104044 70 86 1.0 1.0 0.00 0.00 0.00 72 1011.9
20260830104037 70 32 0.0 0.0 0.00 0.00 0.00 72 1011.0
20260830103953 70 57 0.0 0.0 0.00 0.00 0.00 72 1011.1
20260830103949 70 32 0.0 0.0 0.00 0.00 0.00 72 1011.0
20260830103737 70 32 0.0 0.0 0.00 0.00 0.00 72 1011.0
20260830103718 70 32 0.0 0.0 0.00 0.00 0.00 73 1011.0
20260830103556 70 57 0.0 0.0 0.00 0.00 0.00 72 1011.1
20260830103546 70 57 0.0 0.0 0.00 0.00 0.00 73 1011.1
20260830103543 70 28 1.0 1.0 0.00 0.00 0.00 72 1011.9
20260830103420 70 57 0.0 0.0 0.00 0.00 0.00 72 1011.1
20260830103336 70 57 0.0 0.0 0.00 0.00 0.00 72 1011.1
20260830103236 70 57 0.0 0.0 0.00 0.00 0.00 72 1011.1
20260830103212 70 57 0.0 0.0 0.00 0.00 0.00 72 1011.1
20260830103206 70 57 0.0 0.0 0.00 0.00 0.00 72 1011.1
20260830103136 70 57 0.0 0.0 0.00 0.00 0.00 72 1011.1
20260830103049 70 57 0.0 0.0 0.00 0.00 0.00 72 1011.1
20260830103043 70 81 1.0 1.0 0.00 0.00 0.00 72 1011.8
20260830102855 70 50 0.0 0.0 0.00 0.00 0.00 72 1011.0
20260830102851 70 57 0.0 0.0 0.00 0.00 0.00 72 1011.1
20260830102706 70 57 0.0 0.0 0.00 0.00 0.00 72 1011.1
20260830102640 70 50 0.0 0.0 0.00 0.00 0.00 71 1011.0
20260830102636 70 57 0.0 0.0 0.00 0.00 0.00 72 1011.1
20260830102607 70 57 0.0 1.0 0.00 0.00 0.00 71 1011.1
20260830102542 70 72 1.0 1.0 0.00 0.00 0.00 71 1011.8
20260830102539 70 50 0.0 0.0 0.00 0.00 0.00 71 1011.0
20260830102513 70 50 0.0 0.0 0.00 0.00 0.00 71 1011.0
20260830102445 70 50 0.0 0.0 0.00 0.00 0.00 71 1011.0
20260830102432 70 50 0.0 0.0 0.00 0.00 0.00 72 1011.0
20260830102156 70 50 0.0 0.0 0.00 0.00 0.00 71 1011.0
20260830102152 70 50 0.0 0.0 0.00 0.00 0.00 71 1011.0
20260830102038 70 76 0.0 1.0 0.00 0.00 0.00 71 1012.0
20260830101948 70 50 0.0 0.0 0.00 0.00 0.00 71 1011.0
20260830101905 70 50 0.0 0.0 0.00 0.00 0.00 72 1011.0
20260830101835 70 50 0.0 0.0 0.00 0.00 0.00 71 1011.0
20260830101815 70 63 0.0 0.0 0.00 0.00 0.00 71 1010.9
20260830101747 70 50 0.0 0.0 0.00 0.00 0.00 71 1011.0
20260830101739 70 50 0.0 0.0 0.00 0.00 0.00 71 1011.0
20260830101729 70 50 0.0 0.0 0.00 0.00 0.00 72 1011.0
20260830101536 70 63 0.0 0.0 0.00 0.00 0.00 72 1010.9
20260830101534 70 50 0.0 0.0 0.00 0.00 0.00 71 1012.0
20260830101519 70 63 0.0 0.0 0.00 0.00 0.00 71 1010.9
20260830101451 70 63 0.0 0.0 0.00 0.00 0.00 71 1010.9
20260830101255 71 352 0.0 0.0 0.00 0.00 0.00 71 1010.9
20260830101236 70 63 0.0 0.0 0.00 0.00 0.00 71 1010.9
20260830101154 71 63 0.0 0.0 0.00 0.00 0.00 71 1010.9
20260830101150 70 63 0.0 0.0 0.00 0.00 0.00 71 1010.9
20260830101033 70 129 0.0 2.0 0.00 0.00 0.00 71 1011.9
20260830100949 70 63 0.0 0.0 0.00 0.00 0.00 71 1010.9
20260830100924 70 63 0.0 0.0 0.00 0.00 0.00 71 1010.9
20260830100752 70 63 0.0 0.0 0.00 0.00 0.00 71 1010.9
20260830100606 71 63 0.0 0.0 0.00 0.00 0.00 71 1010.9
20260830100535 71 352 0.0 0.0 0.00 0.00 0.00 71 1010.9
20260830100528 71 52 0.0 1.0 0.00 0.00 0.00 71 1011.9
20260830100524 71 57 0.0 0.0 0.00 0.00 0.00 71 1010.9
20260830100518 71 352 0.0 0.0 0.00 0.00 0.00 71 1010.9
20260830100448 71 352 0.0 0.0 0.00 0.00 0.00 71 1010.9
20260830100434 71 352 0.0 0.0 0.00 0.00 0.00 71 1010.9
20260830100307 71 352 0.0 0.0 0.00 0.00 0.00 71 1010.9
20260830100235 71 352 0.0 0.0 0.00 0.00 0.00 71 1010.9
20260830100215 71 352 0.0 0.0 0.00 0.00 0.00 71 1010.9
20260830100140 71 352 0.0 0.0 0.00 0.00 0.00 71 1010.9
20260830100127 71 352 0.0 0.0 0.00 0.00 0.00 71 1010.9
20260830100027 71 50 0.0 2.0 0.00 0.00 0.00 71 1011.8
20260830100012 71 57 0.0 0.0 0.00 0.00 0.00 71 1010.9
20260830100003 71 352 0.0 0.0 0.00 0.00 0.00 71 1010.9
20260830095637 71 352 0.0 0.0 0.00 0.00 0.00 71 1010.9
20260830095627 71 352 0.0 0.0 0.00 0.00 0.00 71 1010.9
20260830095616 71 57 0.0 0.0 0.00 0.00 0.00 71 1010.9
20260830095522 71 25 0.0 2.0 0.00 0.00 0.00 71 1011.8
20260830095456 71 57 0.0 0.0 0.00 0.00 0.00 71 1010.9
20260830095451 71 57 0.0 0.0 0.00 0.00 0.00 71 1010.9
20260830095239 71 57 0.0 0.0 0.00 0.00 0.00 71 1010.9
20260830095136 71 57 0.0 0.0 0.00 0.00 0.00 70 1010.9
20260830095105 71 57 0.0 0.0 0.00 0.00 0.00 70 1010.9
20260830095036 71 57 0.0 0.0 0.00 0.00 0.00 71 1010.9
20260830095018 71 48 0.0 1.0 0.00 0.00 0.00 71 1011.9
20260830095016 71 57 0.0 0.0 0.00 0.00 0.00 71 1010.9
20260830094836 71 57 0.0 0.0 0.00 0.00 0.00 70 1010.9
20260830094736 71 57 0.0 0.0 0.00 0.00 0.00 70 1010.9
20260830094706 71 57 0.0 0.0 0.00 0.00 0.00 70 1010.9
20260830094634 71 57 0.0 0.0 0.00 0.00 0.00 70 1010.9
20260830094607 71 57 0.0 1.0 0.00 0.00 0.00 70 1010.9
20260830094537 71 50 0.0 0.0 0.00 0.00 0.00 70 1010.8
20260830094521 71 50 0.0 0.0 0.00 0.00 0.00 70 1010.8
20260830094514 71 56 0.0 1.0 0.00 0.00 0.00 70 1012.0
20260830094435 71 50 0.0 0.0 0.00 0.00 0.00 70 1010.8
20260830094406 71 50 0.0 0.0 0.00 0.00 0.00 70 1010.8
20260830094346 71 50 0.0 0.0 0.00 0.00 0.00 70 1010.8
20260830094336 71 50 0.0 0.0 0.00 0.00 0.00 70 1010.8
20260830094306 71 50 0.0 0.0 0.00 0.00 0.00 70 1010.8
20260830094236 71 50 0.0 0.0 0.00 0.00 0.00 70 1010.8
20260830094155 71 50 0.0 0.0 0.00 0.00 0.00 69 1010.8
20260830094151 71 50 0.0 0.0 0.00 0.00 0.00 70 1010.8
20260830094015 71 50 0.0 0.0 0.00 0.00 0.00 70 1010.8
20260830094009 71 47 0.0 1.0 0.00 0.00 0.00 70 1011.8
20260830093835 71 50 0.0 0.0 0.00 0.00 0.00 70 1010.8
20260830093815 71 50 0.0 0.0 0.00 0.00 0.00 70 1010.8
20260830093635 71 50 0.0 0.0 0.00 0.00 0.00 69 1010.8
20260830093607 71 50 0.0 0.0 0.00 0.00 0.00 70 1010.8
20260830093535 71 50 0.0 0.0 0.00 0.00 0.00 70 1010.8
20260830093504 71 50 0.0 1.0 0.00 0.00 0.00 70 1011.8
20260830093435 71 50 0.0 0.0 0.00 0.00 0.00 70 1010.8
20260830093336 71 50 0.0 0.0 0.00 0.00 0.00 70 1010.8
20260830093307 71 50 0.0 0.0 0.00 0.00 0.00 69 1010.8
20260830093236 71 50 0.0 0.0 0.00 0.00 0.00 69 1010.8
20260830093216 71 50 0.0 0.0 0.00 0.00 0.00 69 1010.8
20260830093137 71 50 0.0 0.0 0.00 0.00 0.00 69 1010.8
20260830093106 71 50 0.0 0.0 0.00 0.00 0.00 69 1010.8
20260830093036 71 50 0.0 0.0 0.00 0.00 0.00 69 1010.8
20260830093006 71 50 0.0 0.0 0.00 0.00 0.00 69 1010.8
20260830093000 71 44 0.0 1.0 0.00 0.00 0.00 69 1011.8
20260830092935 71 50 0.0 0.0 0.00 0.00 0.00 69 1010.8
20260830092849 71 50 0.0 0.0 0.00 0.00 0.00 69 1010.8
20260830092714 72 57 0.0 0.0 0.00 0.00 0.00 69 1010.8
20260830092707 71 50 0.0 0.0 0.00 0.00 0.00 69 1010.8
20260830092636 71 50 0.0 0.0 0.00 0.00 0.00 69 1010.8
20260830092607 72 50 0.0 1.0 0.00 0.00 0.00 69 1010.8
20260830092546 72 57 0.0 0.0 0.00 0.00 0.00 69 1010.8
20260830092535 72 57 0.0 0.0 0.00 0.00 0.00 69 1010.8
20260830092500 72 62 0.0 0.0 0.00 0.00 0.00 69 1011.8
20260830092435 72 57 0.0 0.0 0.00 0.00 0.00 69 1010.8
20260830092355 72 57 0.0 0.0 0.00 0.00 0.00 69 1010.8
20260830092351 72 57 0.0 0.0 0.00 0.00 0.00 69 1010.8
20260830092223 72 22 0.0 0.0 0.00 0.00 0.00 68 1010.7
20260830092215 72 57 0.0 0.0 0.00 0.00 0.00 69 1010.8
20260830092038 72 57 0.0 0.0 0.00 0.00 0.00 69 1010.8
20260830092016 72 22 0.0 0.0 0.00 0.00 0.00 68 1010.7
20260830091957 72 53 0.0 1.0 0.00 0.00 0.00 69 1011.8
20260830091951 72 57 0.0 0.0 0.00 0.00 0.00 69 1010.8
20260830091827 72 57 0.0 0.0 0.00 0.00 0.00 69 1010.8
20260830091817 72 57 0.0 0.0 0.00 0.00 0.00 68 1010.8
20260830091656 72 57 0.0 0.0 0.00 0.00 0.00 68 1010.8
20260830091647 72 57 0.0 0.0 0.00 0.00 0.00 68 1010.8
20260830091506 72 22 0.0 0.0 0.00 0.00 0.00 68 1010.7
20260830091452 72 50 0.0 1.0 0.00 0.00 0.00 68 1011.7
20260830091436 72 22 0.0 0.0 0.00 0.00 0.00 68 1010.7
20260830091335 72 22 0.0 0.0 0.00 0.00 0.00 68 1010.7
20260830091249 72 22 0.0 0.0 0.00 0.00 0.00 68 1010.7
20260830091105 72 22 0.0 0.0 0.00 0.00 0.00 68 1010.7
20260830091036 72 22 0.0 0.0 0.00 0.00 0.00 69 1010.7
20260830091006 72 22 0.0 0.0 0.00 0.00 0.00 68 1010.7
20260830090950 72 66 0.0 0.0 0.00 0.00 0.00 68 1011.6
20260830090935 72 22 0.0 0.0 0.00 0.00 0.00 68 1010.7
20260830090906 72 22 0.0 0.0 0.00 0.00 0.00 68 1010.7
20260830090837 72 22 0.0 0.0 0.00 0.00 0.00 69 1010.7
20260830090735 72 22 0.0 0.0 0.00 0.00 0.00 69 1010.7
20260830090706 72 22 0.0 0.0 0.00 0.00 0.00 68 1010.7
20260830090636 72 22 0.0 0.0 0.00 0.00 0.00 68 1010.7
20260830090608 72 22 0.0 0.0 0.00 0.00 0.00 68 1010.7
20260830090536 72 142 0.0 0.0 0.00 0.00 0.00 68 1010.7
20260830090446 72 37 0.0 0.0 0.00 0.00 0.00 68 1011.5
20260830090435 72 142 0.0 0.0 0.00 0.00 0.00 68 1010.7
20260830090406 72 142 0.0 0.0 0.00 0.00 0.00 68 1010.7
20260830090336 72 142 0.0 0.0 0.00 0.00 0.00 68 1010.7
20260830090305 72 142 0.0 0.0 0.00 0.00 0.00 68 1010.7
20260830090246 73 142 0.0 0.0 0.00 0.00 0.00 67 1010.7
20260830090236 73 142 0.0 0.0 0.00 0.00 0.00 68 1010.7
20260830090136 73 142 0.0 0.0 0.00 0.00 0.00 68 1010.7
20260830090120 73 13 0.0 0.0 0.00 0.00 0.00 67 1010.7
20260830090116 73 142 0.0 0.0 0.00 0.00 0.00 68 1010.7
20260830090035 73 142 0.0 0.0 0.00 0.00 0.00 68 1010.7
20260830090008 73 142 0.0 0.0 0.00 0.00 0.00 68 1010.7
20260830085958 73 13 0.0 0.0 0.00 0.00 0.00 67 1010.7
20260830085948 73 13 0.0 0.0 0.00 0.00 0.00 66 1010.7
20260830085941 73 62 0.0 0.0 0.00 0.00 0.00 67 1011.6
20260830085935 73 142 0.0 0.0 0.00 0.00 0.00 67 1010.7
20260830085916 73 142 0.0 0.0 0.00 0.00 0.00 67 1010.7
20260830085751 73 142 0.0 0.0 0.00 0.00 0.00 67 1010.7
20260830085740 73 142 0.0 0.0 0.00 0.00 0.00 67 1010.7
20260830085612 73 13 0.0 0.0 0.00 0.00 0.00 67 1010.7
20260830085436 73 6 0.0 0.0 0.00 0.00 0.00 67 1011.7
20260830085335 73 13 0.0 0.0 0.00 0.00 0.00 67 1010.7
20260830085250 73 13 0.0 0.0 0.00 0.00 0.00 67 1010.7
20260830085236 73 13 0.0 0.0 0.00 0.00 0.00 67 1010.7
20260830085207 73 13 0.0 0.0 0.00 0.00 0.00 67 1010.7
20260830085135 73 13 0.0 0.0 0.00 0.00 0.00 67 1010.7
20260830085112 73 13 0.0 0.0 0.00 0.00 0.00 66 1010.7
20260830085059 73 13 0.0 0.0 0.00 0.00 0.00 67 1010.7
20260830085049 73 13 0.0 0.0 0.00 0.00 0.00 67 1010.7
20260830085039 73 13 0.0 0.0 0.00 0.00 0.00 66 1010.7
20260830084932 73 343 0.0 1.0 0.00 0.00 0.00 66 1011.6
20260830084744 74 52 0.0 0.0 0.00 0.00 0.00 66 1010.7
20260830084735 73 13 0.0 0.0 0.00 0.00 0.00 67 1010.7
20260830084717 73 13 0.0 0.0 0.00 0.00 0.00 67 1010.7
20260830084535 73 52 0.0 0.0 0.00 0.00 0.00 66 1010.7
20260830084523 74 52 0.0 0.0 0.00 0.00 0.00 66 1010.7
20260830084436 73 52 0.0 0.0 0.00 0.00 0.00 66 1010.7
20260830084427 73 60 0.0 1.0 0.00 0.00 0.00 66 1011.6
20260830084414 73 52 0.0 0.0 0.00 0.00 0.00 66 1010.7
20260830084236 74 52 0.0 0.0 0.00 0.00 0.00 66 1010.7
20260830084151 74 52 0.0 0.0 0.00 0.00 0.00 66 1010.7
20260830083936 74 52 0.0 0.0 0.00 0.00 0.00 66 1010.7
20260830083922 74 54 0.0 1.0 0.00 0.00 0.00 66 1011.7
20260830083907 74 52 0.0 0.0 0.00 0.00 0.00 66 1010.7
20260830083835 74 52 0.0 0.0 0.00 0.00 0.00 66 1010.7
20260830083805 74 52 0.0 0.0 0.00 0.00 0.00 66 1010.7
20260830083735 74 52 0.0 0.0 0.00 0.00 0.00 66 1010.7
20260830083705 74 52 0.0 0.0 0.00 0.00 0.00 66 1010.7
20260830083636 74 52 0.0 0.0 0.00 0.00 0.00 67 1010.7
20260830083607 74 52 0.0 1.0 0.00 0.00 0.00 67 1010.7
20260830083536 74 50 0.0 0.0 0.00 0.00 0.00 67 1011.0
20260830083526 74 50 0.0 0.0 0.00 0.00 0.00 65 1011.0
20260830083505 74 50 0.0 0.0 0.00 0.00 0.00 68 1011.0
20260830083436 74 50 0.0 0.0 0.00 0.00 0.00 67 1011.0
20260830083418 74 55 0.0 2.0 0.00 0.00 0.00 67 1011.7
20260830083405 74 50 0.0 0.0 0.00 0.00 0.00 67 1011.0
20260830083336 74 50 0.0 0.0 0.00 0.00 0.00 66 1011.0
20260830083236 74 50 0.0 0.0 0.00 0.00 0.00 66 1011.0
20260830083206 74 50 0.0 0.0 0.00 0.00 0.00 66 1011.0
20260830083156 74 50 0.0 0.0 0.00 0.00 0.00 65 1011.0
20260830083151 74 50 0.0 0.0 0.00 0.00 0.00 65 1011.0
20260830083007 74 50 0.0 0.0 0.00 0.00 0.00 65 1011.0
20260830082941 74 22 0.0 0.0 0.00 0.00 0.00 65 1010.9
20260830082935 74 50 0.0 0.0 0.00 0.00 0.00 65 1011.0
20260830082917 74 55 1.0 1.0 0.00 0.00 0.00 65 1011.9
20260830082906 74 50 0.0 0.0 0.00 0.00 0.00 65 1011.0
20260830082835 74 50 0.0 0.0 0.00 0.00 0.00 65 1011.0
20260830082752 74 50 0.0 0.0 0.00 0.00 0.00 65 1011.0
20260830082627 74 50 0.0 0.0 0.00 0.00 0.00 65 1011.0
20260830082616 74 22 0.0 0.0 0.00 0.00 0.00 65 1010.9
20260830082436 74 22 0.0 0.0 0.00 0.00 0.00 65 1010.9
20260830082416 74 22 0.0 0.0 0.00 0.00 0.00 65 1010.9
20260830082412 74 55 0.0 1.0 0.00 0.00 0.00 65 1011.8
20260830082336 74 22 0.0 0.0 0.00 0.00 0.00 65 1010.9
20260830082306 74 22 0.0 0.0 0.00 0.00 0.00 65 1010.9
20260830082235 74 22 0.0 0.0 0.00 0.00 0.00 65 1010.9
20260830082207 74 22 0.0 0.0 0.00 0.00 0.00 65 1010.9
20260830082135 74 22 0.0 0.0 0.00 0.00 0.00 65 1010.9
20260830082052 74 22 0.0 0.0 0.00 0.00 0.00 65 1010.9
20260830081907 75 297 0.0 1.0 0.00 0.00 0.00 64 1011.8
20260830081836 74 22 0.0 0.0 0.00 0.00 0.00 64 1010.9
20260830081806 74 22 0.0 0.0 0.00 0.00 0.00 64 1010.9
20260830081735 74 22 0.0 0.0 0.00 0.00 0.00 64 1010.9
20260830081636 75 22 0.0 0.0 0.00 0.00 0.00 65 1010.9
20260830081606 75 22 0.0 0.0 0.00 0.00 0.00 65 1010.9
20260830081548 75 25 0.0 0.0 0.00 0.00 0.00 65 1011.0
20260830081536 75 25 0.0 0.0 0.00 0.00 0.00 64 1011.0
20260830081435 75 25 0.0 0.0 0.00 0.00 0.00 65 1011.0
20260830081406 75 25 0.0 0.0 0.00 0.00 0.00 65 1011.0
20260830081402 75 32 0.0 0.0 0.00 0.00 0.00 65 1011.9
20260830081335 75 25 0.0 0.0 0.00 0.00 0.00 64 1011.0
20260830081305 75 25 0.0 0.0 0.00 0.00 0.00 64 1011.0
20260830081240 75 25 0.0 0.0 0.00 0.00 0.00 64 1011.0
20260830081235 75 25 0.0 0.0 0.00 0.00 0.00 65 1011.0
20260830081217 75 25 0.0 0.0 0.00 0.00 0.00 65 1011.0
20260830081048 75 25 0.0 0.0 0.00 0.00 0.00 64 1011.0
20260830081006 75 25 0.0 0.0 0.00 0.00 0.00 64 1011.0
20260830080946 75 15 0.0 0.0 0.00 0.00 0.00 64 1011.0
20260830080935 75 25 0.0 0.0 0.00 0.00 0.00 64 1011.0
20260830080901 75 50 0.0 1.0 0.00 0.00 0.00 64 1011.8
20260830080850 75 25 0.0 0.0 0.00 0.00 0.00 64 1011.0
20260830080711 75 15 0.0 0.0 0.00 0.00 0.00 63 1011.0
20260830080650 75 25 0.0 0.0 0.00 0.00 0.00 64 1011.0
20260830080627 75 25 0.0 1.0 0.00 0.00 0.00 64 1011.0
20260830080616 75 15 0.0 0.0 0.00 0.00 0.00 64 1011.0
20260830080436 75 15 0.0 0.0 0.00 0.00 0.00 64 1011.0
20260830080358 75 44 0.0 1.0 0.00 0.00 0.00 64 1012.0
20260830080353 75 15 0.0 0.0 0.00 0.00 0.00 64 1011.0
20260830080328 75 15 0.0 0.0 0.00 0.00 0.00 64 1011.0
20260830080136 75 15 0.0 0.0 0.00 0.00 0.00 63 1011.0
20260830080115 75 15 0.0 0.0 0.00 0.00 0.00 63 1011.0
20260830080049 75 15 0.0 0.0 0.00 0.00 0.00 64 1011.0
20260830080006 75 15 0.0 0.0 0.00 0.00 0.00 64 1011.0
20260830075935 75 15 0.0 0.0 0.00 0.00 0.00 64 1011.0
20260830075916 75 103 0.0 0.0 0.00 0.00 0.00 63 1011.0
20260830075905 75 15 0.0 0.0 0.00 0.00 0.00 64 1011.0
20260830075857 75 15 0.0 0.0 0.00 0.00 0.00 64 1011.9
20260830075835 75 15 0.0 0.0 0.00 0.00 0.00 64 1011.0
20260830075806 75 15 0.0 0.0 0.00 0.00 0.00 64 1011.0
20260830075735 75 15 0.0 0.0 0.00 0.00 0.00 63 1011.0
20260830075636 75 15 0.0 0.0 0.00 0.00 0.00 63 1011.0
20260830075607 75 15 0.0 0.0 0.00 0.00 0.00 63 1011.0
20260830075555 75 103 0.0 0.0 0.00 0.00 0.00 63 1011.0
20260830075551 75 103 0.0 0.0 0.00 0.00 0.00 63 1011.0
20260830075353 75 15 0.0 1.0 0.00 0.00 0.00 63 1012.0
20260830075337 75 103 0.0 0.0 0.00 0.00 0.00 63 1011.0
20260830075236 75 103 0.0 0.0 0.00 0.00 0.00 63 1011.0
20260830075155 75 103 0.0 0.0 0.00 0.00 0.00 63 1011.0
20260830075151 75 103 0.0 0.0 0.00 0.00 0.00 63 1011.0
20260830075006 75 103 0.0 0.0 0.00 0.00 0.00 63 1011.0
20260830074936 75 103 0.0 0.0 0.00 0.00 0.00 63 1011.0
20260830074848 75 103 0.0 0.0 0.00 0.00 0.00 63 1011.9
20260830074835 75 103 0.0 0.0 0.00 0.00 0.00 63 1011.0
20260830074818 75 103 0.0 0.0 0.00 0.00 0.00 63 1011.0
20260830074648 75 62 0.0 0.0 0.00 0.00 0.00 62 1010.9
20260830074635 75 103 0.0 0.0 0.00 0.00 0.00 63 1011.0
20260830074608 75 103 0.0 0.0 0.00 0.00 0.00 62 1011.0
20260830074536 75 62 0.0 0.0 0.00 0.00 0.00 62 1010.9
20260830074505 75 62 0.0 0.0 0.00 0.00 0.00 62 1010.9
20260830074435 75 62 0.0 0.0 0.00 0.00 0.00 62 1010.9
20260830074343 75 36 0.0 1.0 0.00 0.00 0.00 62 1011.8
20260830074335 75 62 0.0 0.0 0.00 0.00 0.00 62 1010.9
20260830074316 75 62 0.0 0.0 0.00 0.00 0.00 62 1010.9
20260830074143 76 62 0.0 0.0 0.00 0.00 0.00 61 1010.9
20260830074135 75 62 0.0 0.0 0.00 0.00 0.00 62 1010.9
20260830074107 75 62 0.0 0.0 0.00 0.00 0.00 62 1010.9
20260830074036 75 62 0.0 0.0 0.00 0.00 0.00 62 1010.9
20260830074007 75 62 0.0 0.0 0.00 0.00 0.00 62 1010.9
20260830073936 76 62 0.0 0.0 0.00 0.00 0.00 61 1010.9
20260830073839 76 94 0.0 1.0 0.00 0.00 0.00 61 1011.8
20260830073836 76 62 0.0 0.0 0.00 0.00 0.00 61 1010.9
20260830073823 76 315 0.0 0.0 0.00 0.00 0.00 61 1010.9
20260830073816 76 62 0.0 0.0 0.00 0.00 0.00 61 1010.9
20260830073635 76 62 0.0 0.0 0.00 0.00 0.00 61 1010.9
20260830073617 76 315 0.0 0.0 0.00 0.00 0.00 61 1010.9
20260830073607 76 62 0.0 0.0 0.00 0.00 0.00 61 1010.9
20260830073536 76 315 0.0 0.0 0.00 0.00 0.00 61 1010.9
20260830073437 76 315 0.0 0.0 0.00 0.00 0.00 61 1010.9
20260830073404 76 315 0.0 0.0 0.00 0.00 0.00 61 1010.9
20260830073335 76 345 0.0 0.0 0.00 0.00 0.00 61 1011.6
20260830073035 76 315 0.0 0.0 0.00 0.00 0.00 61 1010.9
20260830073006 76 315 0.0 0.0 0.00 0.00 0.00 61 1010.9
20260830072935 76 315 0.0 0.0 0.00 0.00 0.00 61 1010.9
20260830072906 76 315 0.0 0.0 0.00 0.00 0.00 62 1010.9
20260830072835 76 315 0.0 0.0 0.00 0.00 0.00 61 1010.9
20260830072830 76 315 0.0 0.0 0.00 0.00 0.00 61 1011.8
20260830072818 76 315 0.0 0.0 0.00 0.00 0.00 62 1010.9
20260830072735 76 315 0.0 0.0 0.00 0.00 0.00 61 1010.9
20260830072706 76 315 0.0 0.0 0.00 0.00 0.00 61 1010.9
20260830072635 76 315 0.0 0.0 0.00 0.00 0.00 61 1010.9
20260830072620 75 315 0.0 0.0 0.00 0.00 0.00 61 1010.9
20260830072535 75 62 0.0 0.0 0.00 0.00 0.00 61 1010.7
20260830072437 75 62 0.0 0.0 0.00 0.00 0.00 61 1010.7
20260830072411 75 62 0.0 0.0 0.00 0.00 0.00 61 1010.7
20260830072336 75 62 0.0 0.0 0.00 0.00 0.00 61 1010.7
20260830072326 75 25 0.0 0.0 0.00 0.00 0.00 61 1011.9
20260830072307 75 62 0.0 0.0 0.00 0.00 0.00 61 1010.7
20260830072245 75 62 0.0 0.0 0.00 0.00 0.00 61 1010.7
20260830072235 75 62 0.0 0.0 0.00 0.00 0.00 61 1010.7
20260830072136 75 62 0.0 0.0 0.00 0.00 0.00 61 1010.7
20260830072052 75 62 0.0 0.0 0.00 0.00 0.00 61 1010.7
20260830071915 75 62 0.0 0.0 0.00 0.00 0.00 61 1010.7
20260830071820 75 62 0.0 0.0 0.00 0.00 0.00 61 1011.8
20260830071735 75 62 0.0 0.0 0.00 0.00 0.00 61 1010.7
20260830071706 75 62 0.0 0.0 0.00 0.00 0.00 61 1010.7
20260830071635 75 62 0.0 0.0 0.00 0.00 0.00 61 1010.7
20260830071607 75 62 0.0 0.0 0.00 0.00 0.00 61 1010.7
20260830071535 75 110 0.0 0.0 0.00 0.00 0.00 61 1010.9
20260830071435 75 110 0.0 0.0 0.00 0.00 0.00 61 1010.9
20260830071336 75 110 0.0 0.0 0.00 0.00 0.00 61 1010.9
20260830071319 75 85 0.0 2.0 0.00 0.00 0.00 61 1011.6
20260830071245 76 0 1.0 0.0 0.00 0.00 0.00 60 1010.7
20260830071236 75 110 0.0 0.0 0.00 0.00 0.00 61 1010.9
20260830071135 75 110 0.0 0.0 0.00 0.00 0.00 61 1010.9
20260830071115 76 110 0.0 0.0 0.00 0.00 0.00 60 1010.9
20260830071106 75 110 0.0 0.0 0.00 0.00 0.00 60 1010.9
20260830071036 75 110 0.0 0.0 0.00 0.00 0.00 60 1010.9
20260830070937 75 110 0.0 0.0 0.00 0.00 0.00 60 1010.9
20260830070917 75 110 0.0 0.0 0.00 0.00 0.00 60 1010.9
20260830070909 75 110 0.0 0.0 0.00 0.00 0.00 60 1010.9
20260830070818 75 69 0.0 1.0 0.00 0.00 0.00 61 1011.7
20260830070755 75 110 0.0 0.0 0.00 0.00 0.00 60 1010.9
20260830070746 75 110 0.0 0.0 0.00 0.00 0.00 60 1010.9
20260830070607 76 110 0.0 1.0 0.00 0.00 0.00 60 1010.9
20260830070535 76 0 1.0 0.0 0.00 0.00 0.00 60 1010.7
20260830070506 76 0 1.0 0.0 0.00 0.00 0.00 60 1010.7
20260830070435 76 0 1.0 0.0 0.00 0.00 0.00 60 1010.7
20260830070335 76 0 1.0 0.0 0.00 0.00 0.00 60 1010.7
20260830070317 76 0 1.0 0.0 0.00 0.00 0.00 60 1010.7
20260830070313 76 312 0.0 1.0 0.00 0.00 0.00 60 1011.6
20260830070135 76 0 1.0 0.0 0.00 0.00 0.00 60 1010.7
20260830070110 76 0 1.0 0.0 0.00 0.00 0.00 60 1010.7
20260830070036 76 0 1.0 0.0 0.00 0.00 0.00 60 1010.7
20260830070021 76 25 0.0 0.0 0.00 0.00 0.00 60 1010.6
20260830065936 76 0 1.0 0.0 0.00 0.00 0.00 60 1010.7
20260830065836 76 0 1.0 0.0 0.00 0.00 0.00 60 1010.7
20260830065812 76 6 0.0 1.0 0.00 0.00 0.00 60 1011.4
20260830065806 76 0 1.0 0.0 0.00 0.00 0.00 60 1010.7
20260830065741 76 25 0.0 0.0 0.00 0.00 0.00 59 1010.6
20260830065735 76 0 1.0 0.0 0.00 0.00 0.00 60 1010.7
20260830065707 76 25 0.0 0.0 0.00 0.00 0.00 59 1010.6
20260830065657 76 0 1.0 0.0 0.00 0.00 0.00 60 1010.7
20260830065647 76 0 1.0 1.0 0.00 0.00 0.00 60 1010.7
20260830065505 76 25 0.0 0.0 0.00 0.00 0.00 60 1010.6
20260830065435 76 25 0.0 0.0 0.00 0.00 0.00 59 1010.6
20260830065415 76 25 0.0 0.0 0.00 0.00 0.00 59 1010.6
20260830065307 76 2 0.0 1.0 0.00 0.00 0.00 59 1011.6
20260830065243 76 343 0.0 0.0 0.00 0.00 0.00 59 1010.4
20260830065236 76 25 0.0 0.0 0.00 0.00 0.00 59 1010.6
20260830065226 76 25 0.0 0.0 0.00 0.00 0.00 59 1010.6
20260830065216 76 25 0.0 0.0 0.00 0.00 0.00 60 1010.6
20260830065036 76 25 0.0 0.0 0.00 0.00 0.00 59 1010.6
20260830065019 76 343 0.0 0.0 0.00 0.00 0.00 59 1010.4
20260830065006 76 25 0.0 0.0 0.00 0.00 0.00 59 1010.6
20260830064935 76 25 0.0 0.0 0.00 0.00 0.00 59 1010.6
20260830064838 76 25 0.0 0.0 0.00 0.00 0.00 59 1010.6
20260830064822 76 25 0.0 0.0 0.00 0.00 0.00 59 1010.6
20260830064805 76 322 0.0 1.0 0.00 0.00 0.00 59 1011.3
20260830064658 76 25 0.0 0.0 0.00 0.00 0.00 59 1010.6
20260830064648 76 25 0.0 0.0 0.00 0.00 0.00 59 1010.6
20260830064506 76 343 0.0 0.0 0.00 0.00 0.00 59 1010.4
20260830064435 76 343 0.0 0.0 0.00 0.00 0.00 59 1010.4
20260830064349 76 343 0.0 0.0 0.00 0.00 0.00 59 1010.4
20260830064301 76 37 0.0 0.0 0.00 0.00 0.00 59 1011.3
20260830064144 76 343 0.0 0.0 0.00 0.00 0.00 59 1010.4
20260830064135 76 343 0.0 0.0 0.00 0.00 0.00 59 1010.4
20260830064106 76 343 0.0 0.0 0.00 0.00 0.00 59 1010.4
20260830064035 76 343 0.0 0.0 0.00 0.00 0.00 59 1010.4
20260830063937 76 343 0.0 0.0 0.00 0.00 0.00 59 1010.4
20260830063847 76 37 0.0 0.0 0.00 0.00 0.00 59 1010.5
20260830063835 76 343 0.0 0.0 0.00 0.00 0.00 59 1010.4
20260830063816 76 343 0.0 0.0 0.00 0.00 0.00 59 1010.4
20260830063755 76 322 0.0 0.0 0.00 0.00 0.00 59 1011.2
20260830063635 76 343 0.0 0.0 0.00 0.00 0.00 59 1010.4
20260830063607 76 343 0.0 0.0 0.00 0.00 0.00 59 1010.4
20260830063552 76 37 0.0 0.0 0.00 0.00 0.00 59 1010.5
20260830063536 76 37 0.0 0.0 0.00 0.00 0.00 59 1010.5
20260830063515 76 37 0.0 0.0 0.00 0.00 0.00 59 1010.5
20260830063335 76 37 0.0 0.0 0.00 0.00 0.00 59 1010.5
20260830063255 76 341 0.0 0.0 0.00 0.00 0.00 59 1011.4
20260830063236 76 37 0.0 0.0 0.00 0.00 0.00 59 1010.5
20260830063226 76 37 0.0 0.0 0.00 0.00 0.00 59 1010.5
20260830063218 76 37 0.0 0.0 0.00 0.00 0.00 59 1010.5
20260830063035 76 37 0.0 0.0 0.00 0.00 0.00 59 1010.5
20260830062936 76 37 0.0 0.0 0.00 0.00 0.00 59 1010.5
20260830062906 76 37 0.0 0.0 0.00 0.00 0.00 59 1010.5
20260830062835 76 37 0.0 0.0 0.00 0.00 0.00 59 1010.5
20260830062755 76 89 0.0 0.0 0.00 0.00 0.00 59 1010.1
20260830062749 76 37 0.0 0.0 0.00 0.00 0.00 59 1010.5
20260830062607 76 37 0.0 0.0 0.00 0.00 0.00 59 1010.5
20260830062536 76 89 0.0 0.0 0.00 0.00 0.00 59 1010.1
20260830062437 76 89 0.0 0.0 0.00 0.00 0.00 59 1010.1
20260830062427 76 89 0.0 0.0 0.00 0.00 0.00 58 1010.1
20260830062417 76 89 0.0 0.0 0.00 0.00 0.00 59 1010.1
20260830062243 76 37 0.0 0.0 0.00 0.00 0.00 58 1011.3
20260830062236 76 89 0.0 0.0 0.00 0.00 0.00 59 1010.1
20260830062136 76 89 0.0 0.0 0.00 0.00 0.00 59 1010.1
20260830062113 76 309 0.0 0.0 0.00 0.00 0.00 58 1010.4
20260830062055 76 89 0.0 0.0 0.00 0.00 0.00 59 1010.1
20260830062046 76 89 0.0 0.0 0.00 0.00 0.00 59 1010.1
20260830061919 76 89 0.0 0.0 0.00 0.00 0.00 58 1010.1
20260830061835 76 89 0.0 0.0 0.00 0.00 0.00 58 1010.1
20260830061806 76 89 0.0 0.0 0.00 0.00 0.00 58 1010.1
20260830061738 76 55 0.0 0.0 0.00 0.00 0.00 58 1011.3
20260830061736 76 89 0.0 0.0 0.00 0.00 0.00 58 1010.1
20260830061706 76 89 0.0 0.0 0.00 0.00 0.00 59 1010.1
20260830061657 76 89 0.0 0.0 0.00 0.00 0.00 58 1010.1
20260830061647 76 89 0.0 0.0 0.00 0.00 0.00 58 1010.1
20260830061636 76 309 0.0 0.0 0.00 0.00 0.00 58 1010.4
20260830061437 76 309 0.0 0.0 0.00 0.00 0.00 58 1010.4
20260830061348 76 309 0.0 0.0 0.00 0.00 0.00 58 1010.4
20260830061248 76 309 0.0 0.0 0.00 0.00 0.00 58 1010.4
20260830061233 77 6 0.0 1.0 0.00 0.00 0.00 58 1011.3
20260830061153 76 309 0.0 0.0 0.00 0.00 0.00 58 1010.4
20260830061019 76 309 0.0 0.0 0.00 0.00 0.00 58 1010.4
20260830060936 76 309 0.0 0.0 0.00 0.00 0.00 58 1010.4
20260830060906 76 309 0.0 0.0 0.00 0.00 0.00 58 1010.4
20260830060835 76 309 0.0 0.0 0.00 0.00 0.00 58 1010.4
20260830060749 76 309 0.0 0.0 0.00 0.00 0.00 58 1010.4
20260830060730 76 29 1.0 1.0 0.00 0.00 0.00 58 1011.5
20260830060705 76 309 0.0 0.0 0.00 0.00 0.00 58 1010.4
20260830060635 76 309 0.0 0.0 0.00 0.00 0.00 58 1010.4
20260830060607 76 309 0.0 0.0 0.00 0.00 0.00 58 1010.4
20260830060552 76 309 0.0 0.0 0.00 0.00 0.00 58 1010.4
20260830060536 76 309 0.0 0.0 0.00 0.00 0.00 58 1010.4
20260830060506 76 309 0.0 0.0 0.00 0.00 0.00 58 1010.4
20260830060436 76 309 0.0 0.0 0.00 0.00 0.00 58 1010.4
20260830060409 76 309 0.0 0.0 0.00 0.00 0.00 58 1010.4
20260830060343 76 309 0.0 0.0 0.00 0.00 0.00 58 1010.4
20260830060337 76 309 0.0 0.0 0.00 0.00 0.00 58 1010.4
20260830060241 76 309 0.0 0.0 0.00 0.00 0.00 58 1010.4
20260830060228 76 309 0.0 0.0 0.00 0.00 0.00 58 1010.4
20260830060055 76 66 0.0 0.0 0.00 0.00 0.00 58 1010.4
20260830060051 76 309 0.0 0.0 0.00 0.00 0.00 58 1010.4
20260830060024 76 66 0.0 0.0 0.00 0.00 0.00 58 1010.4
20260830060017 76 309 0.0 0.0 0.00 0.00 0.00 58 1010.4
20260830055836 76 309 0.0 0.0 0.00 0.00 0.00 58 1010.4
20260830055812 76 66 0.0 0.0 0.00 0.00 0.00 57 1010.4
20260830055807 76 66 0.0 0.0 0.00 0.00 0.00 57 1010.4
20260830055757 76 309 0.0 0.0 0.00 0.00 0.00 58 1010.4
20260830055747 76 309 0.0 0.0 0.00 0.00 0.00 57 1010.4
20260830055738 76 309 0.0 0.0 0.00 0.00 0.00 58 1010.4
20260830055728 76 309 0.0 0.0 0.00 0.00 0.00 58 1010.4
20260830055721 77 309 0.0 0.0 0.00 0.00 0.00 57 1011.3
20260830055435 76 66 0.0 0.0 0.00 0.00 0.00 58 1010.4
20260830055407 76 66 0.0 0.0 0.00 0.00 0.00 58 1010.4
20260830055341 76 66 0.0 0.0 0.00 0.00 0.00 57 1010.4
20260830055329 76 66 0.0 0.0 0.00 0.00 0.00 57 1010.4
20260830055218 77 44 0.0 0.0 0.00 0.00 0.00 57 1011.2
20260830055037 76 66 0.0 0.0 0.00 0.00 0.00 57 1010.4
20260830055006 76 66 0.0 0.0 0.00 0.00 0.00 57 1010.4
20260830054936 76 66 0.0 0.0 0.00 0.00 0.00 57 1010.4
20260830054836 76 66 0.0 0.0 0.00 0.00 0.00 57 1010.4
20260830054806 76 66 0.0 0.0 0.00 0.00 0.00 57 1010.4
20260830054749 77 322 0.0 0.0 0.00 0.00 0.00 57 1010.4
20260830054735 76 66 0.0 0.0 0.00 0.00 0.00 57 1010.4
20260830054712 77 66 0.0 0.0 0.00 0.00 0.00 57 1011.2
20260830054705 77 66 0.0 0.0 0.00 0.00 0.00 57 1010.4
20260830054635 77 66 0.0 0.0 0.00 0.00 0.00 58 1010.4
20260830054606 77 66 0.0 0.0 0.00 0.00 0.00 58 1010.4
20260830054536 77 322 0.0 0.0 0.00 0.00 0.00 58 1010.4
20260830054436 77 322 0.0 0.0 0.00 0.00 0.00 57 1010.4
20260830054416 77 322 0.0 0.0 0.00 0.00 0.00 57 1010.4
20260830054235 77 322 0.0 0.0 0.00 0.00 0.00 57 1010.4
20260830054208 77 322 0.0 0.0 0.00 0.00 0.00 57 1011.2
20260830054136 77 322 0.0 0.0 0.00 0.00 0.00 57 1010.4
20260830054036 77 322 0.0 0.0 0.00 0.00 0.00 57 1010.4
20260830053936 77 322 0.0 0.0 0.00 0.00 0.00 57 1010.4
20260830053850 77 3 0.0 0.0 0.00 0.00 0.00 56 1010.4
20260830053836 77 322 0.0 0.0 0.00 0.00 0.00 57 1010.4
20260830053806 77 322 0.0 0.0 0.00 0.00 0.00 57 1010.4
20260830053745 77 3 0.0 0.0 0.00 0.00 0.00 56 1010.4
20260830053736 77 322 0.0 0.0 0.00 0.00 0.00 57 1010.4
20260830053706 77 322 0.0 0.0 0.00 0.00 0.00 57 1010.4
20260830053703 77 322 0.0 0.0 0.00 0.00 0.00 56 1011.3
20260830053635 77 322 0.0 0.0 0.00 0.00 0.00 56 1010.4
20260830053619 77 3 0.0 0.0 0.00 0.00 0.00 56 1010.4
20260830053607 77 322 0.0 0.0 0.00 0.00 0.00 56 1010.4
20260830053550 77 3 0.0 0.0 0.00 0.00 0.00 56 1010.4
20260830053542 77 3 0.0 0.0 0.00 0.00 0.00 56 1010.4
20260830053530 77 3 0.0 0.0 0.00 0.00 0.00 56 1010.4
20260830053255 77 3 0.0 0.0 0.00 0.00 0.00 56 1010.4
20260830053251 77 3 0.0 0.0 0.00 0.00 0.00 56 1010.4
20260830053158 77 322 0.0 0.0 0.00 0.00 0.00 56 1011.3
20260830053050 77 3 0.0 0.0 0.00 0.00 0.00 56 1010.4
20260830052854 77 3 0.0 0.0 0.00 0.00 0.00 56 1010.4
20260830052828 77 3 0.0 0.0 0.00 0.00 0.00 56 1010.4
20260830052652 77 0 2.0 2.0 0.00 0.00 0.00 56 1011.5
20260830052635 77 3 0.0 0.0 0.00 0.00 0.00 56 1010.4
20260830052620 77 3 0.0 0.0 0.00 0.00 0.00 56 1010.4
20260830052549 78 315 0.0 0.0 0.00 0.00 0.00 55 1010.4
20260830052535 77 315 0.0 0.0 0.00 0.00 0.00 56 1010.4
20260830052435 77 315 0.0 0.0 0.00 0.00 0.00 56 1010.4
20260830052406 77 315 0.0 0.0 0.00 0.00 0.00 56 1010.4
20260830052348 78 315 0.0 0.0 0.00 0.00 0.00 55 1010.4
20260830052336 77 315 0.0 0.0 0.00 0.00 0.00 56 1010.4
20260830052306 77 315 0.0 0.0 0.00 0.00 0.00 56 1010.4
20260830052236 77 315 0.0 0.0 0.00 0.00 0.00 55 1010.4
20260830052215 78 315 0.0 0.0 0.00 0.00 0.00 55 1010.4
20260830052147 78 326 0.0 1.0 0.00 0.00 0.00 55 1011.5
20260830052048 78 315 0.0 0.0 0.00 0.00 0.00 55 1010.4
20260830052038 78 315 0.0 0.0 0.00 0.00 0.00 56 1010.4
20260830052028 78 315 0.0 0.0 0.00 0.00 0.00 55 1010.4
20260830051836 78 315 0.0 0.0 0.00 0.00 0.00 55 1010.4
20260830051806 78 315 0.0 0.0 0.00 0.00 0.00 56 1010.4
20260830051736 78 315 0.0 0.0 0.00 0.00 0.00 55 1010.4
20260830051649 78 0 0.0 0.0 0.00 0.00 0.00 55 1010.4
20260830051642 78 315 0.0 1.0 0.00 0.00 0.00 55 1011.4
20260830051636 78 315 0.0 0.0 0.00 0.00 0.00 55 1010.4
20260830051607 78 315 0.0 0.0 0.00 0.00 0.00 55 1010.4
20260830051536 78 0 0.0 0.0 0.00 0.00 0.00 55 1010.4
20260830051518 78 0 0.0 0.0 0.00 0.00 0.00 55 1010.4
20260830051436 78 0 0.0 0.0 0.00 0.00 0.00 55 1010.4
20260830051336 78 0 0.0 0.0 0.00 0.00 0.00 55 1010.4
20260830051315 78 0 0.0 0.0 0.00 0.00 0.00 55 1010.4
20260830051148 78 0 0.0 0.0 0.00 0.00 0.00 55 1010.4
20260830051138 78 329 0.0 2.0 0.00 0.00 0.00 55 1011.4
20260830051107 78 0 0.0 0.0 0.00 0.00 0.00 55 1010.4
20260830051035 78 0 0.0 0.0 0.00 0.00 0.00 55 1010.4
20260830051018 78 0 0.0 0.0 0.00 0.00 0.00 55 1010.4
20260830050935 78 0 0.0 0.0 0.00 0.00 0.00 55 1010.4
20260830050918 78 0 0.0 0.0 0.00 0.00 0.00 55 1010.4
20260830050836 78 0 0.0 0.0 0.00 0.00 0.00 55 1010.4
20260830050815 78 0 0.0 0.0 0.00 0.00 0.00 55 1010.4
20260830050646 77 55 0.0 0.0 0.00 0.00 0.00 55 1010.6
20260830050636 77 9 2.0 2.0 0.00 0.00 0.00 55 1011.6
20260830050606 77 0 0.0 0.0 0.00 0.00 0.00 55 1010.4
20260830050535 77 55 0.0 0.0 0.00 0.00 0.00 55 1010.6
20260830050436 77 55 0.0 0.0 0.00 0.00 0.00 55 1010.6
20260830050352 77 55 0.0 0.0 0.00 0.00 0.00 55 1010.6
20260830050348 77 55 0.0 0.0 0.00 0.00 0.00 55 1010.6
20260830050318 77 55 0.0 0.0 0.00 0.00 0.00 55 1010.6
20260830050136 77 55 0.0 0.0 0.00 0.00 0.00 55 1010.6
20260830050132 77 55 0.0 0.0 0.00 0.00 0.00 56 1011.6
20260830050108 77 55 0.0 0.0 0.00 0.00 0.00 56 1010.6
20260830050036 77 55 0.0 0.0 0.00 0.00 0.00 56 1010.6
20260830050006 77 55 0.0 0.0 0.00 0.00 0.00 56 1010.6
20260830045935 77 55 0.0 0.0 0.00 0.00 0.00 56 1010.6
20260830045906 77 55 0.0 0.0 0.00 0.00 0.00 56 1010.6
20260830045850 77 55 0.0 0.0 0.00 0.00 0.00 55 1010.6
20260830045706 77 55 0.0 0.0 0.00 0.00 0.00 55 1010.6
20260830045635 77 55 0.0 0.0 0.00 0.00 0.00 55 1010.6
20260830045630 78 55 0.0 0.0 0.00 0.00 0.00 55 1011.6
20260830045607 78 55 0.0 0.0 0.00 0.00 0.00 55 1010.6
20260830045535 78 66 0.0 0.0 0.00 0.00 0.00 55 1010.5
20260830045505 77 66 0.0 0.0 0.00 0.00 0.00 55 1010.5
20260830045435 78 66 0.0 0.0 0.00 0.00 0.00 55 1010.5
20260830045405 78 66 0.0 0.0 0.00 0.00 0.00 55 1010.5
20260830045335 78 66 0.0 0.0 0.00 0.00 0.00 55 1010.5
20260830045306 78 66 0.0 0.0 0.00 0.00 0.00 55 1010.5
20260830045235 78 66 0.0 0.0 0.00 0.00 0.00 55 1010.5
20260830045223 77 66 0.0 0.0 0.00 0.00 0.00 56 1010.5
20260830045206 78 66 0.0 0.0 0.00 0.00 0.00 55 1010.5
20260830045141 77 66 0.0 0.0 0.00 0.00 0.00 54 1010.5
20260830045126 77 37 0.0 1.0 0.00 0.00 0.00 54 1011.4
20260830045107 77 66 0.0 0.0 0.00 0.00 0.00 54 1010.5
20260830045037 77 66 0.0 0.0 0.00 0.00 0.00 54 1010.5
20260830045006 77 66 0.0 0.0 0.00 0.00 0.00 54 1010.5
20260830044936 77 66 0.0 0.0 0.00 0.00 0.00 54 1010.5
20260830044912 77 304 0.0 0.0 0.00 0.00 0.00 54 1010.6
20260830044906 77 66 0.0 0.0 0.00 0.00 0.00 54 1010.5
20260830044857 77 66 0.0 0.0 0.00 0.00 0.00 55 1010.5
20260830044848 77 66 0.0 0.0 0.00 0.00 0.00 55 1010.5
20260830044706 77 66 0.0 0.0 0.00 0.00 0.00 55 1010.5
20260830044636 77 66 0.0 0.0 0.00 0.00 0.00 54 1010.5
20260830044624 77 70 0.0 0.0 0.00 0.00 0.00 54 1011.5
20260830044607 77 66 0.0 0.0 0.00 0.00 0.00 54 1010.5
20260830044535 77 304 0.0 0.0 0.00 0.00 0.00 54 1010.6
20260830044516 77 304 0.0 0.0 0.00 0.00 0.00 54 1010.6
20260830044336 77 304 0.0 0.0 0.00 0.00 0.00 54 1010.6
20260830044318 78 304 0.0 0.0 0.00 0.00 0.00 54 1010.6
20260830044236 78 304 0.0 0.0 0.00 0.00 0.00 54 1010.6
20260830044206 78 304 0.0 0.0 0.00 0.00 0.00 54 1010.6
20260830044135 78 304 0.0 0.0 0.00 0.00 0.00 54 1010.6
20260830044120 78 304 0.0 0.0 0.00 0.00 0.00 54 1011.5
20260830044036 78 304 0.0 0.0 0.00 0.00 0.00 54 1010.6
20260830043955 78 353 0.0 0.0 0.00 0.00 0.00 54 1010.5
20260830043950 78 304 0.0 0.0 0.00 0.00 0.00 54 1010.6
20260830043805 78 304 0.0 0.0 0.00 0.00 0.00 54 1010.6
20260830043735 78 304 0.0 0.0 0.00 0.00 0.00 54 1010.6
20260830043719 78 353 0.0 0.0 0.00 0.00 0.00 53 1010.5
20260830043707 78 304 0.0 0.0 0.00 0.00 0.00 54 1010.6
20260830043635 78 304 0.0 0.0 0.00 0.00 0.00 54 1010.6
20260830043615 78 304 0.0 0.0 0.00 0.00 0.00 54 1011.5
20260830043608 78 304 0.0 0.0 0.00 0.00 0.00 54 1010.6
20260830043557 78 353 0.0 0.0 0.00 0.00 0.00 54 1010.5
20260830043551 78 353 0.0 0.0 0.00 0.00 0.00 54 1010.5
20260830043407 78 353 0.0 0.0 0.00 0.00 0.00 54 1010.5
20260830043359 78 353 0.0 0.0 0.00 0.00 0.00 54 1010.5
20260830043137 78 353 0.0 0.0 0.00 0.00 0.00 53 1010.5
20260830043116 78 353 0.0 0.0 0.00 0.00 0.00 53 1010.5
20260830043114 78 304 0.0 0.0 0.00 0.00 0.00 53 1011.5
20260830042936 78 353 0.0 0.0 0.00 0.00 0.00 53 1010.5
20260830042905 78 353 0.0 0.0 0.00 0.00 0.00 53 1010.5
20260830042835 78 353 0.0 0.0 0.00 0.00 0.00 53 1010.5
20260830042806 78 353 0.0 0.0 0.00 0.00 0.00 54 1010.5
20260830042736 78 353 0.0 0.0 0.00 0.00 0.00 53 1010.5
20260830042637 78 353 0.0 0.0 0.00 0.00 0.00 53 1010.5
20260830042612 78 29 0.0 0.0 0.00 0.00 0.00 54 1011.5
20260830042607 78 353 0.0 0.0 0.00 0.00 0.00 53 1010.5
20260830042544 79 15 0.0 0.0 0.00 0.00 0.00 54 1010.5
20260830042536 78 15 0.0 0.0 0.00 0.00 0.00 54 1010.5
20260830042519 78 15 0.0 0.0 0.00 0.00 0.00 54 1010.5
20260830042436 78 15 0.0 0.0 0.00 0.00 0.00 55 1010.5
20260830042412 79 15 0.0 0.0 0.00 0.00 0.00 54 1010.5
20260830042405 78 15 0.0 0.0 0.00 0.00 0.00 55 1010.5
20260830042336 78 15 0.0 0.0 0.00 0.00 0.00 54 1010.5
20260830042323 79 44 0.0 0.0 0.00 0.00 0.00 53 1010.5
20260830042316 79 44 0.0 0.0 0.00 0.00 0.00 54 1010.5
20260830042309 78 15 0.0 0.0 0.00 0.00 0.00 54 1010.5
20260830042259 79 44 0.0 0.0 0.00 0.00 0.00 54 1010.5
20260830042253 79 44 0.0 0.0 0.00 0.00 0.00 54 1010.5
20260830042247 79 44 0.0 0.0 0.00 0.00 0.00 53 1010.5
20260830042236 78 15 0.0 0.0 0.00 0.00 0.00 54 1010.5
20260830042222 78 15 0.0 0.0 0.00 0.00 0.00 54 1010.5
20260830042213 78 15 0.0 0.0 0.00 0.00 0.00 54 1010.5
20260830042108 79 15 0.0 0.0 0.00 0.00 0.00 54 1011.4
20260830042051 79 15 0.0 0.0 0.00 0.00 0.00 53 1010.5
20260830042041 79 15 0.0 0.0 0.00 0.00 0.00 53 1010.5
20260830041922 79 15 0.0 0.0 0.00 0.00 0.00 53 1010.5
20260830041911 79 15 0.0 0.0 0.00 0.00 0.00 54 1010.5
20260830041858 79 15 0.0 0.0 0.00 0.00 0.00 53 1010.5
20260830041848 79 15 0.0 0.0 0.00 0.00 0.00 53 1010.5
20260830041606 79 15 0.0 0.0 0.00 0.00 0.00 54 1011.3
20260830041206 79 44 0.0 0.0 0.00 0.00 0.00 53 1010.5
20260830041135 79 44 0.0 0.0 0.00 0.00 0.00 53 1010.5
20260830041106 79 322 0.0 2.0 0.00 0.00 0.00 53 1011.4
20260830041035 79 44 0.0 0.0 0.00 0.00 0.00 53 1010.5
20260830041019 79 44 0.0 0.0 0.00 0.00 0.00 53 1010.5
20260830040935 79 44 0.0 0.0 0.00 0.00 0.00 53 1010.5
20260830040919 79 44 0.0 0.0 0.00 0.00 0.00 53 1010.5
20260830040836 79 44 0.0 0.0 0.00 0.00 0.00 53 1010.5
20260830040818 79 44 0.0 0.0 0.00 0.00 0.00 53 1010.5
20260830040737 79 44 0.0 0.0 0.00 0.00 0.00 53 1010.5
20260830040706 79 44 0.0 0.0 0.00 0.00 0.00 53 1010.5
20260830040636 79 44 0.0 0.0 0.00 0.00 0.00 54 1010.5
20260830040607 79 44 0.0 0.0 0.00 0.00 0.00 53 1010.5
20260830040601 79 44 0.0 0.0 0.00 0.00 0.00 53 1011.4
20260830040538 79 315 0.0 0.0 0.00 0.00 0.00 53 1010.4
20260830040527 80 315 0.0 0.0 0.00 0.00 0.00 53 1010.4
20260830040518 79 315 0.0 0.0 0.00 0.00 0.00 53 1010.4
20260830040435 79 315 0.0 0.0 0.00 0.00 0.00 53 1010.4
20260830040419 80 315 0.0 0.0 0.00 0.00 0.00 53 1010.4
20260830040336 80 315 0.0 0.0 0.00 0.00 0.00 53 1010.4
20260830040306 80 315 0.0 0.0 0.00 0.00 0.00 53 1010.4
20260830040234 80 315 0.0 0.0 0.00 0.00 0.00 53 1010.4
20260830040215 80 315 0.0 0.0 0.00 0.00 0.00 53 1010.4
20260830040057 80 333 0.0 1.0 0.00 0.00 0.00 54 1011.2
20260830040006 80 315 0.0 0.0 0.00 0.00 0.00 53 1010.4
20260830035935 80 315 0.0 0.0 0.00 0.00 0.00 54 1010.4
20260830035906 80 315 0.0 0.0 0.00 0.00 0.00 54 1010.4
20260830035835 80 315 0.0 0.0 0.00 0.00 0.00 54 1010.4
20260830035807 80 315 0.0 0.0 0.00 0.00 0.00 54 1010.4
20260830035736 80 315 0.0 0.0 0.00 0.00 0.00 55 1010.4
20260830035706 80 315 0.0 0.0 0.00 0.00 0.00 54 1010.4
20260830035636 80 315 0.0 0.0 0.00 0.00 0.00 54 1010.4
20260830035607 80 315 0.0 0.0 0.00 0.00 0.00 54 1010.4
20260830035554 80 315 0.0 0.0 0.00 0.00 0.00 54 1011.3
20260830035535 80 315 0.0 0.0 0.00 0.00 0.00 54 1010.0
20260830035506 80 315 0.0 0.0 0.00 0.00 0.00 54 1010.0
20260830035435 80 315 0.0 0.0 0.00 0.00 0.00 54 1010.0
20260830035425 80 315 0.0 0.0 0.00 0.00 0.00 54 1010.0
20260830035335 80 315 0.0 0.0 0.00 0.00 0.00 54 1010.0
20260830035306 80 315 0.0 0.0 0.00 0.00 0.00 53 1010.0
20260830035236 80 315 0.0 0.0 0.00 0.00 0.00 54 1010.0
20260830035210 80 315 0.0 0.0 0.00 0.00 0.00 54 1010.0
20260830035206 80 315 0.0 0.0 0.00 0.00 0.00 54 1010.0
20260830035134 80 315 0.0 0.0 0.00 0.00 0.00 54 1010.0
20260830035115 80 315 0.0 0.0 0.00 0.00 0.00 54 1010.0
20260830035108 80 315 0.0 0.0 0.00 0.00 0.00 55 1010.0
20260830035056 80 315 0.0 0.0 0.00 0.00 0.00 54 1010.0
20260830035050 80 297 0.0 0.0 0.00 0.00 0.00 54 1011.4
20260830034847 80 315 0.0 0.0 0.00 0.00 0.00 55 1010.0
20260830034835 80 315 0.0 0.0 0.00 0.00 0.00 55 1010.0
20260830034827 80 315 0.0 0.0 0.00 0.00 0.00 55 1010.0
20260830034546 80 315 0.0 0.0 0.00 0.00 0.00 54 1011.1
20260830034536 80 309 0.0 0.0 0.00 0.00 0.00 54 1010.1
20260830034435 80 309 0.0 0.0 0.00 0.00 0.00 54 1010.1
20260830034409 80 309 0.0 0.0 0.00 0.00 0.00 54 1010.1
20260830034405 80 309 0.0 0.0 0.00 0.00 0.00 54 1010.1
20260830034335 80 309 0.0 0.0 0.00 0.00 0.00 55 1010.1
20260830034307 80 309 0.0 0.0 0.00 0.00 0.00 54 1010.1
20260830034235 80 309 0.0 0.0 0.00 0.00 0.00 54 1010.1
20260830034217 80 309 0.0 0.0 0.00 0.00 0.00 53 1010.1
20260830034206 80 309 0.0 0.0 0.00 0.00 0.00 53 1010.1
20260830034135 80 309 0.0 0.0 0.00 0.00 0.00 53 1010.1
20260830034105 80 309 0.0 0.0 0.00 0.00 0.00 53 1010.1
20260830034051 80 309 0.0 0.0 0.00 0.00 0.00 54 1010.1
20260830034044 80 304 0.0 0.0 0.00 0.00 0.00 54 1011.3
20260830033852 80 309 0.0 0.0 0.00 0.00 0.00 54 1010.1
20260830033705 81 309 0.0 0.0 0.00 0.00 0.00 54 1010.1
20260830033635 81 309 0.0 0.0 0.00 0.00 0.00 53 1010.1
20260830033608 81 309 0.0 0.0 0.00 0.00 0.00 53 1010.1
20260830033551 81 315 0.0 0.0 0.00 0.00 0.00 54 1009.7
20260830033540 81 333 0.0 0.0 0.00 0.00 0.00 54 1011.0
20260830033535 81 315 0.0 0.0 0.00 0.00 0.00 54 1009.7
20260830033505 81 315 0.0 0.0 0.00 0.00 0.00 53 1009.7
20260830033436 81 315 0.0 0.0 0.00 0.00 0.00 54 1009.7
20260830033405 81 315 0.0 0.0 0.00 0.00 0.00 54 1009.7
20260830033336 81 315 0.0 0.0 0.00 0.00 0.00 53 1009.7
20260830033305 81 315 0.0 0.0 0.00 0.00 0.00 54 1009.7
20260830033251 81 315 0.0 0.0 0.00 0.00 0.00 54 1009.7
20260830033240 81 315 0.0 0.0 0.00 0.00 0.00 53 1009.7
20260830033236 81 315 0.0 0.0 0.00 0.00 0.00 55 1009.7
20260830033226 81 315 0.0 0.0 0.00 0.00 0.00 55 1009.7
20260830033216 81 315 0.0 0.0 0.00 0.00 0.00 54 1009.7
20260830033036 81 333 0.0 0.0 0.00 0.00 0.00 52 1010.9
20260830033021 81 257 0.0 0.0 0.00 0.00 0.00 53 1009.8
20260830033013 81 257 0.0 0.0 0.00 0.00 0.00 53 1009.8
20260830032951 81 257 0.0 0.0 0.00 0.00 0.00 53 1009.8
20260830032947 81 315 0.0 0.0 0.00 0.00 0.00 53 1009.7
20260830032939 81 315 0.0 0.0 0.00 0.00 0.00 53 1009.7
20260830032929 81 315 0.0 0.0 0.00 0.00 0.00 54 1009.7
20260830032919 81 315 0.0 0.0 0.00 0.00 0.00 53 1009.7
20260830032641 81 315 0.0 0.0 0.00 0.00 0.00 53 1009.7
20260830032629 81 257 0.0 0.0 0.00 0.00 0.00 53 1009.8
20260830032535 81 315 0.0 0.0 0.00 0.00 0.00 53 1011.0
20260830032336 81 257 0.0 0.0 0.00 0.00 0.00 53 1009.8
20260830032306 81 257 0.0 0.0 0.00 0.00 0.00 53 1009.8
20260830032235 81 257 0.0 0.0 0.00 0.00 0.00 53 1009.8
20260830032140 81 257 0.0 0.0 0.00 0.00 0.00 53 1009.8
20260830032127 81 257 0.0 0.0 0.00 0.00 0.00 53 1009.8
20260830032030 81 309 0.0 0.0 0.00 0.00 0.00 53 1010.8
20260830031934 81 257 0.0 0.0 0.00 0.00 0.00 53 1009.8
20260830031835 82 257 0.0 0.0 0.00 0.00 0.00 53 1009.8
20260830031735 82 257 0.0 0.0 0.00 0.00 0.00 53 1009.8
20260830031704 82 257 0.0 0.0 0.00 0.00 0.00 53 1009.8
20260830031650 82 306 0.0 0.0 0.00 0.00 0.00 52 1009.7
20260830031634 82 257 0.0 0.0 0.00 0.00 0.00 53 1009.8